<?xml version="1.0" encoding="UTF-8" standalone="no" ?>
<gpx xmlns="http://www.topografix.com/GPX/1/1" creator="www.cicloide.com" version="1.1" xmlns:xsi="http://www.w3.org/2001/XMLSchema-instance" xsi:schemaLocation="http://www.topografix.com/GPX/1/1 http://www.topografix.com/GPX/1/1/gpx.xsd">
  <trk>
    <name>www.cicloide.com 13421</name>
    <desc>www.cicloide.com 13421</desc>
    <trkseg>
      <trkpt lat="41.605741524" lon="2.540344184">
        <ele>104.92</ele>
        <time>2013-05-05T07:39:32Z</time>
      </trkpt>
      <trkpt lat="41.605747475" lon="2.540319290">
        <ele>104.92</ele>
        <time>2013-05-05T07:39:55Z</time>
      </trkpt>
      <trkpt lat="41.605760048" lon="2.540278135">
        <ele>104.92</ele>
        <time>2013-05-05T07:40:14Z</time>
      </trkpt>
      <trkpt lat="41.605745883" lon="2.540303784">
        <ele>105.40</ele>
        <time>2013-05-05T07:40:45Z</time>
      </trkpt>
      <trkpt lat="41.605742865" lon="2.540318787">
        <ele>105.40</ele>
        <time>2013-05-05T07:41:04Z</time>
      </trkpt>
      <trkpt lat="41.605746805" lon="2.540331444">
        <ele>105.40</ele>
        <time>2013-05-05T07:41:31Z</time>
      </trkpt>
      <trkpt lat="41.605754265" lon="2.540328762">
        <ele>105.40</ele>
        <time>2013-05-05T07:41:57Z</time>
      </trkpt>
      <trkpt lat="41.605764742" lon="2.540324319">
        <ele>105.40</ele>
        <time>2013-05-05T07:42:20Z</time>
      </trkpt>
      <trkpt lat="41.605741692" lon="2.540314261">
        <ele>105.40</ele>
        <time>2013-05-05T07:42:41Z</time>
      </trkpt>
      <trkpt lat="41.605720402" lon="2.540297162">
        <ele>105.40</ele>
        <time>2013-05-05T07:43:06Z</time>
      </trkpt>
      <trkpt lat="41.605724425" lon="2.540316524">
        <ele>104.92</ele>
        <time>2013-05-05T07:43:24Z</time>
      </trkpt>
      <trkpt lat="41.605731801" lon="2.540329097">
        <ele>104.92</ele>
        <time>2013-05-05T07:43:26Z</time>
      </trkpt>
      <trkpt lat="41.605850154" lon="2.540382238">
        <ele>104.92</ele>
        <time>2013-05-05T07:43:33Z</time>
      </trkpt>
      <trkpt lat="41.606076968" lon="2.540378802">
        <ele>104.92</ele>
        <time>2013-05-05T07:43:40Z</time>
      </trkpt>
      <trkpt lat="41.606290371" lon="2.540442169">
        <ele>104.92</ele>
        <time>2013-05-05T07:43:47Z</time>
      </trkpt>
      <trkpt lat="41.606554820" lon="2.540542081">
        <ele>106.36</ele>
        <time>2013-05-05T07:43:57Z</time>
      </trkpt>
      <trkpt lat="41.606730672" lon="2.540621542">
        <ele>106.84</ele>
        <time>2013-05-05T07:44:04Z</time>
      </trkpt>
      <trkpt lat="41.606973496" lon="2.540727908">
        <ele>107.81</ele>
        <time>2013-05-05T07:44:14Z</time>
      </trkpt>
      <trkpt lat="41.607196287" lon="2.540797729">
        <ele>108.29</ele>
        <time>2013-05-05T07:44:23Z</time>
      </trkpt>
      <trkpt lat="41.607461910" lon="2.540824551">
        <ele>109.25</ele>
        <time>2013-05-05T07:44:33Z</time>
      </trkpt>
      <trkpt lat="41.607625776" lon="2.540835783">
        <ele>110.21</ele>
        <time>2013-05-05T07:44:40Z</time>
      </trkpt>
      <trkpt lat="41.607867091" lon="2.540789934">
        <ele>111.17</ele>
        <time>2013-05-05T07:44:49Z</time>
      </trkpt>
      <trkpt lat="41.608114441" lon="2.540773422">
        <ele>111.65</ele>
        <time>2013-05-05T07:44:58Z</time>
      </trkpt>
      <trkpt lat="41.608320468" lon="2.540720113">
        <ele>112.13</ele>
        <time>2013-05-05T07:45:06Z</time>
      </trkpt>
      <trkpt lat="41.608510151" lon="2.540699829">
        <ele>113.09</ele>
        <time>2013-05-05T07:45:14Z</time>
      </trkpt>
      <trkpt lat="41.608714250" lon="2.540668313">
        <ele>113.57</ele>
        <time>2013-05-05T07:45:22Z</time>
      </trkpt>
      <trkpt lat="41.608936789" lon="2.540647861">
        <ele>114.05</ele>
        <time>2013-05-05T07:45:30Z</time>
      </trkpt>
      <trkpt lat="41.609135189" lon="2.540620117">
        <ele>115.50</ele>
        <time>2013-05-05T07:45:38Z</time>
      </trkpt>
      <trkpt lat="41.609299391" lon="2.540604275">
        <ele>115.98</ele>
        <time>2013-05-05T07:45:44Z</time>
      </trkpt>
      <trkpt lat="41.609484714" lon="2.540580554">
        <ele>116.46</ele>
        <time>2013-05-05T07:45:51Z</time>
      </trkpt>
      <trkpt lat="41.609619076" lon="2.540579297">
        <ele>116.94</ele>
        <time>2013-05-05T07:45:58Z</time>
      </trkpt>
      <trkpt lat="41.609812531" lon="2.540534202">
        <ele>117.90</ele>
        <time>2013-05-05T07:46:06Z</time>
      </trkpt>
      <trkpt lat="41.609858296" lon="2.540526491">
        <ele>117.90</ele>
        <time>2013-05-05T07:46:08Z</time>
      </trkpt>
      <trkpt lat="41.609954352" lon="2.540612657">
        <ele>118.86</ele>
        <time>2013-05-05T07:46:14Z</time>
      </trkpt>
      <trkpt lat="41.610024509" lon="2.540811056">
        <ele>119.82</ele>
        <time>2013-05-05T07:46:21Z</time>
      </trkpt>
      <trkpt lat="41.610151579" lon="2.541072991">
        <ele>121.26</ele>
        <time>2013-05-05T07:46:31Z</time>
      </trkpt>
      <trkpt lat="41.610217125" lon="2.541282036">
        <ele>122.22</ele>
        <time>2013-05-05T07:46:39Z</time>
      </trkpt>
      <trkpt lat="41.610251239" lon="2.541360658">
        <ele>122.71</ele>
        <time>2013-05-05T07:46:44Z</time>
      </trkpt>
      <trkpt lat="41.610338411" lon="2.541344984">
        <ele>123.67</ele>
        <time>2013-05-05T07:46:48Z</time>
      </trkpt>
      <trkpt lat="41.610518287" lon="2.541272815">
        <ele>124.63</ele>
        <time>2013-05-05T07:46:56Z</time>
      </trkpt>
      <trkpt lat="41.610766643" lon="2.541181034">
        <ele>125.59</ele>
        <time>2013-05-05T07:47:06Z</time>
      </trkpt>
      <trkpt lat="41.611013490" lon="2.541080954">
        <ele>126.55</ele>
        <time>2013-05-05T07:47:16Z</time>
      </trkpt>
      <trkpt lat="41.611274335" lon="2.540973079">
        <ele>128.47</ele>
        <time>2013-05-05T07:47:26Z</time>
      </trkpt>
      <trkpt lat="41.611529731" lon="2.540872915">
        <ele>129.43</ele>
        <time>2013-05-05T07:47:36Z</time>
      </trkpt>
      <trkpt lat="41.611805915" lon="2.540826563">
        <ele>130.88</ele>
        <time>2013-05-05T07:47:46Z</time>
      </trkpt>
      <trkpt lat="41.612138676" lon="2.540844752">
        <ele>132.80</ele>
        <time>2013-05-05T07:47:58Z</time>
      </trkpt>
      <trkpt lat="41.612447885" lon="2.540854894">
        <ele>133.76</ele>
        <time>2013-05-05T07:48:09Z</time>
      </trkpt>
      <trkpt lat="41.612775282" lon="2.540870149">
        <ele>135.68</ele>
        <time>2013-05-05T07:48:21Z</time>
      </trkpt>
      <trkpt lat="41.613054148" lon="2.540878112">
        <ele>137.61</ele>
        <time>2013-05-05T07:48:31Z</time>
      </trkpt>
      <trkpt lat="41.613272245" lon="2.540885739">
        <ele>139.05</ele>
        <time>2013-05-05T07:48:39Z</time>
      </trkpt>
      <trkpt lat="41.613520266" lon="2.540937288">
        <ele>140.97</ele>
        <time>2013-05-05T07:48:49Z</time>
      </trkpt>
      <trkpt lat="41.613744146" lon="2.540992692">
        <ele>142.41</ele>
        <time>2013-05-05T07:48:58Z</time>
      </trkpt>
      <trkpt lat="41.613936511" lon="2.541046923">
        <ele>143.37</ele>
        <time>2013-05-05T07:49:06Z</time>
      </trkpt>
      <trkpt lat="41.614130468" lon="2.541100232">
        <ele>144.82</ele>
        <time>2013-05-05T07:49:14Z</time>
      </trkpt>
      <trkpt lat="41.614375387" lon="2.541136610">
        <ele>146.26</ele>
        <time>2013-05-05T07:49:23Z</time>
      </trkpt>
      <trkpt lat="41.614625922" lon="2.541197965">
        <ele>147.70</ele>
        <time>2013-05-05T07:49:32Z</time>
      </trkpt>
      <trkpt lat="41.614871261" lon="2.541231996">
        <ele>149.14</ele>
        <time>2013-05-05T07:49:41Z</time>
      </trkpt>
      <trkpt lat="41.615074187" lon="2.541304583">
        <ele>150.10</ele>
        <time>2013-05-05T07:49:49Z</time>
      </trkpt>
      <trkpt lat="41.615288931" lon="2.541376919">
        <ele>152.03</ele>
        <time>2013-05-05T07:49:57Z</time>
      </trkpt>
      <trkpt lat="41.615524630" lon="2.541470712">
        <ele>153.47</ele>
        <time>2013-05-05T07:50:06Z</time>
      </trkpt>
      <trkpt lat="41.615781954" lon="2.541656371">
        <ele>155.39</ele>
        <time>2013-05-05T07:50:17Z</time>
      </trkpt>
      <trkpt lat="41.615997956" lon="2.541797690">
        <ele>156.83</ele>
        <time>2013-05-05T07:50:26Z</time>
      </trkpt>
      <trkpt lat="41.616239523" lon="2.541962311">
        <ele>158.27</ele>
        <time>2013-05-05T07:50:36Z</time>
      </trkpt>
      <trkpt lat="41.616426439" lon="2.542076724">
        <ele>160.20</ele>
        <time>2013-05-05T07:50:44Z</time>
      </trkpt>
      <trkpt lat="41.616642105" lon="2.542120393">
        <ele>161.64</ele>
        <time>2013-05-05T07:50:52Z</time>
      </trkpt>
      <trkpt lat="41.616888114" lon="2.542014782">
        <ele>162.12</ele>
        <time>2013-05-05T07:51:00Z</time>
      </trkpt>
      <trkpt lat="41.617124484" lon="2.541796768">
        <ele>163.08</ele>
        <time>2013-05-05T07:51:09Z</time>
      </trkpt>
      <trkpt lat="41.617306371" lon="2.541578755">
        <ele>164.04</ele>
        <time>2013-05-05T07:51:17Z</time>
      </trkpt>
      <trkpt lat="41.617496221" lon="2.541276671">
        <ele>165.00</ele>
        <time>2013-05-05T07:51:26Z</time>
      </trkpt>
      <trkpt lat="41.617618513" lon="2.541032255">
        <ele>166.93</ele>
        <time>2013-05-05T07:51:34Z</time>
      </trkpt>
      <trkpt lat="41.617751786" lon="2.540739559">
        <ele>169.33</ele>
        <time>2013-05-05T07:51:44Z</time>
      </trkpt>
      <trkpt lat="41.617885561" lon="2.540445270">
        <ele>172.21</ele>
        <time>2013-05-05T07:51:55Z</time>
      </trkpt>
      <trkpt lat="41.617977007" lon="2.540244859">
        <ele>174.14</ele>
        <time>2013-05-05T07:52:03Z</time>
      </trkpt>
      <trkpt lat="41.618089995" lon="2.540243266">
        <ele>176.54</ele>
        <time>2013-05-05T07:52:09Z</time>
      </trkpt>
      <trkpt lat="41.618107178" lon="2.540290792">
        <ele>176.54</ele>
        <time>2013-05-05T07:52:11Z</time>
      </trkpt>
      <trkpt lat="41.618090833" lon="2.540551804">
        <ele>178.94</ele>
        <time>2013-05-05T07:52:21Z</time>
      </trkpt>
      <trkpt lat="41.617995028" lon="2.540730674">
        <ele>180.38</ele>
        <time>2013-05-05T07:52:29Z</time>
      </trkpt>
      <trkpt lat="41.617968877" lon="2.540939802">
        <ele>182.31</ele>
        <time>2013-05-05T07:52:36Z</time>
      </trkpt>
      <trkpt lat="41.618037860" lon="2.541149266">
        <ele>183.27</ele>
        <time>2013-05-05T07:52:43Z</time>
      </trkpt>
      <trkpt lat="41.618131318" lon="2.541379517">
        <ele>184.71</ele>
        <time>2013-05-05T07:52:51Z</time>
      </trkpt>
      <trkpt lat="41.618239528" lon="2.541662071">
        <ele>186.15</ele>
        <time>2013-05-05T07:53:01Z</time>
      </trkpt>
      <trkpt lat="41.618374142" lon="2.542003382">
        <ele>188.08</ele>
        <time>2013-05-05T07:53:13Z</time>
      </trkpt>
      <trkpt lat="41.618497188" lon="2.542236567">
        <ele>190.00</ele>
        <time>2013-05-05T07:53:22Z</time>
      </trkpt>
      <trkpt lat="41.618657366" lon="2.542418538">
        <ele>190.96</ele>
        <time>2013-05-05T07:53:31Z</time>
      </trkpt>
      <trkpt lat="41.618807402" lon="2.542555330">
        <ele>192.88</ele>
        <time>2013-05-05T07:53:39Z</time>
      </trkpt>
      <trkpt lat="41.619008903" lon="2.542701008">
        <ele>194.80</ele>
        <time>2013-05-05T07:53:49Z</time>
      </trkpt>
      <trkpt lat="41.619212835" lon="2.542734284">
        <ele>195.77</ele>
        <time>2013-05-05T07:53:57Z</time>
      </trkpt>
      <trkpt lat="41.619454988" lon="2.542746270">
        <ele>196.73</ele>
        <time>2013-05-05T07:54:06Z</time>
      </trkpt>
      <trkpt lat="41.619610389" lon="2.542885075">
        <ele>196.73</ele>
        <time>2013-05-05T07:54:13Z</time>
      </trkpt>
      <trkpt lat="41.619744834" lon="2.543096466">
        <ele>196.73</ele>
        <time>2013-05-05T07:54:18Z</time>
      </trkpt>
      <trkpt lat="41.619805855" lon="2.543196630">
        <ele>195.28</ele>
        <time>2013-05-05T07:54:20Z</time>
      </trkpt>
      <trkpt lat="41.619870563" lon="2.543311210">
        <ele>194.32</ele>
        <time>2013-05-05T07:54:22Z</time>
      </trkpt>
      <trkpt lat="41.619931583" lon="2.543634333">
        <ele>192.40</ele>
        <time>2013-05-05T07:54:26Z</time>
      </trkpt>
      <trkpt lat="41.619878777" lon="2.543824183">
        <ele>191.44</ele>
        <time>2013-05-05T07:54:28Z</time>
      </trkpt>
      <trkpt lat="41.619795377" lon="2.544025684">
        <ele>190.96</ele>
        <time>2013-05-05T07:54:30Z</time>
      </trkpt>
      <trkpt lat="41.619558086" lon="2.544546116">
        <ele>187.59</ele>
        <time>2013-05-05T07:54:35Z</time>
      </trkpt>
      <trkpt lat="41.619468567" lon="2.545041403">
        <ele>185.67</ele>
        <time>2013-05-05T07:54:39Z</time>
      </trkpt>
      <trkpt lat="41.619464125" lon="2.545177525">
        <ele>184.23</ele>
        <time>2013-05-05T07:54:40Z</time>
      </trkpt>
      <trkpt lat="41.619431100" lon="2.545453960">
        <ele>182.79</ele>
        <time>2013-05-05T07:54:42Z</time>
      </trkpt>
      <trkpt lat="41.619406289" lon="2.545887472">
        <ele>180.38</ele>
        <time>2013-05-05T07:54:45Z</time>
      </trkpt>
      <trkpt lat="41.619356752" lon="2.546339089">
        <ele>177.98</ele>
        <time>2013-05-05T07:54:48Z</time>
      </trkpt>
      <trkpt lat="41.619357004" lon="2.546954321">
        <ele>176.54</ele>
        <time>2013-05-05T07:54:52Z</time>
      </trkpt>
      <trkpt lat="41.619404110" lon="2.547254309">
        <ele>174.62</ele>
        <time>2013-05-05T07:54:54Z</time>
      </trkpt>
      <trkpt lat="41.619367984" lon="2.547840959">
        <ele>172.69</ele>
        <time>2013-05-05T07:54:58Z</time>
      </trkpt>
      <trkpt lat="41.619365050" lon="2.547984876">
        <ele>172.69</ele>
        <time>2013-05-05T07:54:59Z</time>
      </trkpt>
      <trkpt lat="41.619513242" lon="2.548339682">
        <ele>171.73</ele>
        <time>2013-05-05T07:55:02Z</time>
      </trkpt>
      <trkpt lat="41.620017917" lon="2.548871681">
        <ele>168.37</ele>
        <time>2013-05-05T07:55:08Z</time>
      </trkpt>
      <trkpt lat="41.620109112" lon="2.548957847">
        <ele>167.89</ele>
        <time>2013-05-05T07:55:09Z</time>
      </trkpt>
      <trkpt lat="41.620468863" lon="2.549546005">
        <ele>164.04</ele>
        <time>2013-05-05T07:55:14Z</time>
      </trkpt>
      <trkpt lat="41.620695091" lon="2.550215636">
        <ele>162.60</ele>
        <time>2013-05-05T07:55:19Z</time>
      </trkpt>
      <trkpt lat="41.620817383" lon="2.550955841">
        <ele>162.60</ele>
        <time>2013-05-05T07:55:25Z</time>
      </trkpt>
      <trkpt lat="41.620825848" lon="2.551082157">
        <ele>162.12</ele>
        <time>2013-05-05T07:55:26Z</time>
      </trkpt>
      <trkpt lat="41.620911595" lon="2.551445931">
        <ele>160.68</ele>
        <time>2013-05-05T07:55:29Z</time>
      </trkpt>
      <trkpt lat="41.621038246" lon="2.551649025">
        <ele>159.72</ele>
        <time>2013-05-05T07:55:31Z</time>
      </trkpt>
      <trkpt lat="41.621263049" lon="2.552245062">
        <ele>155.87</ele>
        <time>2013-05-05T07:55:36Z</time>
      </trkpt>
      <trkpt lat="41.621331193" lon="2.552890049">
        <ele>156.35</ele>
        <time>2013-05-05T07:55:41Z</time>
      </trkpt>
      <trkpt lat="41.621468489" lon="2.553318868">
        <ele>154.43</ele>
        <time>2013-05-05T07:55:45Z</time>
      </trkpt>
      <trkpt lat="41.621504783" lon="2.553422887">
        <ele>153.95</ele>
        <time>2013-05-05T07:55:46Z</time>
      </trkpt>
      <trkpt lat="41.621844166" lon="2.553999813">
        <ele>151.06</ele>
        <time>2013-05-05T07:55:52Z</time>
      </trkpt>
      <trkpt lat="41.621901582" lon="2.554104336">
        <ele>150.10</ele>
        <time>2013-05-05T07:55:53Z</time>
      </trkpt>
      <trkpt lat="41.622117584" lon="2.554561317">
        <ele>149.14</ele>
        <time>2013-05-05T07:55:57Z</time>
      </trkpt>
      <trkpt lat="41.622423104" lon="2.554897683">
        <ele>146.74</ele>
        <time>2013-05-05T07:56:01Z</time>
      </trkpt>
      <trkpt lat="41.622677998" lon="2.555093819">
        <ele>146.74</ele>
        <time>2013-05-05T07:56:04Z</time>
      </trkpt>
      <trkpt lat="41.623146630" lon="2.555220721">
        <ele>143.85</ele>
        <time>2013-05-05T07:56:09Z</time>
      </trkpt>
      <trkpt lat="41.623416695" lon="2.555372685">
        <ele>142.41</ele>
        <time>2013-05-05T07:56:12Z</time>
      </trkpt>
      <trkpt lat="41.623531192" lon="2.555742327">
        <ele>140.97</ele>
        <time>2013-05-05T07:56:15Z</time>
      </trkpt>
      <trkpt lat="41.623537310" lon="2.556011805">
        <ele>140.97</ele>
        <time>2013-05-05T07:56:17Z</time>
      </trkpt>
      <trkpt lat="41.623688185" lon="2.556704570">
        <ele>139.53</ele>
        <time>2013-05-05T07:56:23Z</time>
      </trkpt>
      <trkpt lat="41.623646610" lon="2.556954518">
        <ele>139.05</ele>
        <time>2013-05-05T07:56:26Z</time>
      </trkpt>
      <trkpt lat="41.623591290" lon="2.557012856">
        <ele>138.57</ele>
        <time>2013-05-05T07:56:27Z</time>
      </trkpt>
      <trkpt lat="41.623487773" lon="2.557122491">
        <ele>138.57</ele>
        <time>2013-05-05T07:56:29Z</time>
      </trkpt>
      <trkpt lat="41.623336564" lon="2.557484338">
        <ele>138.57</ele>
        <time>2013-05-05T07:56:34Z</time>
      </trkpt>
      <trkpt lat="41.623416359" lon="2.557744848">
        <ele>138.09</ele>
        <time>2013-05-05T07:56:37Z</time>
      </trkpt>
      <trkpt lat="41.623527252" lon="2.557869487">
        <ele>137.61</ele>
        <time>2013-05-05T07:56:39Z</time>
      </trkpt>
      <trkpt lat="41.623719701" lon="2.558217336">
        <ele>137.13</ele>
        <time>2013-05-05T07:56:44Z</time>
      </trkpt>
      <trkpt lat="41.623755491" lon="2.558448425">
        <ele>137.13</ele>
        <time>2013-05-05T07:56:47Z</time>
      </trkpt>
      <trkpt lat="41.623986664" lon="2.558989644">
        <ele>137.13</ele>
        <time>2013-05-05T07:56:56Z</time>
      </trkpt>
      <trkpt lat="41.624071489" lon="2.559150996">
        <ele>138.57</ele>
        <time>2013-05-05T07:56:59Z</time>
      </trkpt>
      <trkpt lat="41.624293945" lon="2.559531953">
        <ele>138.57</ele>
        <time>2013-05-05T07:57:06Z</time>
      </trkpt>
      <trkpt lat="41.624548922" lon="2.560158501">
        <ele>136.64</ele>
        <time>2013-05-05T07:57:15Z</time>
      </trkpt>
      <trkpt lat="41.624842876" lon="2.560568543">
        <ele>134.24</ele>
        <time>2013-05-05T07:57:21Z</time>
      </trkpt>
      <trkpt lat="41.624960306" lon="2.560709192">
        <ele>133.76</ele>
        <time>2013-05-05T07:57:23Z</time>
      </trkpt>
      <trkpt lat="41.625091399" lon="2.561107500">
        <ele>132.80</ele>
        <time>2013-05-05T07:57:27Z</time>
      </trkpt>
      <trkpt lat="41.625045969" lon="2.561550064">
        <ele>130.88</ele>
        <time>2013-05-05T07:57:31Z</time>
      </trkpt>
      <trkpt lat="41.625011939" lon="2.561650228">
        <ele>129.92</ele>
        <time>2013-05-05T07:57:32Z</time>
      </trkpt>
      <trkpt lat="41.624947901" lon="2.561961196">
        <ele>128.47</ele>
        <time>2013-05-05T07:57:35Z</time>
      </trkpt>
      <trkpt lat="41.625054183" lon="2.562274177">
        <ele>127.51</ele>
        <time>2013-05-05T07:57:38Z</time>
      </trkpt>
      <trkpt lat="41.625319806" lon="2.562564777">
        <ele>125.59</ele>
        <time>2013-05-05T07:57:42Z</time>
      </trkpt>
      <trkpt lat="41.625393399" lon="2.562617164">
        <ele>125.59</ele>
        <time>2013-05-05T07:57:43Z</time>
      </trkpt>
      <trkpt lat="41.625611412" lon="2.562755549">
        <ele>124.63</ele>
        <time>2013-05-05T07:57:46Z</time>
      </trkpt>
      <trkpt lat="41.625808806" lon="2.563035505">
        <ele>124.63</ele>
        <time>2013-05-05T07:57:50Z</time>
      </trkpt>
      <trkpt lat="41.625763711" lon="2.563278664">
        <ele>124.63</ele>
        <time>2013-05-05T07:57:53Z</time>
      </trkpt>
      <trkpt lat="41.625729932" lon="2.563344881">
        <ele>124.63</ele>
        <time>2013-05-05T07:57:54Z</time>
      </trkpt>
      <trkpt lat="41.625623650" lon="2.563553507">
        <ele>124.15</ele>
        <time>2013-05-05T07:57:57Z</time>
      </trkpt>
      <trkpt lat="41.625567240" lon="2.563968746">
        <ele>123.19</ele>
        <time>2013-05-05T07:58:02Z</time>
      </trkpt>
      <trkpt lat="41.625589619" lon="2.564169577">
        <ele>123.19</ele>
        <time>2013-05-05T07:58:05Z</time>
      </trkpt>
      <trkpt lat="41.625588530" lon="2.564291282">
        <ele>125.11</ele>
        <time>2013-05-05T07:58:08Z</time>
      </trkpt>
      <trkpt lat="41.625591212" lon="2.564504098">
        <ele>127.03</ele>
        <time>2013-05-05T07:58:15Z</time>
      </trkpt>
      <trkpt lat="41.625539998" lon="2.564832166">
        <ele>128.47</ele>
        <time>2013-05-05T07:58:24Z</time>
      </trkpt>
      <trkpt lat="41.625423155" lon="2.565238437">
        <ele>128.47</ele>
        <time>2013-05-05T07:58:33Z</time>
      </trkpt>
      <trkpt lat="41.625304467" lon="2.565620735">
        <ele>128.47</ele>
        <time>2013-05-05T07:58:42Z</time>
      </trkpt>
      <trkpt lat="41.625345119" lon="2.565955676">
        <ele>128.47</ele>
        <time>2013-05-05T07:58:49Z</time>
      </trkpt>
      <trkpt lat="41.625471435" lon="2.566082159">
        <ele>128.47</ele>
        <time>2013-05-05T07:58:54Z</time>
      </trkpt>
      <trkpt lat="41.625678048" lon="2.566056008">
        <ele>128.95</ele>
        <time>2013-05-05T07:59:01Z</time>
      </trkpt>
      <trkpt lat="41.625906623" lon="2.565954503">
        <ele>130.40</ele>
        <time>2013-05-05T07:59:10Z</time>
      </trkpt>
      <trkpt lat="41.626148273" lon="2.565870097">
        <ele>131.84</ele>
        <time>2013-05-05T07:59:20Z</time>
      </trkpt>
      <trkpt lat="41.626395372" lon="2.565789798">
        <ele>133.28</ele>
        <time>2013-05-05T07:59:30Z</time>
      </trkpt>
      <trkpt lat="41.626613134" lon="2.565699022">
        <ele>134.24</ele>
        <time>2013-05-05T07:59:39Z</time>
      </trkpt>
      <trkpt lat="41.626780772" lon="2.565678487">
        <ele>135.20</ele>
        <time>2013-05-05T07:59:46Z</time>
      </trkpt>
      <trkpt lat="41.626869787" lon="2.565862889">
        <ele>136.64</ele>
        <time>2013-05-05T07:59:53Z</time>
      </trkpt>
      <trkpt lat="41.626811114" lon="2.566046704">
        <ele>137.61</ele>
        <time>2013-05-05T08:00:00Z</time>
      </trkpt>
      <trkpt lat="41.626697707" lon="2.566206798">
        <ele>140.01</ele>
        <time>2013-05-05T08:00:08Z</time>
      </trkpt>
      <trkpt lat="41.626601399" lon="2.566360438">
        <ele>141.45</ele>
        <time>2013-05-05T08:00:16Z</time>
      </trkpt>
      <trkpt lat="41.626495703" lon="2.566524807">
        <ele>144.34</ele>
        <time>2013-05-05T08:00:25Z</time>
      </trkpt>
      <trkpt lat="41.626471479" lon="2.566687249">
        <ele>146.26</ele>
        <time>2013-05-05T08:00:33Z</time>
      </trkpt>
      <trkpt lat="41.626527890" lon="2.566869304">
        <ele>146.74</ele>
        <time>2013-05-05T08:00:41Z</time>
      </trkpt>
      <trkpt lat="41.626668286" lon="2.566915739">
        <ele>146.74</ele>
        <time>2013-05-05T08:00:47Z</time>
      </trkpt>
      <trkpt lat="41.626725786" lon="2.566915404">
        <ele>146.74</ele>
        <time>2013-05-05T08:00:49Z</time>
      </trkpt>
      <trkpt lat="41.626999455" lon="2.566933844">
        <ele>144.82</ele>
        <time>2013-05-05T08:00:57Z</time>
      </trkpt>
      <trkpt lat="41.627245213" lon="2.566969887">
        <ele>143.37</ele>
        <time>2013-05-05T08:01:02Z</time>
      </trkpt>
      <trkpt lat="41.627443529" lon="2.566993440">
        <ele>142.89</ele>
        <time>2013-05-05T08:01:07Z</time>
      </trkpt>
      <trkpt lat="41.627607982" lon="2.567003330">
        <ele>144.34</ele>
        <time>2013-05-05T08:01:14Z</time>
      </trkpt>
      <trkpt lat="41.627767322" lon="2.567026716">
        <ele>146.26</ele>
        <time>2013-05-05T08:01:21Z</time>
      </trkpt>
      <trkpt lat="41.627926745" lon="2.567058316">
        <ele>148.18</ele>
        <time>2013-05-05T08:01:28Z</time>
      </trkpt>
      <trkpt lat="41.627943928" lon="2.567067452">
        <ele>148.18</ele>
        <time>2013-05-05T08:01:29Z</time>
      </trkpt>
      <trkpt lat="41.628185579" lon="2.567159653">
        <ele>151.06</ele>
        <time>2013-05-05T08:01:40Z</time>
      </trkpt>
      <trkpt lat="41.628369561" lon="2.567248836">
        <ele>152.51</ele>
        <time>2013-05-05T08:01:49Z</time>
      </trkpt>
      <trkpt lat="41.628555388" lon="2.567369033">
        <ele>152.99</ele>
        <time>2013-05-05T08:01:57Z</time>
      </trkpt>
      <trkpt lat="41.628757727" lon="2.567483949">
        <ele>152.99</ele>
        <time>2013-05-05T08:02:04Z</time>
      </trkpt>
      <trkpt lat="41.628928802" lon="2.567410858">
        <ele>152.03</ele>
        <time>2013-05-05T08:02:09Z</time>
      </trkpt>
      <trkpt lat="41.629000635" lon="2.567350341">
        <ele>151.54</ele>
        <time>2013-05-05T08:02:11Z</time>
      </trkpt>
      <trkpt lat="41.629078251" lon="2.567291249">
        <ele>151.06</ele>
        <time>2013-05-05T08:02:13Z</time>
      </trkpt>
      <trkpt lat="41.629414282" lon="2.567172812">
        <ele>149.14</ele>
        <time>2013-05-05T08:02:20Z</time>
      </trkpt>
      <trkpt lat="41.629576304" lon="2.567127550">
        <ele>148.66</ele>
        <time>2013-05-05T08:02:23Z</time>
      </trkpt>
      <trkpt lat="41.629749558" lon="2.567110870">
        <ele>148.18</ele>
        <time>2013-05-05T08:02:26Z</time>
      </trkpt>
      <trkpt lat="41.630108303" lon="2.566927809">
        <ele>145.78</ele>
        <time>2013-05-05T08:02:31Z</time>
      </trkpt>
      <trkpt lat="41.630288263" lon="2.566569148">
        <ele>144.34</ele>
        <time>2013-05-05T08:02:35Z</time>
      </trkpt>
      <trkpt lat="41.630306200" lon="2.566476947">
        <ele>144.34</ele>
        <time>2013-05-05T08:02:36Z</time>
      </trkpt>
      <trkpt lat="41.630369232" lon="2.566071849">
        <ele>144.34</ele>
        <time>2013-05-05T08:02:41Z</time>
      </trkpt>
      <trkpt lat="41.630469396" lon="2.565699022">
        <ele>144.34</ele>
        <time>2013-05-05T08:02:48Z</time>
      </trkpt>
      <trkpt lat="41.630599986" lon="2.565444380">
        <ele>145.78</ele>
        <time>2013-05-05T08:02:56Z</time>
      </trkpt>
      <trkpt lat="41.630747507" lon="2.565229720">
        <ele>147.22</ele>
        <time>2013-05-05T08:03:04Z</time>
      </trkpt>
      <trkpt lat="41.630887066" lon="2.565098208">
        <ele>148.18</ele>
        <time>2013-05-05T08:03:11Z</time>
      </trkpt>
      <trkpt lat="41.631126453" lon="2.564940795">
        <ele>148.66</ele>
        <time>2013-05-05T08:03:20Z</time>
      </trkpt>
      <trkpt lat="41.631296354" lon="2.564809283">
        <ele>149.62</ele>
        <time>2013-05-05T08:03:27Z</time>
      </trkpt>
      <trkpt lat="41.631474721" lon="2.564681543">
        <ele>151.06</ele>
        <time>2013-05-05T08:03:35Z</time>
      </trkpt>
      <trkpt lat="41.631675887" lon="2.564538632">
        <ele>152.03</ele>
        <time>2013-05-05T08:03:43Z</time>
      </trkpt>
      <trkpt lat="41.631886692" lon="2.564396810">
        <ele>153.47</ele>
        <time>2013-05-05T08:03:51Z</time>
      </trkpt>
      <trkpt lat="41.632050558" lon="2.564298658">
        <ele>155.39</ele>
        <time>2013-05-05T08:03:59Z</time>
      </trkpt>
      <trkpt lat="41.632216520" lon="2.564164128">
        <ele>156.35</ele>
        <time>2013-05-05T08:04:06Z</time>
      </trkpt>
      <trkpt lat="41.632480047" lon="2.563964723">
        <ele>156.83</ele>
        <time>2013-05-05T08:04:15Z</time>
      </trkpt>
      <trkpt lat="41.632699569" lon="2.563706979">
        <ele>157.31</ele>
        <time>2013-05-05T08:04:23Z</time>
      </trkpt>
      <trkpt lat="41.632942225" lon="2.563442027">
        <ele>157.31</ele>
        <time>2013-05-05T08:04:32Z</time>
      </trkpt>
      <trkpt lat="41.633005676" lon="2.563365417">
        <ele>157.31</ele>
        <time>2013-05-05T08:04:34Z</time>
      </trkpt>
      <trkpt lat="41.633104918" lon="2.563187637">
        <ele>157.31</ele>
        <time>2013-05-05T08:04:38Z</time>
      </trkpt>
      <trkpt lat="41.633233161" lon="2.562754963">
        <ele>156.35</ele>
        <time>2013-05-05T08:04:47Z</time>
      </trkpt>
      <trkpt lat="41.633309604" lon="2.562302256">
        <ele>156.35</ele>
        <time>2013-05-05T08:04:56Z</time>
      </trkpt>
      <trkpt lat="41.633375234" lon="2.561848208">
        <ele>156.35</ele>
        <time>2013-05-05T08:05:06Z</time>
      </trkpt>
      <trkpt lat="41.633486043" lon="2.561535731">
        <ele>158.27</ele>
        <time>2013-05-05T08:05:14Z</time>
      </trkpt>
      <trkpt lat="41.633639767" lon="2.561402543">
        <ele>158.75</ele>
        <time>2013-05-05T08:05:20Z</time>
      </trkpt>
      <trkpt lat="41.633854930" lon="2.561483679">
        <ele>158.75</ele>
        <time>2013-05-05T08:05:26Z</time>
      </trkpt>
      <trkpt lat="41.634109321" lon="2.561602535">
        <ele>158.75</ele>
        <time>2013-05-05T08:05:33Z</time>
      </trkpt>
      <trkpt lat="41.634381984" lon="2.561711500">
        <ele>158.75</ele>
        <time>2013-05-05T08:05:41Z</time>
      </trkpt>
      <trkpt lat="41.634610643" lon="2.561751230">
        <ele>159.24</ele>
        <time>2013-05-05T08:05:48Z</time>
      </trkpt>
      <trkpt lat="41.634836619" lon="2.561786099">
        <ele>160.68</ele>
        <time>2013-05-05T08:05:55Z</time>
      </trkpt>
      <trkpt lat="41.635084053" lon="2.561779561">
        <ele>162.60</ele>
        <time>2013-05-05T08:06:03Z</time>
      </trkpt>
      <trkpt lat="41.635281865" lon="2.561787104">
        <ele>164.52</ele>
        <time>2013-05-05T08:06:10Z</time>
      </trkpt>
      <trkpt lat="41.635455706" lon="2.561815770">
        <ele>165.00</ele>
        <time>2013-05-05T08:06:16Z</time>
      </trkpt>
      <trkpt lat="41.635672630" lon="2.561762964">
        <ele>165.48</ele>
        <time>2013-05-05T08:06:23Z</time>
      </trkpt>
      <trkpt lat="41.635858289" lon="2.561691802">
        <ele>165.48</ele>
        <time>2013-05-05T08:06:28Z</time>
      </trkpt>
      <trkpt lat="41.636119218" lon="2.561605720">
        <ele>166.45</ele>
        <time>2013-05-05T08:06:37Z</time>
      </trkpt>
      <trkpt lat="41.636332118" lon="2.561608402">
        <ele>167.89</ele>
        <time>2013-05-05T08:06:45Z</time>
      </trkpt>
      <trkpt lat="41.636461954" lon="2.561643187">
        <ele>169.33</ele>
        <time>2013-05-05T08:06:51Z</time>
      </trkpt>
      <trkpt lat="41.636612325" lon="2.561686186">
        <ele>170.77</ele>
        <time>2013-05-05T08:06:58Z</time>
      </trkpt>
      <trkpt lat="41.636807372" lon="2.561693981">
        <ele>171.73</ele>
        <time>2013-05-05T08:07:06Z</time>
      </trkpt>
      <trkpt lat="41.636953468" lon="2.561716193">
        <ele>172.69</ele>
        <time>2013-05-05T08:07:12Z</time>
      </trkpt>
      <trkpt lat="41.637150443" lon="2.561786099">
        <ele>174.14</ele>
        <time>2013-05-05T08:07:20Z</time>
      </trkpt>
      <trkpt lat="41.637291762" lon="2.562001346">
        <ele>174.62</ele>
        <time>2013-05-05T08:07:28Z</time>
      </trkpt>
      <trkpt lat="41.637445570" lon="2.562149957">
        <ele>175.58</ele>
        <time>2013-05-05T08:07:35Z</time>
      </trkpt>
      <trkpt lat="41.637610777" lon="2.562230926">
        <ele>176.54</ele>
        <time>2013-05-05T08:07:42Z</time>
      </trkpt>
      <trkpt lat="41.637765256" lon="2.562272417">
        <ele>177.50</ele>
        <time>2013-05-05T08:07:49Z</time>
      </trkpt>
      <trkpt lat="41.637926691" lon="2.562308207">
        <ele>178.46</ele>
        <time>2013-05-05T08:07:56Z</time>
      </trkpt>
      <trkpt lat="41.638127354" lon="2.562358750">
        <ele>179.90</ele>
        <time>2013-05-05T08:08:05Z</time>
      </trkpt>
      <trkpt lat="41.638334974" lon="2.562350201">
        <ele>180.87</ele>
        <time>2013-05-05T08:08:13Z</time>
      </trkpt>
      <trkpt lat="41.638503282" lon="2.562378951">
        <ele>181.83</ele>
        <time>2013-05-05T08:08:20Z</time>
      </trkpt>
      <trkpt lat="41.638635130" lon="2.562441647">
        <ele>182.79</ele>
        <time>2013-05-05T08:08:26Z</time>
      </trkpt>
      <trkpt lat="41.638870577" lon="2.562594868">
        <ele>184.23</ele>
        <time>2013-05-05T08:08:35Z</time>
      </trkpt>
      <trkpt lat="41.639041149" lon="2.562720765">
        <ele>185.67</ele>
        <time>2013-05-05T08:08:43Z</time>
      </trkpt>
      <trkpt lat="41.639199064" lon="2.562855126">
        <ele>187.11</ele>
        <time>2013-05-05T08:08:51Z</time>
      </trkpt>
      <trkpt lat="41.639356811" lon="2.562962163">
        <ele>188.08</ele>
        <time>2013-05-05T08:08:58Z</time>
      </trkpt>
      <trkpt lat="41.639530485" lon="2.563008431">
        <ele>189.04</ele>
        <time>2013-05-05T08:09:06Z</time>
      </trkpt>
      <trkpt lat="41.639670462" lon="2.563072553">
        <ele>190.48</ele>
        <time>2013-05-05T08:09:13Z</time>
      </trkpt>
      <trkpt lat="41.639813709" lon="2.563122844">
        <ele>190.48</ele>
        <time>2013-05-05T08:09:19Z</time>
      </trkpt>
      <trkpt lat="41.640047145" lon="2.563167436">
        <ele>191.92</ele>
        <time>2013-05-05T08:09:28Z</time>
      </trkpt>
      <trkpt lat="41.640201288" lon="2.563228373">
        <ele>192.88</ele>
        <time>2013-05-05T08:09:35Z</time>
      </trkpt>
      <trkpt lat="41.640326933" lon="2.563357789">
        <ele>193.36</ele>
        <time>2013-05-05T08:09:41Z</time>
      </trkpt>
      <trkpt lat="41.640455008" lon="2.563533642">
        <ele>194.80</ele>
        <time>2013-05-05T08:09:49Z</time>
      </trkpt>
      <trkpt lat="41.640552909" lon="2.563693233">
        <ele>196.25</ele>
        <time>2013-05-05T08:09:57Z</time>
      </trkpt>
      <trkpt lat="41.640578725" lon="2.563727096">
        <ele>196.25</ele>
        <time>2013-05-05T08:09:59Z</time>
      </trkpt>
      <trkpt lat="41.640686433" lon="2.563892555">
        <ele>197.69</ele>
        <time>2013-05-05T08:10:07Z</time>
      </trkpt>
      <trkpt lat="41.640793721" lon="2.564054493">
        <ele>198.65</ele>
        <time>2013-05-05T08:10:14Z</time>
      </trkpt>
      <trkpt lat="41.640858010" lon="2.564232022">
        <ele>201.05</ele>
        <time>2013-05-05T08:10:22Z</time>
      </trkpt>
      <trkpt lat="41.640881815" lon="2.564425560">
        <ele>202.98</ele>
        <time>2013-05-05T08:10:30Z</time>
      </trkpt>
      <trkpt lat="41.640910481" lon="2.564623121">
        <ele>203.46</ele>
        <time>2013-05-05T08:10:37Z</time>
      </trkpt>
      <trkpt lat="41.640973597" lon="2.564842392">
        <ele>203.46</ele>
        <time>2013-05-05T08:10:45Z</time>
      </trkpt>
      <trkpt lat="41.641070408" lon="2.565037606">
        <ele>204.42</ele>
        <time>2013-05-05T08:10:53Z</time>
      </trkpt>
      <trkpt lat="41.641122208" lon="2.565232318">
        <ele>206.34</ele>
        <time>2013-05-05T08:11:01Z</time>
      </trkpt>
      <trkpt lat="41.641237208" lon="2.565417893">
        <ele>206.82</ele>
        <time>2013-05-05T08:11:10Z</time>
      </trkpt>
      <trkpt lat="41.641362936" lon="2.565561224">
        <ele>206.82</ele>
        <time>2013-05-05T08:11:18Z</time>
      </trkpt>
      <trkpt lat="41.641523366" lon="2.565696005">
        <ele>208.26</ele>
        <time>2013-05-05T08:11:27Z</time>
      </trkpt>
      <trkpt lat="41.641659572" lon="2.565841682">
        <ele>210.67</ele>
        <time>2013-05-05T08:11:36Z</time>
      </trkpt>
      <trkpt lat="41.641698967" lon="2.566010242">
        <ele>212.11</ele>
        <time>2013-05-05T08:11:43Z</time>
      </trkpt>
      <trkpt lat="41.641736937" lon="2.566233117">
        <ele>213.07</ele>
        <time>2013-05-05T08:11:51Z</time>
      </trkpt>
      <trkpt lat="41.641814972" lon="2.566432104">
        <ele>214.03</ele>
        <time>2013-05-05T08:11:59Z</time>
      </trkpt>
      <trkpt lat="41.641891583" lon="2.566619774">
        <ele>216.91</ele>
        <time>2013-05-05T08:12:08Z</time>
      </trkpt>
      <trkpt lat="41.641926452" lon="2.566846840">
        <ele>218.36</ele>
        <time>2013-05-05T08:12:17Z</time>
      </trkpt>
      <trkpt lat="41.641960817" lon="2.567071559">
        <ele>219.32</ele>
        <time>2013-05-05T08:12:25Z</time>
      </trkpt>
      <trkpt lat="41.642058886" lon="2.567254536">
        <ele>221.24</ele>
        <time>2013-05-05T08:12:33Z</time>
      </trkpt>
      <trkpt lat="41.642160726" lon="2.567399291">
        <ele>222.68</ele>
        <time>2013-05-05T08:12:41Z</time>
      </trkpt>
      <trkpt lat="41.642254100" lon="2.567552094">
        <ele>223.64</ele>
        <time>2013-05-05T08:12:49Z</time>
      </trkpt>
      <trkpt lat="41.642326436" lon="2.567707578">
        <ele>225.57</ele>
        <time>2013-05-05T08:12:56Z</time>
      </trkpt>
      <trkpt lat="41.642345966" lon="2.567898266">
        <ele>226.05</ele>
        <time>2013-05-05T08:13:04Z</time>
      </trkpt>
      <trkpt lat="41.642424672" lon="2.568076465">
        <ele>226.53</ele>
        <time>2013-05-05T08:13:13Z</time>
      </trkpt>
      <trkpt lat="41.642546377" lon="2.568248965">
        <ele>227.01</ele>
        <time>2013-05-05T08:13:21Z</time>
      </trkpt>
      <trkpt lat="41.642628268" lon="2.568364049">
        <ele>227.97</ele>
        <time>2013-05-05T08:13:27Z</time>
      </trkpt>
      <trkpt lat="41.642640338" lon="2.568380477">
        <ele>228.45</ele>
        <time>2013-05-05T08:13:28Z</time>
      </trkpt>
      <trkpt lat="41.642667160" lon="2.568400342">
        <ele>228.45</ele>
        <time>2013-05-05T08:13:30Z</time>
      </trkpt>
      <trkpt lat="41.642791045" lon="2.568510313">
        <ele>230.37</ele>
        <time>2013-05-05T08:13:39Z</time>
      </trkpt>
      <trkpt lat="41.642855669" lon="2.568662612">
        <ele>232.78</ele>
        <time>2013-05-05T08:13:47Z</time>
      </trkpt>
      <trkpt lat="41.642929011" lon="2.568898395">
        <ele>234.70</ele>
        <time>2013-05-05T08:13:57Z</time>
      </trkpt>
      <trkpt lat="41.643035964" lon="2.569035020">
        <ele>235.66</ele>
        <time>2013-05-05T08:14:04Z</time>
      </trkpt>
      <trkpt lat="41.643142833" lon="2.569159072">
        <ele>238.06</ele>
        <time>2013-05-05T08:14:12Z</time>
      </trkpt>
      <trkpt lat="41.643213577" lon="2.569306845">
        <ele>239.51</ele>
        <time>2013-05-05T08:14:19Z</time>
      </trkpt>
      <trkpt lat="41.643214163" lon="2.569447326">
        <ele>240.47</ele>
        <time>2013-05-05T08:14:25Z</time>
      </trkpt>
      <trkpt lat="41.643215002" lon="2.569635583">
        <ele>242.87</ele>
        <time>2013-05-05T08:14:33Z</time>
      </trkpt>
      <trkpt lat="41.643268562" lon="2.569875892">
        <ele>244.31</ele>
        <time>2013-05-05T08:14:42Z</time>
      </trkpt>
      <trkpt lat="41.643363277" lon="2.570058618">
        <ele>245.75</ele>
        <time>2013-05-05T08:14:51Z</time>
      </trkpt>
      <trkpt lat="41.643523288" lon="2.570196919">
        <ele>248.16</ele>
        <time>2013-05-05T08:15:02Z</time>
      </trkpt>
      <trkpt lat="41.643536196" lon="2.570214018">
        <ele>248.16</ele>
        <time>2013-05-05T08:15:03Z</time>
      </trkpt>
      <trkpt lat="41.643541477" lon="2.570290377">
        <ele>249.12</ele>
        <time>2013-05-05T08:15:07Z</time>
      </trkpt>
      <trkpt lat="41.643449527" lon="2.570298759">
        <ele>250.56</ele>
        <time>2013-05-05T08:15:13Z</time>
      </trkpt>
      <trkpt lat="41.643414994" lon="2.570271518">
        <ele>251.04</ele>
        <time>2013-05-05T08:15:15Z</time>
      </trkpt>
      <trkpt lat="41.643284068" lon="2.570141431">
        <ele>251.52</ele>
        <time>2013-05-05T08:15:23Z</time>
      </trkpt>
      <trkpt lat="41.643152137" lon="2.569999609">
        <ele>252.48</ele>
        <time>2013-05-05T08:15:31Z</time>
      </trkpt>
      <trkpt lat="41.642999838" lon="2.569798108">
        <ele>253.44</ele>
        <time>2013-05-05T08:15:41Z</time>
      </trkpt>
      <trkpt lat="41.642856508" lon="2.569746727">
        <ele>253.93</ele>
        <time>2013-05-05T08:15:49Z</time>
      </trkpt>
      <trkpt lat="41.642699934" lon="2.569738094">
        <ele>255.85</ele>
        <time>2013-05-05T08:15:59Z</time>
      </trkpt>
      <trkpt lat="41.642630783" lon="2.569757959">
        <ele>256.81</ele>
        <time>2013-05-05T08:16:04Z</time>
      </trkpt>
      <trkpt lat="41.642595495" lon="2.569820991">
        <ele>257.77</ele>
        <time>2013-05-05T08:16:08Z</time>
      </trkpt>
      <trkpt lat="41.642608822" lon="2.569908582">
        <ele>259.21</ele>
        <time>2013-05-05T08:16:13Z</time>
      </trkpt>
      <trkpt lat="41.642674788" lon="2.569982510">
        <ele>261.14</ele>
        <time>2013-05-05T08:16:20Z</time>
      </trkpt>
      <trkpt lat="41.642775287" lon="2.570097091">
        <ele>263.06</ele>
        <time>2013-05-05T08:16:29Z</time>
      </trkpt>
      <trkpt lat="41.642881150" lon="2.570263136">
        <ele>264.50</ele>
        <time>2013-05-05T08:16:39Z</time>
      </trkpt>
      <trkpt lat="41.642997575" lon="2.570409736">
        <ele>267.38</ele>
        <time>2013-05-05T08:16:49Z</time>
      </trkpt>
      <trkpt lat="41.643082232" lon="2.570553066">
        <ele>268.83</ele>
        <time>2013-05-05T08:16:57Z</time>
      </trkpt>
      <trkpt lat="41.643146857" lon="2.570696481">
        <ele>270.75</ele>
        <time>2013-05-05T08:17:05Z</time>
      </trkpt>
      <trkpt lat="41.643180720" lon="2.570883900">
        <ele>272.19</ele>
        <time>2013-05-05T08:17:15Z</time>
      </trkpt>
      <trkpt lat="41.643174433" lon="2.571043743">
        <ele>274.11</ele>
        <time>2013-05-05T08:17:23Z</time>
      </trkpt>
      <trkpt lat="41.643199830" lon="2.571213476">
        <ele>276.04</ele>
        <time>2013-05-05T08:17:31Z</time>
      </trkpt>
      <trkpt lat="41.643271496" lon="2.571349180">
        <ele>277.96</ele>
        <time>2013-05-05T08:17:40Z</time>
      </trkpt>
      <trkpt lat="41.643343328" lon="2.571468622">
        <ele>280.36</ele>
        <time>2013-05-05T08:17:48Z</time>
      </trkpt>
      <trkpt lat="41.643338299" lon="2.571623687">
        <ele>281.80</ele>
        <time>2013-05-05T08:17:57Z</time>
      </trkpt>
      <trkpt lat="41.643318183" lon="2.571703902">
        <ele>282.77</ele>
        <time>2013-05-05T08:18:02Z</time>
      </trkpt>
      <trkpt lat="41.643299240" lon="2.571873719">
        <ele>284.21</ele>
        <time>2013-05-05T08:18:12Z</time>
      </trkpt>
      <trkpt lat="41.643295552" lon="2.572085446">
        <ele>285.17</ele>
        <time>2013-05-05T08:18:21Z</time>
      </trkpt>
      <trkpt lat="41.643300078" lon="2.572272781">
        <ele>286.61</ele>
        <time>2013-05-05T08:18:29Z</time>
      </trkpt>
      <trkpt lat="41.643331091" lon="2.572487107">
        <ele>287.57</ele>
        <time>2013-05-05T08:18:39Z</time>
      </trkpt>
      <trkpt lat="41.643346514" lon="2.572552569">
        <ele>288.05</ele>
        <time>2013-05-05T08:18:42Z</time>
      </trkpt>
      <trkpt lat="41.643412731" lon="2.572582912">
        <ele>288.53</ele>
        <time>2013-05-05T08:18:47Z</time>
      </trkpt>
      <trkpt lat="41.643503339" lon="2.572526334">
        <ele>289.49</ele>
        <time>2013-05-05T08:18:55Z</time>
      </trkpt>
      <trkpt lat="41.643562934" lon="2.572457267">
        <ele>291.42</ele>
        <time>2013-05-05T08:19:03Z</time>
      </trkpt>
      <trkpt lat="41.643636947" lon="2.572459865">
        <ele>292.38</ele>
        <time>2013-05-05T08:19:09Z</time>
      </trkpt>
      <trkpt lat="41.643741301" lon="2.572562209">
        <ele>293.82</ele>
        <time>2013-05-05T08:19:18Z</time>
      </trkpt>
      <trkpt lat="41.643816990" lon="2.572697325">
        <ele>294.78</ele>
        <time>2013-05-05T08:19:26Z</time>
      </trkpt>
      <trkpt lat="41.643835011" lon="2.572838141">
        <ele>295.26</ele>
        <time>2013-05-05T08:19:33Z</time>
      </trkpt>
      <trkpt lat="41.643862587" lon="2.573034026">
        <ele>296.22</ele>
        <time>2013-05-05T08:19:41Z</time>
      </trkpt>
      <trkpt lat="41.643874993" lon="2.573078198">
        <ele>296.70</ele>
        <time>2013-05-05T08:19:43Z</time>
      </trkpt>
      <trkpt lat="41.643978928" lon="2.573159838">
        <ele>298.15</ele>
        <time>2013-05-05T08:19:52Z</time>
      </trkpt>
      <trkpt lat="41.644090240" lon="2.573218344">
        <ele>298.63</ele>
        <time>2013-05-05T08:20:00Z</time>
      </trkpt>
      <trkpt lat="41.644230301" lon="2.573228318">
        <ele>299.11</ele>
        <time>2013-05-05T08:20:08Z</time>
      </trkpt>
      <trkpt lat="41.644414368" lon="2.573261511">
        <ele>300.07</ele>
        <time>2013-05-05T08:20:18Z</time>
      </trkpt>
      <trkpt lat="41.644568260" lon="2.573365111">
        <ele>300.07</ele>
        <time>2013-05-05T08:20:25Z</time>
      </trkpt>
      <trkpt lat="41.644748974" lon="2.573508944">
        <ele>299.11</ele>
        <time>2013-05-05T08:20:32Z</time>
      </trkpt>
      <trkpt lat="41.644881743" lon="2.573633416">
        <ele>298.63</ele>
        <time>2013-05-05T08:20:38Z</time>
      </trkpt>
      <trkpt lat="41.644948547" lon="2.573823350">
        <ele>298.15</ele>
        <time>2013-05-05T08:20:45Z</time>
      </trkpt>
      <trkpt lat="41.644954749" lon="2.574022252">
        <ele>297.18</ele>
        <time>2013-05-05T08:20:51Z</time>
      </trkpt>
      <trkpt lat="41.644947122" lon="2.574170109">
        <ele>296.22</ele>
        <time>2013-05-05T08:20:57Z</time>
      </trkpt>
      <trkpt lat="41.644944775" lon="2.574185783">
        <ele>296.22</ele>
        <time>2013-05-05T08:21:09Z</time>
      </trkpt>
      <trkpt lat="41.644961874" lon="2.574209839">
        <ele>296.22</ele>
        <time>2013-05-05T08:21:27Z</time>
      </trkpt>
      <trkpt lat="41.644948966" lon="2.574214198">
        <ele>296.22</ele>
        <time>2013-05-05T08:21:39Z</time>
      </trkpt>
      <trkpt lat="41.644952822" lon="2.574198021">
        <ele>296.22</ele>
        <time>2013-05-05T08:21:52Z</time>
      </trkpt>
      <trkpt lat="41.644955923" lon="2.574128954">
        <ele>296.22</ele>
        <time>2013-05-05T08:22:00Z</time>
      </trkpt>
      <trkpt lat="41.644955504" lon="2.574073130">
        <ele>296.22</ele>
        <time>2013-05-05T08:22:08Z</time>
      </trkpt>
      <trkpt lat="41.644950055" lon="2.573967016">
        <ele>297.67</ele>
        <time>2013-05-05T08:22:16Z</time>
      </trkpt>
      <trkpt lat="41.644955168" lon="2.573814381">
        <ele>298.15</ele>
        <time>2013-05-05T08:22:26Z</time>
      </trkpt>
      <trkpt lat="41.644944272" lon="2.573718492">
        <ele>299.11</ele>
        <time>2013-05-05T08:22:36Z</time>
      </trkpt>
      <trkpt lat="41.644923401" lon="2.573661747">
        <ele>299.11</ele>
        <time>2013-05-05T08:22:44Z</time>
      </trkpt>
      <trkpt lat="41.644900770" lon="2.573567199">
        <ele>299.11</ele>
        <time>2013-05-05T08:22:53Z</time>
      </trkpt>
      <trkpt lat="41.644904206" lon="2.573559906">
        <ele>299.11</ele>
        <time>2013-05-05T08:23:00Z</time>
      </trkpt>
      <trkpt lat="41.644913427" lon="2.573559487">
        <ele>299.11</ele>
        <time>2013-05-05T08:23:23Z</time>
      </trkpt>
      <trkpt lat="41.644931029" lon="2.573582286">
        <ele>299.11</ele>
        <time>2013-05-05T08:23:47Z</time>
      </trkpt>
      <trkpt lat="41.644907978" lon="2.573560493">
        <ele>299.11</ele>
        <time>2013-05-05T08:24:19Z</time>
      </trkpt>
      <trkpt lat="41.644921892" lon="2.573561164">
        <ele>299.11</ele>
        <time>2013-05-05T08:24:38Z</time>
      </trkpt>
      <trkpt lat="41.644908481" lon="2.573563008">
        <ele>299.11</ele>
        <time>2013-05-05T08:24:59Z</time>
      </trkpt>
      <trkpt lat="41.644915857" lon="2.573567702">
        <ele>299.11</ele>
        <time>2013-05-05T08:25:20Z</time>
      </trkpt>
      <trkpt lat="41.644908984" lon="2.573572815">
        <ele>299.11</ele>
        <time>2013-05-05T08:25:40Z</time>
      </trkpt>
      <trkpt lat="41.644908733" lon="2.573580191">
        <ele>299.11</ele>
        <time>2013-05-05T08:25:54Z</time>
      </trkpt>
      <trkpt lat="41.644906470" lon="2.573569043">
        <ele>299.11</ele>
        <time>2013-05-05T08:26:09Z</time>
      </trkpt>
      <trkpt lat="41.644916863" lon="2.573550435">
        <ele>299.11</ele>
        <time>2013-05-05T08:26:28Z</time>
      </trkpt>
      <trkpt lat="41.644901189" lon="2.573544484">
        <ele>299.11</ele>
        <time>2013-05-05T08:26:44Z</time>
      </trkpt>
      <trkpt lat="41.644884593" lon="2.573543562">
        <ele>299.11</ele>
        <time>2013-05-05T08:26:58Z</time>
      </trkpt>
      <trkpt lat="41.644887526" lon="2.573537275">
        <ele>299.11</ele>
        <time>2013-05-05T08:27:19Z</time>
      </trkpt>
      <trkpt lat="41.644894986" lon="2.573543394">
        <ele>299.11</ele>
        <time>2013-05-05T08:27:47Z</time>
      </trkpt>
      <trkpt lat="41.644914600" lon="2.573527971">
        <ele>299.11</ele>
        <time>2013-05-05T08:28:04Z</time>
      </trkpt>
      <trkpt lat="41.644926586" lon="2.573527888">
        <ele>299.11</ele>
        <time>2013-05-05T08:28:21Z</time>
      </trkpt>
      <trkpt lat="41.644917869" lon="2.573521014">
        <ele>299.11</ele>
        <time>2013-05-05T08:28:35Z</time>
      </trkpt>
      <trkpt lat="41.644925664" lon="2.573538114">
        <ele>298.63</ele>
        <time>2013-05-05T08:28:53Z</time>
      </trkpt>
      <trkpt lat="41.644907811" lon="2.573545909">
        <ele>298.63</ele>
        <time>2013-05-05T08:29:08Z</time>
      </trkpt>
      <trkpt lat="41.644887610" lon="2.573529732">
        <ele>298.63</ele>
        <time>2013-05-05T08:29:23Z</time>
      </trkpt>
      <trkpt lat="41.644880821" lon="2.573540963">
        <ele>298.63</ele>
        <time>2013-05-05T08:29:36Z</time>
      </trkpt>
      <trkpt lat="41.644878306" lon="2.573541215">
        <ele>298.63</ele>
        <time>2013-05-05T08:29:51Z</time>
      </trkpt>
      <trkpt lat="41.644888113" lon="2.573542304">
        <ele>299.11</ele>
        <time>2013-05-05T08:30:08Z</time>
      </trkpt>
      <trkpt lat="41.644896160" lon="2.573540460">
        <ele>299.11</ele>
        <time>2013-05-05T08:30:26Z</time>
      </trkpt>
      <trkpt lat="41.644890460" lon="2.573560745">
        <ele>299.11</ele>
        <time>2013-05-05T08:30:43Z</time>
      </trkpt>
      <trkpt lat="41.644877049" lon="2.573562924">
        <ele>299.11</ele>
        <time>2013-05-05T08:30:55Z</time>
      </trkpt>
      <trkpt lat="41.644863806" lon="2.573570887">
        <ele>299.11</ele>
        <time>2013-05-05T08:31:11Z</time>
      </trkpt>
      <trkpt lat="41.644857855" lon="2.573589495">
        <ele>299.11</ele>
        <time>2013-05-05T08:31:27Z</time>
      </trkpt>
      <trkpt lat="41.644889035" lon="2.573585304">
        <ele>299.11</ele>
        <time>2013-05-05T08:31:45Z</time>
      </trkpt>
      <trkpt lat="41.644900435" lon="2.573609108">
        <ele>299.11</ele>
        <time>2013-05-05T08:31:56Z</time>
      </trkpt>
      <trkpt lat="41.644930526" lon="2.573637271">
        <ele>299.11</ele>
        <time>2013-05-05T08:32:05Z</time>
      </trkpt>
      <trkpt lat="41.644948631" lon="2.573668368">
        <ele>299.11</ele>
        <time>2013-05-05T08:32:15Z</time>
      </trkpt>
      <trkpt lat="41.644953995" lon="2.573686473">
        <ele>299.11</ele>
        <time>2013-05-05T08:32:31Z</time>
      </trkpt>
      <trkpt lat="41.644950810" lon="2.573693263">
        <ele>299.11</ele>
        <time>2013-05-05T08:32:35Z</time>
      </trkpt>
      <trkpt lat="41.644970004" lon="2.573876407">
        <ele>299.11</ele>
        <time>2013-05-05T08:32:41Z</time>
      </trkpt>
      <trkpt lat="41.644952486" lon="2.574130127">
        <ele>297.18</ele>
        <time>2013-05-05T08:32:47Z</time>
      </trkpt>
      <trkpt lat="41.644924826" lon="2.574331461">
        <ele>296.22</ele>
        <time>2013-05-05T08:32:54Z</time>
      </trkpt>
      <trkpt lat="41.644893561" lon="2.574602112">
        <ele>295.26</ele>
        <time>2013-05-05T08:33:02Z</time>
      </trkpt>
      <trkpt lat="41.644869589" lon="2.574870836">
        <ele>294.78</ele>
        <time>2013-05-05T08:33:09Z</time>
      </trkpt>
      <trkpt lat="41.644927843" lon="2.575067140">
        <ele>293.82</ele>
        <time>2013-05-05T08:33:13Z</time>
      </trkpt>
      <trkpt lat="41.645125740" lon="2.575059345">
        <ele>292.86</ele>
        <time>2013-05-05T08:33:18Z</time>
      </trkpt>
      <trkpt lat="41.645167147" lon="2.575025315">
        <ele>292.86</ele>
        <time>2013-05-05T08:33:19Z</time>
      </trkpt>
      <trkpt lat="41.645247948" lon="2.574954907">
        <ele>291.90</ele>
        <time>2013-05-05T08:33:21Z</time>
      </trkpt>
      <trkpt lat="41.645425226" lon="2.574883996">
        <ele>290.94</ele>
        <time>2013-05-05T08:33:25Z</time>
      </trkpt>
      <trkpt lat="41.645569813" lon="2.574873435">
        <ele>289.49</ele>
        <time>2013-05-05T08:33:28Z</time>
      </trkpt>
      <trkpt lat="41.645786402" lon="2.574840577">
        <ele>288.05</ele>
        <time>2013-05-05T08:33:32Z</time>
      </trkpt>
      <trkpt lat="41.645874328" lon="2.574834962">
        <ele>287.09</ele>
        <time>2013-05-05T08:33:34Z</time>
      </trkpt>
      <trkpt lat="41.646059736" lon="2.574913332">
        <ele>286.13</ele>
        <time>2013-05-05T08:33:39Z</time>
      </trkpt>
      <trkpt lat="41.646073063" lon="2.574964630">
        <ele>286.13</ele>
        <time>2013-05-05T08:33:40Z</time>
      </trkpt>
      <trkpt lat="41.646079768" lon="2.575151630">
        <ele>285.65</ele>
        <time>2013-05-05T08:33:43Z</time>
      </trkpt>
      <trkpt lat="41.646065100" lon="2.575270401">
        <ele>284.69</ele>
        <time>2013-05-05T08:33:45Z</time>
      </trkpt>
      <trkpt lat="41.645992261" lon="2.575703746">
        <ele>282.77</ele>
        <time>2013-05-05T08:33:53Z</time>
      </trkpt>
      <trkpt lat="41.646000643" lon="2.575822937">
        <ele>282.77</ele>
        <time>2013-05-05T08:33:57Z</time>
      </trkpt>
      <trkpt lat="41.646018245" lon="2.575835761">
        <ele>282.28</ele>
        <time>2013-05-05T08:34:13Z</time>
      </trkpt>
      <trkpt lat="41.646085803" lon="2.575916395">
        <ele>281.80</ele>
        <time>2013-05-05T08:34:19Z</time>
      </trkpt>
      <trkpt lat="41.646225027" lon="2.575910695">
        <ele>279.88</ele>
        <time>2013-05-05T08:34:24Z</time>
      </trkpt>
      <trkpt lat="41.646328711" lon="2.575904325">
        <ele>279.40</ele>
        <time>2013-05-05T08:34:27Z</time>
      </trkpt>
      <trkpt lat="41.646441615" lon="2.575945815">
        <ele>277.96</ele>
        <time>2013-05-05T08:34:30Z</time>
      </trkpt>
      <trkpt lat="41.646474807" lon="2.576110184">
        <ele>276.52</ele>
        <time>2013-05-05T08:34:33Z</time>
      </trkpt>
      <trkpt lat="41.646462570" lon="2.576175815">
        <ele>275.56</ele>
        <time>2013-05-05T08:34:34Z</time>
      </trkpt>
      <trkpt lat="41.646365927" lon="2.576537829">
        <ele>271.71</ele>
        <time>2013-05-05T08:34:39Z</time>
      </trkpt>
      <trkpt lat="41.646208431" lon="2.576852821">
        <ele>267.86</ele>
        <time>2013-05-05T08:34:44Z</time>
      </trkpt>
      <trkpt lat="41.646174484" lon="2.576914847">
        <ele>266.90</ele>
        <time>2013-05-05T08:34:45Z</time>
      </trkpt>
      <trkpt lat="41.646119163" lon="2.577033786">
        <ele>266.42</ele>
        <time>2013-05-05T08:34:47Z</time>
      </trkpt>
      <trkpt lat="41.646089324" lon="2.577209639">
        <ele>264.98</ele>
        <time>2013-05-05T08:34:50Z</time>
      </trkpt>
      <trkpt lat="41.646063927" lon="2.577880694">
        <ele>264.02</ele>
        <time>2013-05-05T08:35:00Z</time>
      </trkpt>
      <trkpt lat="41.646043391" lon="2.578277828">
        <ele>264.02</ele>
        <time>2013-05-05T08:35:07Z</time>
      </trkpt>
      <trkpt lat="41.646017491" lon="2.578433564">
        <ele>264.98</ele>
        <time>2013-05-05T08:35:11Z</time>
      </trkpt>
      <trkpt lat="41.646053365" lon="2.578626180">
        <ele>266.42</ele>
        <time>2013-05-05T08:35:17Z</time>
      </trkpt>
      <trkpt lat="41.646192421" lon="2.578669263">
        <ele>267.38</ele>
        <time>2013-05-05T08:35:23Z</time>
      </trkpt>
      <trkpt lat="41.646384534" lon="2.578605309">
        <ele>268.83</ele>
        <time>2013-05-05T08:35:30Z</time>
      </trkpt>
      <trkpt lat="41.646608499" lon="2.578583852">
        <ele>269.31</ele>
        <time>2013-05-05T08:35:38Z</time>
      </trkpt>
      <trkpt lat="41.646808491" lon="2.578582930">
        <ele>269.31</ele>
        <time>2013-05-05T08:35:45Z</time>
      </trkpt>
      <trkpt lat="41.646967328" lon="2.578565160">
        <ele>269.31</ele>
        <time>2013-05-05T08:35:51Z</time>
      </trkpt>
      <trkpt lat="41.647215265" lon="2.578571698">
        <ele>270.27</ele>
        <time>2013-05-05T08:35:59Z</time>
      </trkpt>
      <trkpt lat="41.647393716" lon="2.578628276">
        <ele>270.75</ele>
        <time>2013-05-05T08:36:05Z</time>
      </trkpt>
      <trkpt lat="41.647546182" lon="2.578761129">
        <ele>270.75</ele>
        <time>2013-05-05T08:36:11Z</time>
      </trkpt>
      <trkpt lat="41.647703511" lon="2.578766577">
        <ele>270.75</ele>
        <time>2013-05-05T08:36:16Z</time>
      </trkpt>
      <trkpt lat="41.647997967" lon="2.578768673">
        <ele>269.31</ele>
        <time>2013-05-05T08:36:23Z</time>
      </trkpt>
      <trkpt lat="41.648092431" lon="2.578773534">
        <ele>269.31</ele>
        <time>2013-05-05T08:36:26Z</time>
      </trkpt>
      <trkpt lat="41.648185386" lon="2.578967743">
        <ele>270.75</ele>
        <time>2013-05-05T08:36:33Z</time>
      </trkpt>
      <trkpt lat="41.648147668" lon="2.579179805">
        <ele>273.15</ele>
        <time>2013-05-05T08:36:41Z</time>
      </trkpt>
      <trkpt lat="41.648018586" lon="2.579316011">
        <ele>275.56</ele>
        <time>2013-05-05T08:36:49Z</time>
      </trkpt>
      <trkpt lat="41.647837034" lon="2.579445176">
        <ele>277.48</ele>
        <time>2013-05-05T08:36:58Z</time>
      </trkpt>
      <trkpt lat="41.647698565" lon="2.579639468">
        <ele>278.92</ele>
        <time>2013-05-05T08:37:07Z</time>
      </trkpt>
      <trkpt lat="41.647582057" lon="2.579805179">
        <ele>279.88</ele>
        <time>2013-05-05T08:37:15Z</time>
      </trkpt>
      <trkpt lat="41.647560348" lon="2.580014140">
        <ele>279.88</ele>
        <time>2013-05-05T08:37:21Z</time>
      </trkpt>
      <trkpt lat="41.647690603" lon="2.580270039">
        <ele>280.36</ele>
        <time>2013-05-05T08:37:30Z</time>
      </trkpt>
      <trkpt lat="41.647817421" lon="2.580377579">
        <ele>281.80</ele>
        <time>2013-05-05T08:37:37Z</time>
      </trkpt>
      <trkpt lat="41.648000230" lon="2.580488388">
        <ele>282.28</ele>
        <time>2013-05-05T08:37:46Z</time>
      </trkpt>
      <trkpt lat="41.648163845" lon="2.580672203">
        <ele>282.28</ele>
        <time>2013-05-05T08:37:53Z</time>
      </trkpt>
      <trkpt lat="41.648237606" lon="2.580773540">
        <ele>280.84</ele>
        <time>2013-05-05T08:37:56Z</time>
      </trkpt>
      <trkpt lat="41.648371381" lon="2.580889043">
        <ele>280.84</ele>
        <time>2013-05-05T08:38:02Z</time>
      </trkpt>
      <trkpt lat="41.648488727" lon="2.581058106">
        <ele>280.36</ele>
        <time>2013-05-05T08:38:08Z</time>
      </trkpt>
      <trkpt lat="41.648388145" lon="2.581153156">
        <ele>279.40</ele>
        <time>2013-05-05T08:38:13Z</time>
      </trkpt>
      <trkpt lat="41.648271468" lon="2.581142260">
        <ele>278.92</ele>
        <time>2013-05-05T08:38:16Z</time>
      </trkpt>
      <trkpt lat="41.648053623" lon="2.581165562">
        <ele>280.36</ele>
        <time>2013-05-05T08:38:24Z</time>
      </trkpt>
      <trkpt lat="41.648027890" lon="2.581166735">
        <ele>280.36</ele>
        <time>2013-05-05T08:38:25Z</time>
      </trkpt>
      <trkpt lat="41.647810128" lon="2.581200011">
        <ele>280.84</ele>
        <time>2013-05-05T08:38:33Z</time>
      </trkpt>
      <trkpt lat="41.647629163" lon="2.581250219">
        <ele>282.28</ele>
        <time>2013-05-05T08:38:41Z</time>
      </trkpt>
      <trkpt lat="41.647450545" lon="2.581293469">
        <ele>283.25</ele>
        <time>2013-05-05T08:38:49Z</time>
      </trkpt>
      <trkpt lat="41.647389105" lon="2.581306294">
        <ele>283.25</ele>
        <time>2013-05-05T08:38:52Z</time>
      </trkpt>
      <trkpt lat="41.647355913" lon="2.581456246">
        <ele>282.28</ele>
        <time>2013-05-05T08:38:57Z</time>
      </trkpt>
      <trkpt lat="41.647516678" lon="2.581675433">
        <ele>281.80</ele>
        <time>2013-05-05T08:39:05Z</time>
      </trkpt>
      <trkpt lat="41.647699655" lon="2.581800658">
        <ele>281.80</ele>
        <time>2013-05-05T08:39:12Z</time>
      </trkpt>
      <trkpt lat="41.647969552" lon="2.582025377">
        <ele>281.80</ele>
        <time>2013-05-05T08:39:22Z</time>
      </trkpt>
      <trkpt lat="41.648054377" lon="2.582161080">
        <ele>283.25</ele>
        <time>2013-05-05T08:39:27Z</time>
      </trkpt>
      <trkpt lat="41.648061083" lon="2.582264429">
        <ele>283.25</ele>
        <time>2013-05-05T08:39:30Z</time>
      </trkpt>
      <trkpt lat="41.647946586" lon="2.582329054">
        <ele>283.25</ele>
        <time>2013-05-05T08:39:35Z</time>
      </trkpt>
      <trkpt lat="41.647890092" lon="2.582315894">
        <ele>283.25</ele>
        <time>2013-05-05T08:39:37Z</time>
      </trkpt>
      <trkpt lat="41.647656907" lon="2.582328718">
        <ele>283.73</ele>
        <time>2013-05-05T08:39:46Z</time>
      </trkpt>
      <trkpt lat="41.647396230" lon="2.582406921">
        <ele>285.17</ele>
        <time>2013-05-05T08:39:56Z</time>
      </trkpt>
      <trkpt lat="41.647206296" lon="2.582476994">
        <ele>286.61</ele>
        <time>2013-05-05T08:40:04Z</time>
      </trkpt>
      <trkpt lat="41.646982164" lon="2.582552012">
        <ele>287.57</ele>
        <time>2013-05-05T08:40:13Z</time>
      </trkpt>
      <trkpt lat="41.646790470" lon="2.582610350">
        <ele>289.01</ele>
        <time>2013-05-05T08:40:22Z</time>
      </trkpt>
      <trkpt lat="41.646676895" lon="2.582764661">
        <ele>289.49</ele>
        <time>2013-05-05T08:40:29Z</time>
      </trkpt>
      <trkpt lat="41.646618306" lon="2.582847390">
        <ele>289.49</ele>
        <time>2013-05-05T08:40:33Z</time>
      </trkpt>
      <trkpt lat="41.646518142" lon="2.582893575">
        <ele>290.46</ele>
        <time>2013-05-05T08:40:38Z</time>
      </trkpt>
      <trkpt lat="41.646353354" lon="2.582844876">
        <ele>290.46</ele>
        <time>2013-05-05T08:40:44Z</time>
      </trkpt>
      <trkpt lat="41.646301889" lon="2.582862478">
        <ele>288.53</ele>
        <time>2013-05-05T08:40:46Z</time>
      </trkpt>
      <trkpt lat="41.646325693" lon="2.582948811">
        <ele>288.05</ele>
        <time>2013-05-05T08:40:49Z</time>
      </trkpt>
      <trkpt lat="41.646351929" lon="2.582973622">
        <ele>288.05</ele>
        <time>2013-05-05T08:40:50Z</time>
      </trkpt>
      <trkpt lat="41.646519986" lon="2.583096920">
        <ele>286.13</ele>
        <time>2013-05-05T08:40:55Z</time>
      </trkpt>
      <trkpt lat="41.646733892" lon="2.583312251">
        <ele>282.77</ele>
        <time>2013-05-05T08:41:01Z</time>
      </trkpt>
      <trkpt lat="41.646795331" lon="2.583490785">
        <ele>281.32</ele>
        <time>2013-05-05T08:41:05Z</time>
      </trkpt>
      <trkpt lat="41.646815364" lon="2.583845927">
        <ele>279.88</ele>
        <time>2013-05-05T08:41:12Z</time>
      </trkpt>
      <trkpt lat="41.646795164" lon="2.583876604">
        <ele>279.40</ele>
        <time>2013-05-05T08:41:13Z</time>
      </trkpt>
      <trkpt lat="41.646571535" lon="2.584024042">
        <ele>278.92</ele>
        <time>2013-05-05T08:41:21Z</time>
      </trkpt>
      <trkpt lat="41.646496517" lon="2.584056731">
        <ele>280.36</ele>
        <time>2013-05-05T08:41:24Z</time>
      </trkpt>
      <trkpt lat="41.646342038" lon="2.584126637">
        <ele>279.88</ele>
        <time>2013-05-05T08:41:30Z</time>
      </trkpt>
      <trkpt lat="41.646106004" lon="2.584276505">
        <ele>277.00</ele>
        <time>2013-05-05T08:41:36Z</time>
      </trkpt>
      <trkpt lat="41.645897127" lon="2.584356552">
        <ele>275.07</ele>
        <time>2013-05-05T08:41:42Z</time>
      </trkpt>
      <trkpt lat="41.645775002" lon="2.584397037">
        <ele>274.11</ele>
        <time>2013-05-05T08:41:45Z</time>
      </trkpt>
      <trkpt lat="41.645354734" lon="2.584627288">
        <ele>272.19</ele>
        <time>2013-05-05T08:41:53Z</time>
      </trkpt>
      <trkpt lat="41.645306286" lon="2.584656121">
        <ele>271.23</ele>
        <time>2013-05-05T08:41:54Z</time>
      </trkpt>
      <trkpt lat="41.645218360" lon="2.584718315">
        <ele>271.23</ele>
        <time>2013-05-05T08:41:56Z</time>
      </trkpt>
      <trkpt lat="41.645023229" lon="2.584817641">
        <ele>270.27</ele>
        <time>2013-05-05T08:42:00Z</time>
      </trkpt>
      <trkpt lat="41.644826087" lon="2.584890479">
        <ele>269.31</ele>
        <time>2013-05-05T08:42:05Z</time>
      </trkpt>
      <trkpt lat="41.644813598" lon="2.585042443">
        <ele>268.35</ele>
        <time>2013-05-05T08:42:09Z</time>
      </trkpt>
      <trkpt lat="41.644911750" lon="2.585226677">
        <ele>266.90</ele>
        <time>2013-05-05T08:42:13Z</time>
      </trkpt>
      <trkpt lat="41.645015937" lon="2.585620711">
        <ele>264.98</ele>
        <time>2013-05-05T08:42:21Z</time>
      </trkpt>
      <trkpt lat="41.645001185" lon="2.585942073">
        <ele>262.58</ele>
        <time>2013-05-05T08:42:27Z</time>
      </trkpt>
      <trkpt lat="41.645010489" lon="2.585999238">
        <ele>262.10</ele>
        <time>2013-05-05T08:42:28Z</time>
      </trkpt>
      <trkpt lat="41.645086848" lon="2.586220520">
        <ele>259.69</ele>
        <time>2013-05-05T08:42:32Z</time>
      </trkpt>
      <trkpt lat="41.645225401" lon="2.586412549">
        <ele>255.85</ele>
        <time>2013-05-05T08:42:37Z</time>
      </trkpt>
      <trkpt lat="41.645348783" lon="2.586563004">
        <ele>252.48</ele>
        <time>2013-05-05T08:42:40Z</time>
      </trkpt>
      <trkpt lat="41.645435032" lon="2.586664006">
        <ele>251.04</ele>
        <time>2013-05-05T08:42:42Z</time>
      </trkpt>
      <trkpt lat="41.645577944" lon="2.586838434">
        <ele>248.16</ele>
        <time>2013-05-05T08:42:46Z</time>
      </trkpt>
      <trkpt lat="41.645630247" lon="2.586930299">
        <ele>247.20</ele>
        <time>2013-05-05T08:42:48Z</time>
      </trkpt>
      <trkpt lat="41.645634438" lon="2.587048065">
        <ele>246.23</ele>
        <time>2013-05-05T08:42:52Z</time>
      </trkpt>
      <trkpt lat="41.645554307" lon="2.587084443">
        <ele>246.23</ele>
        <time>2013-05-05T08:42:56Z</time>
      </trkpt>
      <trkpt lat="41.645415167" lon="2.587112522">
        <ele>249.12</ele>
        <time>2013-05-05T08:43:03Z</time>
      </trkpt>
      <trkpt lat="41.645253983" lon="2.587118389">
        <ele>251.52</ele>
        <time>2013-05-05T08:43:11Z</time>
      </trkpt>
      <trkpt lat="41.645096823" lon="2.587096177">
        <ele>252.00</ele>
        <time>2013-05-05T08:43:18Z</time>
      </trkpt>
      <trkpt lat="41.644929352" lon="2.587096512">
        <ele>252.48</ele>
        <time>2013-05-05T08:43:25Z</time>
      </trkpt>
      <trkpt lat="41.644800858" lon="2.587064410">
        <ele>253.44</ele>
        <time>2013-05-05T08:43:31Z</time>
      </trkpt>
      <trkpt lat="41.644583431" lon="2.586957708">
        <ele>253.93</ele>
        <time>2013-05-05T08:43:40Z</time>
      </trkpt>
      <trkpt lat="41.644377320" lon="2.586855449">
        <ele>255.85</ele>
        <time>2013-05-05T08:43:49Z</time>
      </trkpt>
      <trkpt lat="41.644177328" lon="2.586822927">
        <ele>258.25</ele>
        <time>2013-05-05T08:43:59Z</time>
      </trkpt>
      <trkpt lat="41.643942718" lon="2.586935077">
        <ele>258.25</ele>
        <time>2013-05-05T08:44:08Z</time>
      </trkpt>
      <trkpt lat="41.643717497" lon="2.587021662">
        <ele>258.25</ele>
        <time>2013-05-05T08:44:16Z</time>
      </trkpt>
      <trkpt lat="41.643514906" lon="2.587125011">
        <ele>256.81</ele>
        <time>2013-05-05T08:44:24Z</time>
      </trkpt>
      <trkpt lat="41.643491604" lon="2.587141272">
        <ele>256.81</ele>
        <time>2013-05-05T08:44:25Z</time>
      </trkpt>
      <trkpt lat="41.643296977" lon="2.587360542">
        <ele>254.89</ele>
        <time>2013-05-05T08:44:32Z</time>
      </trkpt>
      <trkpt lat="41.643231430" lon="2.587447295">
        <ele>254.41</ele>
        <time>2013-05-05T08:44:34Z</time>
      </trkpt>
      <trkpt lat="41.643005454" lon="2.587636391">
        <ele>252.48</ele>
        <time>2013-05-05T08:44:41Z</time>
      </trkpt>
      <trkpt lat="41.643002520" lon="2.587746613">
        <ele>252.48</ele>
        <time>2013-05-05T08:44:47Z</time>
      </trkpt>
      <trkpt lat="41.643029761" lon="2.587771004">
        <ele>252.48</ele>
        <time>2013-05-05T08:44:49Z</time>
      </trkpt>
      <trkpt lat="41.643093967" lon="2.587814003">
        <ele>253.44</ele>
        <time>2013-05-05T08:44:53Z</time>
      </trkpt>
      <trkpt lat="41.643256073" lon="2.587890111">
        <ele>255.37</ele>
        <time>2013-05-05T08:45:02Z</time>
      </trkpt>
      <trkpt lat="41.643402672" lon="2.587978205">
        <ele>256.81</ele>
        <time>2013-05-05T08:45:10Z</time>
      </trkpt>
      <trkpt lat="41.643543321" lon="2.588181634">
        <ele>258.25</ele>
        <time>2013-05-05T08:45:19Z</time>
      </trkpt>
      <trkpt lat="41.643679275" lon="2.588397719">
        <ele>258.73</ele>
        <time>2013-05-05T08:45:27Z</time>
      </trkpt>
      <trkpt lat="41.643810955" lon="2.588639872">
        <ele>259.69</ele>
        <time>2013-05-05T08:45:36Z</time>
      </trkpt>
      <trkpt lat="41.643991920" lon="2.588769959">
        <ele>260.65</ele>
        <time>2013-05-05T08:45:44Z</time>
      </trkpt>
      <trkpt lat="41.644176741" lon="2.588880014">
        <ele>260.65</ele>
        <time>2013-05-05T08:45:52Z</time>
      </trkpt>
      <trkpt lat="41.644237678" lon="2.588903902">
        <ele>261.62</ele>
        <time>2013-05-05T08:45:55Z</time>
      </trkpt>
      <trkpt lat="41.644297273" lon="2.588949835">
        <ele>262.58</ele>
        <time>2013-05-05T08:45:59Z</time>
      </trkpt>
      <trkpt lat="41.644444291" lon="2.589013873">
        <ele>262.58</ele>
        <time>2013-05-05T08:46:07Z</time>
      </trkpt>
      <trkpt lat="41.644648978" lon="2.589060560">
        <ele>263.54</ele>
        <time>2013-05-05T08:46:16Z</time>
      </trkpt>
      <trkpt lat="41.644785938" lon="2.589127867">
        <ele>264.50</ele>
        <time>2013-05-05T08:46:23Z</time>
      </trkpt>
      <trkpt lat="41.644936728" lon="2.589227276">
        <ele>266.42</ele>
        <time>2013-05-05T08:46:32Z</time>
      </trkpt>
      <trkpt lat="41.645071425" lon="2.589329535">
        <ele>266.90</ele>
        <time>2013-05-05T08:46:40Z</time>
      </trkpt>
      <trkpt lat="41.645222467" lon="2.589449396">
        <ele>268.35</ele>
        <time>2013-05-05T08:46:48Z</time>
      </trkpt>
      <trkpt lat="41.645365630" lon="2.589535060">
        <ele>268.35</ele>
        <time>2013-05-05T08:46:55Z</time>
      </trkpt>
      <trkpt lat="41.645416508" lon="2.589619884">
        <ele>268.35</ele>
        <time>2013-05-05T08:46:59Z</time>
      </trkpt>
      <trkpt lat="41.645416005" lon="2.589661375">
        <ele>266.90</ele>
        <time>2013-05-05T08:47:01Z</time>
      </trkpt>
      <trkpt lat="41.645351381" lon="2.589726837">
        <ele>266.90</ele>
        <time>2013-05-05T08:47:06Z</time>
      </trkpt>
      <trkpt lat="41.645246272" lon="2.589703787">
        <ele>268.35</ele>
        <time>2013-05-05T08:47:12Z</time>
      </trkpt>
      <trkpt lat="41.645086429" lon="2.589677636">
        <ele>268.83</ele>
        <time>2013-05-05T08:47:20Z</time>
      </trkpt>
      <trkpt lat="41.644922144" lon="2.589631368">
        <ele>269.31</ele>
        <time>2013-05-05T08:47:27Z</time>
      </trkpt>
      <trkpt lat="41.644691390" lon="2.589554841">
        <ele>269.31</ele>
        <time>2013-05-05T08:47:35Z</time>
      </trkpt>
      <trkpt lat="41.644395760" lon="2.589514021">
        <ele>267.38</ele>
        <time>2013-05-05T08:47:43Z</time>
      </trkpt>
      <trkpt lat="41.644239019" lon="2.589496335">
        <ele>268.83</ele>
        <time>2013-05-05T08:47:48Z</time>
      </trkpt>
      <trkpt lat="41.644164252" lon="2.589631032">
        <ele>270.27</ele>
        <time>2013-05-05T08:47:54Z</time>
      </trkpt>
      <trkpt lat="41.644225859" lon="2.589735974">
        <ele>272.19</ele>
        <time>2013-05-05T08:48:01Z</time>
      </trkpt>
      <trkpt lat="41.644315294" lon="2.589765394">
        <ele>273.63</ele>
        <time>2013-05-05T08:48:07Z</time>
      </trkpt>
      <trkpt lat="41.644458708" lon="2.589815518">
        <ele>275.07</ele>
        <time>2013-05-05T08:48:16Z</time>
      </trkpt>
      <trkpt lat="41.644625257" lon="2.589874108">
        <ele>277.00</ele>
        <time>2013-05-05T08:48:27Z</time>
      </trkpt>
      <trkpt lat="41.644765151" lon="2.589935044">
        <ele>278.44</ele>
        <time>2013-05-05T08:48:36Z</time>
      </trkpt>
      <trkpt lat="41.644893813" lon="2.589975109">
        <ele>280.84</ele>
        <time>2013-05-05T08:48:45Z</time>
      </trkpt>
      <trkpt lat="41.645024654" lon="2.590047110">
        <ele>282.28</ele>
        <time>2013-05-05T08:48:55Z</time>
      </trkpt>
      <trkpt lat="41.645105456" lon="2.590110645">
        <ele>284.21</ele>
        <time>2013-05-05T08:49:03Z</time>
      </trkpt>
      <trkpt lat="41.645129763" lon="2.590170324">
        <ele>285.17</ele>
        <time>2013-05-05T08:49:07Z</time>
      </trkpt>
      <trkpt lat="41.645068156" lon="2.590231680">
        <ele>286.61</ele>
        <time>2013-05-05T08:49:14Z</time>
      </trkpt>
      <trkpt lat="41.645028091" lon="2.590230758">
        <ele>287.09</ele>
        <time>2013-05-05T08:49:17Z</time>
      </trkpt>
      <trkpt lat="41.644883755" lon="2.590266716">
        <ele>289.01</ele>
        <time>2013-05-05T08:49:28Z</time>
      </trkpt>
      <trkpt lat="41.644752410" lon="2.590356235">
        <ele>290.94</ele>
        <time>2013-05-05T08:49:38Z</time>
      </trkpt>
      <trkpt lat="41.644619808" lon="2.590478191">
        <ele>291.90</ele>
        <time>2013-05-05T08:49:48Z</time>
      </trkpt>
      <trkpt lat="41.644503719" lon="2.590615319">
        <ele>293.34</ele>
        <time>2013-05-05T08:49:58Z</time>
      </trkpt>
      <trkpt lat="41.644409423" lon="2.590749513">
        <ele>294.78</ele>
        <time>2013-05-05T08:50:07Z</time>
      </trkpt>
      <trkpt lat="41.644328956" lon="2.590880104">
        <ele>296.22</ele>
        <time>2013-05-05T08:50:16Z</time>
      </trkpt>
      <trkpt lat="41.644285622" lon="2.590959480">
        <ele>297.67</ele>
        <time>2013-05-05T08:50:21Z</time>
      </trkpt>
      <trkpt lat="41.644250167" lon="2.591095435">
        <ele>299.11</ele>
        <time>2013-05-05T08:50:30Z</time>
      </trkpt>
      <trkpt lat="41.644249999" lon="2.591132483">
        <ele>299.59</ele>
        <time>2013-05-05T08:50:32Z</time>
      </trkpt>
      <trkpt lat="41.644270115" lon="2.591348149">
        <ele>301.03</ele>
        <time>2013-05-05T08:50:43Z</time>
      </trkpt>
      <trkpt lat="41.644315462" lon="2.591507405">
        <ele>302.95</ele>
        <time>2013-05-05T08:50:52Z</time>
      </trkpt>
      <trkpt lat="41.644386959" lon="2.591706978">
        <ele>304.39</ele>
        <time>2013-05-05T08:51:03Z</time>
      </trkpt>
      <trkpt lat="41.644456780" lon="2.591865061">
        <ele>306.32</ele>
        <time>2013-05-05T08:51:12Z</time>
      </trkpt>
      <trkpt lat="41.644560046" lon="2.592016438">
        <ele>308.24</ele>
        <time>2013-05-05T08:51:22Z</time>
      </trkpt>
      <trkpt lat="41.644661718" lon="2.592109393">
        <ele>310.16</ele>
        <time>2013-05-05T08:51:31Z</time>
      </trkpt>
      <trkpt lat="41.644785686" lon="2.592197152">
        <ele>311.60</ele>
        <time>2013-05-05T08:51:41Z</time>
      </trkpt>
      <trkpt lat="41.644916612" lon="2.592275774">
        <ele>313.53</ele>
        <time>2013-05-05T08:51:51Z</time>
      </trkpt>
      <trkpt lat="41.645021050" lon="2.592323635">
        <ele>315.45</ele>
        <time>2013-05-05T08:51:59Z</time>
      </trkpt>
      <trkpt lat="41.645149209" lon="2.592376525">
        <ele>317.85</ele>
        <time>2013-05-05T08:52:09Z</time>
      </trkpt>
      <trkpt lat="41.645268652" lon="2.592423128">
        <ele>320.26</ele>
        <time>2013-05-05T08:52:19Z</time>
      </trkpt>
      <trkpt lat="41.645370324" lon="2.592447017">
        <ele>321.70</ele>
        <time>2013-05-05T08:52:27Z</time>
      </trkpt>
      <trkpt lat="41.645480630" lon="2.592463697">
        <ele>323.14</ele>
        <time>2013-05-05T08:52:36Z</time>
      </trkpt>
      <trkpt lat="41.645579201" lon="2.592489764">
        <ele>324.58</ele>
        <time>2013-05-05T08:52:44Z</time>
      </trkpt>
      <trkpt lat="41.645725549" lon="2.592508540">
        <ele>326.50</ele>
        <time>2013-05-05T08:52:55Z</time>
      </trkpt>
      <trkpt lat="41.645915818" lon="2.592569560">
        <ele>328.91</ele>
        <time>2013-05-05T08:53:09Z</time>
      </trkpt>
      <trkpt lat="41.646061077" lon="2.592650278">
        <ele>330.35</ele>
        <time>2013-05-05T08:53:20Z</time>
      </trkpt>
      <trkpt lat="41.646191834" lon="2.592739880">
        <ele>332.27</ele>
        <time>2013-05-05T08:53:30Z</time>
      </trkpt>
      <trkpt lat="41.646256291" lon="2.592866028">
        <ele>333.71</ele>
        <time>2013-05-05T08:53:38Z</time>
      </trkpt>
      <trkpt lat="41.646279174" lon="2.593058476">
        <ele>335.16</ele>
        <time>2013-05-05T08:53:48Z</time>
      </trkpt>
      <trkpt lat="41.646282275" lon="2.593240364">
        <ele>337.08</ele>
        <time>2013-05-05T08:53:58Z</time>
      </trkpt>
      <trkpt lat="41.646242796" lon="2.593394172">
        <ele>339.00</ele>
        <time>2013-05-05T08:54:07Z</time>
      </trkpt>
      <trkpt lat="41.646136179" lon="2.593583519">
        <ele>339.96</ele>
        <time>2013-05-05T08:54:19Z</time>
      </trkpt>
      <trkpt lat="41.646049426" lon="2.593703212">
        <ele>340.44</ele>
        <time>2013-05-05T08:54:27Z</time>
      </trkpt>
      <trkpt lat="41.645987819" lon="2.593787031">
        <ele>340.92</ele>
        <time>2013-05-05T08:54:33Z</time>
      </trkpt>
      <trkpt lat="41.645856139" lon="2.593939498">
        <ele>341.41</ele>
        <time>2013-05-05T08:54:42Z</time>
      </trkpt>
      <trkpt lat="41.645699817" lon="2.594123816">
        <ele>341.89</ele>
        <time>2013-05-05T08:54:51Z</time>
      </trkpt>
      <trkpt lat="41.645604179" lon="2.594241498">
        <ele>342.37</ele>
        <time>2013-05-05T08:54:58Z</time>
      </trkpt>
      <trkpt lat="41.645557576" lon="2.594387427">
        <ele>342.37</ele>
        <time>2013-05-05T08:55:07Z</time>
      </trkpt>
      <trkpt lat="41.645666205" lon="2.594503936">
        <ele>343.33</ele>
        <time>2013-05-05T08:55:15Z</time>
      </trkpt>
      <trkpt lat="41.645832167" lon="2.594531344">
        <ele>344.29</ele>
        <time>2013-05-05T08:55:24Z</time>
      </trkpt>
      <trkpt lat="41.645986310" lon="2.594511060">
        <ele>345.73</ele>
        <time>2013-05-05T08:55:32Z</time>
      </trkpt>
      <trkpt lat="41.646195355" lon="2.594412321">
        <ele>347.17</ele>
        <time>2013-05-05T08:55:43Z</time>
      </trkpt>
      <trkpt lat="41.646356958" lon="2.594431348">
        <ele>348.62</ele>
        <time>2013-05-05T08:55:52Z</time>
      </trkpt>
      <trkpt lat="41.646486877" lon="2.594432689">
        <ele>350.54</ele>
        <time>2013-05-05T08:56:01Z</time>
      </trkpt>
      <trkpt lat="41.646615623" lon="2.594427660">
        <ele>352.46</ele>
        <time>2013-05-05T08:56:10Z</time>
      </trkpt>
      <trkpt lat="41.646755266" lon="2.594388265">
        <ele>353.90</ele>
        <time>2013-05-05T08:56:19Z</time>
      </trkpt>
      <trkpt lat="41.646936231" lon="2.594304949">
        <ele>354.86</ele>
        <time>2013-05-05T08:56:30Z</time>
      </trkpt>
      <trkpt lat="41.647079646" lon="2.594254239">
        <ele>355.83</ele>
        <time>2013-05-05T08:56:39Z</time>
      </trkpt>
      <trkpt lat="41.647234208" lon="2.594226075">
        <ele>357.75</ele>
        <time>2013-05-05T08:56:49Z</time>
      </trkpt>
      <trkpt lat="41.647376784" lon="2.594214341">
        <ele>358.23</ele>
        <time>2013-05-05T08:56:57Z</time>
      </trkpt>
      <trkpt lat="41.647520953" lon="2.594224315">
        <ele>360.15</ele>
        <time>2013-05-05T08:57:07Z</time>
      </trkpt>
      <trkpt lat="41.647624469" lon="2.594297657">
        <ele>360.63</ele>
        <time>2013-05-05T08:57:14Z</time>
      </trkpt>
      <trkpt lat="41.647708205" lon="2.594410645">
        <ele>362.07</ele>
        <time>2013-05-05T08:57:22Z</time>
      </trkpt>
      <trkpt lat="41.647831083" lon="2.594541738">
        <ele>364.48</ele>
        <time>2013-05-05T08:57:33Z</time>
      </trkpt>
      <trkpt lat="41.647909203" lon="2.594613068">
        <ele>365.92</ele>
        <time>2013-05-05T08:57:40Z</time>
      </trkpt>
      <trkpt lat="41.647991094" lon="2.594644919">
        <ele>366.40</ele>
        <time>2013-05-05T08:57:46Z</time>
      </trkpt>
      <trkpt lat="41.648116990" lon="2.594686158">
        <ele>368.80</ele>
        <time>2013-05-05T08:57:56Z</time>
      </trkpt>
      <trkpt lat="41.648206760" lon="2.594700910">
        <ele>370.24</ele>
        <time>2013-05-05T08:58:03Z</time>
      </trkpt>
      <trkpt lat="41.648300721" lon="2.594720105">
        <ele>372.17</ele>
        <time>2013-05-05T08:58:11Z</time>
      </trkpt>
      <trkpt lat="41.648384540" lon="2.594722116">
        <ele>373.61</ele>
        <time>2013-05-05T08:58:18Z</time>
      </trkpt>
      <trkpt lat="41.648501049" lon="2.594744496">
        <ele>375.05</ele>
        <time>2013-05-05T08:58:27Z</time>
      </trkpt>
      <trkpt lat="41.648640524" lon="2.594750447">
        <ele>376.97</ele>
        <time>2013-05-05T08:58:37Z</time>
      </trkpt>
      <trkpt lat="41.648770527" lon="2.594752627">
        <ele>378.90</ele>
        <time>2013-05-05T08:58:47Z</time>
      </trkpt>
      <trkpt lat="41.648925508" lon="2.594752124">
        <ele>380.82</ele>
        <time>2013-05-05T08:58:59Z</time>
      </trkpt>
      <trkpt lat="41.649071773" lon="2.594737036">
        <ele>381.78</ele>
        <time>2013-05-05T08:59:08Z</time>
      </trkpt>
      <trkpt lat="41.649247709" lon="2.594729744">
        <ele>383.22</ele>
        <time>2013-05-05T08:59:20Z</time>
      </trkpt>
      <trkpt lat="41.649376455" lon="2.594726391">
        <ele>384.66</ele>
        <time>2013-05-05T08:59:29Z</time>
      </trkpt>
      <trkpt lat="41.649502267" lon="2.594708957">
        <ele>385.63</ele>
        <time>2013-05-05T08:59:38Z</time>
      </trkpt>
      <trkpt lat="41.649600671" lon="2.594657324">
        <ele>386.59</ele>
        <time>2013-05-05T08:59:45Z</time>
      </trkpt>
      <trkpt lat="41.649689184" lon="2.594605943">
        <ele>387.07</ele>
        <time>2013-05-05T08:59:51Z</time>
      </trkpt>
      <trkpt lat="41.649831173" lon="2.594498655">
        <ele>388.99</ele>
        <time>2013-05-05T09:00:01Z</time>
      </trkpt>
      <trkpt lat="41.649957237" lon="2.594400838">
        <ele>390.43</ele>
        <time>2013-05-05T09:00:11Z</time>
      </trkpt>
      <trkpt lat="41.650078942" lon="2.594339650">
        <ele>391.39</ele>
        <time>2013-05-05T09:00:19Z</time>
      </trkpt>
      <trkpt lat="41.650214394" lon="2.594292125">
        <ele>391.87</ele>
        <time>2013-05-05T09:00:28Z</time>
      </trkpt>
      <trkpt lat="41.650344481" lon="2.594241331">
        <ele>392.36</ele>
        <time>2013-05-05T09:00:37Z</time>
      </trkpt>
      <trkpt lat="41.650470293" lon="2.594269913">
        <ele>392.84</ele>
        <time>2013-05-05T09:00:45Z</time>
      </trkpt>
      <trkpt lat="41.650608259" lon="2.594362952">
        <ele>393.80</ele>
        <time>2013-05-05T09:00:54Z</time>
      </trkpt>
      <trkpt lat="41.650740190" lon="2.594480131">
        <ele>394.28</ele>
        <time>2013-05-05T09:01:03Z</time>
      </trkpt>
      <trkpt lat="41.650850748" lon="2.594652044">
        <ele>394.76</ele>
        <time>2013-05-05T09:01:12Z</time>
      </trkpt>
      <trkpt lat="41.650955605" lon="2.594807277">
        <ele>395.72</ele>
        <time>2013-05-05T09:01:21Z</time>
      </trkpt>
      <trkpt lat="41.651072784" lon="2.594924623">
        <ele>397.64</ele>
        <time>2013-05-05T09:01:31Z</time>
      </trkpt>
      <trkpt lat="41.651202369" lon="2.595007185">
        <ele>400.53</ele>
        <time>2013-05-05T09:01:42Z</time>
      </trkpt>
      <trkpt lat="41.651316279" lon="2.595050017">
        <ele>401.97</ele>
        <time>2013-05-05T09:01:51Z</time>
      </trkpt>
      <trkpt lat="41.651436559" lon="2.595032582">
        <ele>404.37</ele>
        <time>2013-05-05T09:02:01Z</time>
      </trkpt>
      <trkpt lat="41.651469164" lon="2.595025374">
        <ele>404.85</ele>
        <time>2013-05-05T09:02:04Z</time>
      </trkpt>
      <trkpt lat="41.651579638" lon="2.594948344">
        <ele>406.77</ele>
        <time>2013-05-05T09:02:13Z</time>
      </trkpt>
      <trkpt lat="41.651692961" lon="2.594851701">
        <ele>409.18</ele>
        <time>2013-05-05T09:02:24Z</time>
      </trkpt>
      <trkpt lat="41.651800166" lon="2.594772659">
        <ele>411.58</ele>
        <time>2013-05-05T09:02:35Z</time>
      </trkpt>
      <trkpt lat="41.651905778" lon="2.594719602">
        <ele>413.02</ele>
        <time>2013-05-05T09:02:44Z</time>
      </trkpt>
      <trkpt lat="41.652014072" lon="2.594675848">
        <ele>413.98</ele>
        <time>2013-05-05T09:02:53Z</time>
      </trkpt>
      <trkpt lat="41.652113565" lon="2.594632598">
        <ele>415.43</ele>
        <time>2013-05-05T09:03:02Z</time>
      </trkpt>
      <trkpt lat="41.652231582" lon="2.594576271">
        <ele>416.87</ele>
        <time>2013-05-05T09:03:12Z</time>
      </trkpt>
      <trkpt lat="41.652318167" lon="2.594530171">
        <ele>418.79</ele>
        <time>2013-05-05T09:03:20Z</time>
      </trkpt>
      <trkpt lat="41.652418834" lon="2.594458338">
        <ele>419.75</ele>
        <time>2013-05-05T09:03:29Z</time>
      </trkpt>
      <trkpt lat="41.652535762" lon="2.594379213">
        <ele>421.19</ele>
        <time>2013-05-05T09:03:39Z</time>
      </trkpt>
      <trkpt lat="41.652631148" lon="2.594324060">
        <ele>423.60</ele>
        <time>2013-05-05T09:03:48Z</time>
      </trkpt>
      <trkpt lat="41.652755619" lon="2.594269578">
        <ele>426.48</ele>
        <time>2013-05-05T09:03:59Z</time>
      </trkpt>
      <trkpt lat="41.652871289" lon="2.594216520">
        <ele>429.85</ele>
        <time>2013-05-05T09:04:10Z</time>
      </trkpt>
      <trkpt lat="41.652957036" lon="2.594175449">
        <ele>432.25</ele>
        <time>2013-05-05T09:04:18Z</time>
      </trkpt>
      <trkpt lat="41.653040520" lon="2.594153321">
        <ele>433.69</ele>
        <time>2013-05-05T09:04:26Z</time>
      </trkpt>
      <trkpt lat="41.653125512" lon="2.594146028">
        <ele>435.61</ele>
        <time>2013-05-05T09:04:34Z</time>
      </trkpt>
      <trkpt lat="41.653192316" lon="2.594148711">
        <ele>437.06</ele>
        <time>2013-05-05T09:04:40Z</time>
      </trkpt>
      <trkpt lat="41.653228275" lon="2.594137395">
        <ele>437.54</ele>
        <time>2013-05-05T09:04:43Z</time>
      </trkpt>
      <trkpt lat="41.653287199" lon="2.594136221">
        <ele>438.02</ele>
        <time>2013-05-05T09:04:48Z</time>
      </trkpt>
      <trkpt lat="41.653361631" lon="2.594161702">
        <ele>438.02</ele>
        <time>2013-05-05T09:04:53Z</time>
      </trkpt>
      <trkpt lat="41.653427345" lon="2.594189782">
        <ele>438.50</ele>
        <time>2013-05-05T09:04:58Z</time>
      </trkpt>
      <trkpt lat="41.653547625" lon="2.594268153">
        <ele>440.42</ele>
        <time>2013-05-05T09:05:08Z</time>
      </trkpt>
      <trkpt lat="41.653568328" lon="2.594288102">
        <ele>440.42</ele>
        <time>2013-05-05T09:05:10Z</time>
      </trkpt>
      <trkpt lat="41.653641502" lon="2.594398072">
        <ele>440.90</ele>
        <time>2013-05-05T09:05:19Z</time>
      </trkpt>
      <trkpt lat="41.653721969" lon="2.594482226">
        <ele>442.82</ele>
        <time>2013-05-05T09:05:28Z</time>
      </trkpt>
      <trkpt lat="41.653821965" lon="2.594556658">
        <ele>445.23</ele>
        <time>2013-05-05T09:05:38Z</time>
      </trkpt>
      <trkpt lat="41.653935204" lon="2.594630167">
        <ele>447.63</ele>
        <time>2013-05-05T09:05:49Z</time>
      </trkpt>
      <trkpt lat="41.654021789" lon="2.594709544">
        <ele>449.55</ele>
        <time>2013-05-05T09:05:58Z</time>
      </trkpt>
      <trkpt lat="41.654061687" lon="2.594705185">
        <ele>449.55</ele>
        <time>2013-05-05T09:06:02Z</time>
      </trkpt>
      <trkpt lat="41.654060933" lon="2.594608626">
        <ele>450.52</ele>
        <time>2013-05-05T09:06:09Z</time>
      </trkpt>
      <trkpt lat="41.653990776" lon="2.594510306">
        <ele>451.96</ele>
        <time>2013-05-05T09:06:18Z</time>
      </trkpt>
      <trkpt lat="41.653923386" lon="2.594350714">
        <ele>453.40</ele>
        <time>2013-05-05T09:06:29Z</time>
      </trkpt>
      <trkpt lat="41.653870747" lon="2.594181316">
        <ele>454.36</ele>
        <time>2013-05-05T09:06:40Z</time>
      </trkpt>
      <trkpt lat="41.653791119" lon="2.594031448">
        <ele>456.28</ele>
        <time>2013-05-05T09:06:51Z</time>
      </trkpt>
      <trkpt lat="41.653728590" lon="2.593908820">
        <ele>458.21</ele>
        <time>2013-05-05T09:07:00Z</time>
      </trkpt>
      <trkpt lat="41.653657596" lon="2.593745960">
        <ele>460.61</ele>
        <time>2013-05-05T09:07:11Z</time>
      </trkpt>
      <trkpt lat="41.653584254" lon="2.593627021">
        <ele>462.53</ele>
        <time>2013-05-05T09:07:20Z</time>
      </trkpt>
      <trkpt lat="41.653509320" lon="2.593469609">
        <ele>464.93</ele>
        <time>2013-05-05T09:07:32Z</time>
      </trkpt>
      <trkpt lat="41.653519043" lon="2.593344467">
        <ele>465.90</ele>
        <time>2013-05-05T09:07:40Z</time>
      </trkpt>
      <trkpt lat="41.653561623" lon="2.593304737">
        <ele>466.38</ele>
        <time>2013-05-05T09:07:45Z</time>
      </trkpt>
      <trkpt lat="41.653650806" lon="2.593362572">
        <ele>467.82</ele>
        <time>2013-05-05T09:07:54Z</time>
      </trkpt>
      <trkpt lat="41.653749713" lon="2.593443876">
        <ele>469.74</ele>
        <time>2013-05-05T09:08:04Z</time>
      </trkpt>
      <trkpt lat="41.653833113" lon="2.593519649">
        <ele>471.66</ele>
        <time>2013-05-05T09:08:13Z</time>
      </trkpt>
      <trkpt lat="41.653925062" lon="2.593562145">
        <ele>473.59</ele>
        <time>2013-05-05T09:08:23Z</time>
      </trkpt>
      <trkpt lat="41.654008881" lon="2.593592571">
        <ele>475.51</ele>
        <time>2013-05-05T09:08:32Z</time>
      </trkpt>
      <trkpt lat="41.654109380" lon="2.593640683">
        <ele>478.87</ele>
        <time>2013-05-05T09:08:42Z</time>
      </trkpt>
      <trkpt lat="41.654173502" lon="2.593654597">
        <ele>480.80</ele>
        <time>2013-05-05T09:08:49Z</time>
      </trkpt>
      <trkpt lat="41.654212310" lon="2.593661722">
        <ele>481.28</ele>
        <time>2013-05-05T09:08:53Z</time>
      </trkpt>
      <trkpt lat="41.654318173" lon="2.593729029">
        <ele>484.64</ele>
        <time>2013-05-05T09:09:03Z</time>
      </trkpt>
      <trkpt lat="41.654356395" lon="2.593752079">
        <ele>485.60</ele>
        <time>2013-05-05T09:09:07Z</time>
      </trkpt>
      <trkpt lat="41.654456056" lon="2.593814775">
        <ele>487.53</ele>
        <time>2013-05-05T09:09:18Z</time>
      </trkpt>
      <trkpt lat="41.654544233" lon="2.593856517">
        <ele>489.93</ele>
        <time>2013-05-05T09:09:28Z</time>
      </trkpt>
      <trkpt lat="41.654616485" lon="2.593895326">
        <ele>491.37</ele>
        <time>2013-05-05T09:09:36Z</time>
      </trkpt>
      <trkpt lat="41.654698041" lon="2.593949892">
        <ele>492.81</ele>
        <time>2013-05-05T09:09:45Z</time>
      </trkpt>
      <trkpt lat="41.654782363" lon="2.594018540">
        <ele>495.22</ele>
        <time>2013-05-05T09:09:54Z</time>
      </trkpt>
      <trkpt lat="41.654863500" lon="2.594105963">
        <ele>496.66</ele>
        <time>2013-05-05T09:10:04Z</time>
      </trkpt>
      <trkpt lat="41.654932651" lon="2.594211491">
        <ele>500.02</ele>
        <time>2013-05-05T09:10:14Z</time>
      </trkpt>
      <trkpt lat="41.654941536" lon="2.594233452">
        <ele>500.02</ele>
        <time>2013-05-05T09:10:16Z</time>
      </trkpt>
      <trkpt lat="41.655015045" lon="2.594331771">
        <ele>500.50</ele>
        <time>2013-05-05T09:10:25Z</time>
      </trkpt>
      <trkpt lat="41.655088889" lon="2.594401509">
        <ele>501.46</ele>
        <time>2013-05-05T09:10:34Z</time>
      </trkpt>
      <trkpt lat="41.655169775" lon="2.594483316">
        <ele>503.39</ele>
        <time>2013-05-05T09:10:43Z</time>
      </trkpt>
      <trkpt lat="41.655261976" lon="2.594543331">
        <ele>504.83</ele>
        <time>2013-05-05T09:10:53Z</time>
      </trkpt>
      <trkpt lat="41.655271615" lon="2.594544001">
        <ele>504.83</ele>
        <time>2013-05-05T09:10:54Z</time>
      </trkpt>
      <trkpt lat="41.655388878" lon="2.594596053">
        <ele>505.79</ele>
        <time>2013-05-05T09:11:03Z</time>
      </trkpt>
      <trkpt lat="41.655436235" lon="2.594622288">
        <ele>506.27</ele>
        <time>2013-05-05T09:11:07Z</time>
      </trkpt>
      <trkpt lat="41.655576548" lon="2.594703760">
        <ele>508.19</ele>
        <time>2013-05-05T09:11:20Z</time>
      </trkpt>
      <trkpt lat="41.655654333" lon="2.594766457">
        <ele>509.64</ele>
        <time>2013-05-05T09:11:28Z</time>
      </trkpt>
      <trkpt lat="41.655677550" lon="2.594853629">
        <ele>510.12</ele>
        <time>2013-05-05T09:11:34Z</time>
      </trkpt>
      <trkpt lat="41.655609238" lon="2.594987823">
        <ele>511.56</ele>
        <time>2013-05-05T09:11:45Z</time>
      </trkpt>
      <trkpt lat="41.655628684" lon="2.595140122">
        <ele>512.52</ele>
        <time>2013-05-05T09:11:55Z</time>
      </trkpt>
      <trkpt lat="41.655725663" lon="2.595208351">
        <ele>513.96</ele>
        <time>2013-05-05T09:12:04Z</time>
      </trkpt>
      <trkpt lat="41.655799842" lon="2.595292505">
        <ele>515.40</ele>
        <time>2013-05-05T09:12:12Z</time>
      </trkpt>
      <trkpt lat="41.655886260" lon="2.595423347">
        <ele>517.33</ele>
        <time>2013-05-05T09:12:24Z</time>
      </trkpt>
      <trkpt lat="41.655899671" lon="2.595516386">
        <ele>518.29</ele>
        <time>2013-05-05T09:12:31Z</time>
      </trkpt>
      <trkpt lat="41.655876704" lon="2.595615124">
        <ele>519.73</ele>
        <time>2013-05-05T09:12:38Z</time>
      </trkpt>
      <trkpt lat="41.655783162" lon="2.595757952">
        <ele>521.65</ele>
        <time>2013-05-05T09:12:51Z</time>
      </trkpt>
      <trkpt lat="41.655707558" lon="2.595832216">
        <ele>522.61</ele>
        <time>2013-05-05T09:13:00Z</time>
      </trkpt>
      <trkpt lat="41.655630360" lon="2.595885944">
        <ele>523.58</ele>
        <time>2013-05-05T09:13:08Z</time>
      </trkpt>
      <trkpt lat="41.655530364" lon="2.596018965">
        <ele>525.50</ele>
        <time>2013-05-05T09:13:19Z</time>
      </trkpt>
      <trkpt lat="41.655452999" lon="2.596193895">
        <ele>526.94</ele>
        <time>2013-05-05T09:13:31Z</time>
      </trkpt>
      <trkpt lat="41.655453586" lon="2.596352732">
        <ele>528.38</ele>
        <time>2013-05-05T09:13:41Z</time>
      </trkpt>
      <trkpt lat="41.655521144" lon="2.596497823">
        <ele>530.30</ele>
        <time>2013-05-05T09:13:52Z</time>
      </trkpt>
      <trkpt lat="41.655629941" lon="2.596595472">
        <ele>532.23</ele>
        <time>2013-05-05T09:14:04Z</time>
      </trkpt>
      <trkpt lat="41.655712922" lon="2.596677698">
        <ele>534.15</ele>
        <time>2013-05-05T09:14:13Z</time>
      </trkpt>
      <trkpt lat="41.655746533" lon="2.596719273">
        <ele>535.11</ele>
        <time>2013-05-05T09:14:17Z</time>
      </trkpt>
      <trkpt lat="41.655764219" lon="2.596800409">
        <ele>535.59</ele>
        <time>2013-05-05T09:14:22Z</time>
      </trkpt>
      <trkpt lat="41.655757011" lon="2.596943740">
        <ele>537.03</ele>
        <time>2013-05-05T09:14:32Z</time>
      </trkpt>
      <trkpt lat="41.655772853" lon="2.597004593">
        <ele>537.51</ele>
        <time>2013-05-05T09:14:36Z</time>
      </trkpt>
      <trkpt lat="41.655800681" lon="2.597069720">
        <ele>538.48</ele>
        <time>2013-05-05T09:14:41Z</time>
      </trkpt>
      <trkpt lat="41.655911825" lon="2.597158568">
        <ele>540.40</ele>
        <time>2013-05-05T09:14:53Z</time>
      </trkpt>
      <trkpt lat="41.656009977" lon="2.597204752">
        <ele>541.84</ele>
        <time>2013-05-05T09:15:03Z</time>
      </trkpt>
      <trkpt lat="41.656083654" lon="2.597211709">
        <ele>543.76</ele>
        <time>2013-05-05T09:15:11Z</time>
      </trkpt>
      <trkpt lat="41.656194881" lon="2.597201651">
        <ele>545.69</ele>
        <time>2013-05-05T09:15:21Z</time>
      </trkpt>
      <trkpt lat="41.656284568" lon="2.597227803">
        <ele>546.65</ele>
        <time>2013-05-05T09:15:29Z</time>
      </trkpt>
      <trkpt lat="41.656375260" lon="2.597261498">
        <ele>548.09</ele>
        <time>2013-05-05T09:15:37Z</time>
      </trkpt>
      <trkpt lat="41.656449524" lon="2.597284883">
        <ele>550.49</ele>
        <time>2013-05-05T09:15:45Z</time>
      </trkpt>
      <trkpt lat="41.656555639" lon="2.597315058">
        <ele>551.93</ele>
        <time>2013-05-05T09:15:55Z</time>
      </trkpt>
      <trkpt lat="41.656645828" lon="2.597345736">
        <ele>553.86</ele>
        <time>2013-05-05T09:16:04Z</time>
      </trkpt>
      <trkpt lat="41.656741884" lon="2.597365936">
        <ele>555.30</ele>
        <time>2013-05-05T09:16:13Z</time>
      </trkpt>
      <trkpt lat="41.656753200" lon="2.597368702">
        <ele>555.30</ele>
        <time>2013-05-05T09:16:14Z</time>
      </trkpt>
      <trkpt lat="41.656831655" lon="2.597428549">
        <ele>556.74</ele>
        <time>2013-05-05T09:16:22Z</time>
      </trkpt>
      <trkpt lat="41.656914216" lon="2.597511949">
        <ele>556.74</ele>
        <time>2013-05-05T09:16:31Z</time>
      </trkpt>
      <trkpt lat="41.656929555" lon="2.597633151">
        <ele>558.66</ele>
        <time>2013-05-05T09:16:41Z</time>
      </trkpt>
      <trkpt lat="41.656927125" lon="2.597739183">
        <ele>560.11</ele>
        <time>2013-05-05T09:16:50Z</time>
      </trkpt>
      <trkpt lat="41.656911953" lon="2.597793581">
        <ele>560.59</ele>
        <time>2013-05-05T09:16:54Z</time>
      </trkpt>
      <trkpt lat="41.656888316" lon="2.597852674">
        <ele>561.55</ele>
        <time>2013-05-05T09:16:58Z</time>
      </trkpt>
      <trkpt lat="41.656820758" lon="2.598021066">
        <ele>562.99</ele>
        <time>2013-05-05T09:17:10Z</time>
      </trkpt>
      <trkpt lat="41.656805838" lon="2.598062892">
        <ele>563.47</ele>
        <time>2013-05-05T09:17:13Z</time>
      </trkpt>
      <trkpt lat="41.656728893" lon="2.598177808">
        <ele>564.43</ele>
        <time>2013-05-05T09:17:23Z</time>
      </trkpt>
      <trkpt lat="41.656649013" lon="2.598300267">
        <ele>565.39</ele>
        <time>2013-05-05T09:17:33Z</time>
      </trkpt>
      <trkpt lat="41.656550526" lon="2.598412920">
        <ele>566.35</ele>
        <time>2013-05-05T09:17:43Z</time>
      </trkpt>
      <trkpt lat="41.656537618" lon="2.598442592">
        <ele>566.83</ele>
        <time>2013-05-05T09:17:45Z</time>
      </trkpt>
      <trkpt lat="41.656533762" lon="2.598474862">
        <ele>566.83</ele>
        <time>2013-05-05T09:17:47Z</time>
      </trkpt>
      <trkpt lat="41.656565026" lon="2.598605033">
        <ele>568.76</ele>
        <time>2013-05-05T09:17:56Z</time>
      </trkpt>
      <trkpt lat="41.656645744" lon="2.598708131">
        <ele>571.16</ele>
        <time>2013-05-05T09:18:07Z</time>
      </trkpt>
      <trkpt lat="41.656737610" lon="2.598805361">
        <ele>571.16</ele>
        <time>2013-05-05T09:18:16Z</time>
      </trkpt>
      <trkpt lat="41.656836600" lon="2.598882223">
        <ele>572.60</ele>
        <time>2013-05-05T09:18:26Z</time>
      </trkpt>
      <trkpt lat="41.656954701" lon="2.598958163">
        <ele>574.04</ele>
        <time>2013-05-05T09:18:35Z</time>
      </trkpt>
      <trkpt lat="41.657039610" lon="2.599052124">
        <ele>575.01</ele>
        <time>2013-05-05T09:18:44Z</time>
      </trkpt>
      <trkpt lat="41.657106581" lon="2.599172823">
        <ele>576.93</ele>
        <time>2013-05-05T09:18:53Z</time>
      </trkpt>
      <trkpt lat="41.657140863" lon="2.599309029">
        <ele>579.33</ele>
        <time>2013-05-05T09:19:03Z</time>
      </trkpt>
      <trkpt lat="41.657134409" lon="2.599355046">
        <ele>579.81</ele>
        <time>2013-05-05T09:19:06Z</time>
      </trkpt>
      <trkpt lat="41.657131056" lon="2.599502400">
        <ele>582.70</ele>
        <time>2013-05-05T09:19:17Z</time>
      </trkpt>
      <trkpt lat="41.657125021" lon="2.599623853">
        <ele>585.10</ele>
        <time>2013-05-05T09:19:26Z</time>
      </trkpt>
      <trkpt lat="41.657147317" lon="2.599746313">
        <ele>586.54</ele>
        <time>2013-05-05T09:19:35Z</time>
      </trkpt>
      <trkpt lat="41.657170116" lon="2.599811943">
        <ele>587.02</ele>
        <time>2013-05-05T09:19:40Z</time>
      </trkpt>
      <trkpt lat="41.657188891" lon="2.599849746">
        <ele>587.50</ele>
        <time>2013-05-05T09:19:43Z</time>
      </trkpt>
      <trkpt lat="41.657239099" lon="2.599902719">
        <ele>588.46</ele>
        <time>2013-05-05T09:19:49Z</time>
      </trkpt>
      <trkpt lat="41.657290145" lon="2.600020904">
        <ele>590.39</ele>
        <time>2013-05-05T09:20:00Z</time>
      </trkpt>
      <trkpt lat="41.657277907" lon="2.600112518">
        <ele>591.35</ele>
        <time>2013-05-05T09:20:07Z</time>
      </trkpt>
      <trkpt lat="41.657230801" lon="2.600237074">
        <ele>593.27</ele>
        <time>2013-05-05T09:20:17Z</time>
      </trkpt>
      <trkpt lat="41.657196100" lon="2.600383086">
        <ele>596.15</ele>
        <time>2013-05-05T09:20:27Z</time>
      </trkpt>
      <trkpt lat="41.657227448" lon="2.600453830">
        <ele>597.60</ele>
        <time>2013-05-05T09:20:33Z</time>
      </trkpt>
      <trkpt lat="41.657244715" lon="2.600468582">
        <ele>598.08</ele>
        <time>2013-05-05T09:20:35Z</time>
      </trkpt>
      <trkpt lat="41.657329121" lon="2.600442179">
        <ele>599.52</ele>
        <time>2013-05-05T09:20:45Z</time>
      </trkpt>
      <trkpt lat="41.657409838" lon="2.600379985">
        <ele>601.92</ele>
        <time>2013-05-05T09:20:55Z</time>
      </trkpt>
      <trkpt lat="41.657472032" lon="2.600283090">
        <ele>603.85</ele>
        <time>2013-05-05T09:21:06Z</time>
      </trkpt>
      <trkpt lat="41.657501453" lon="2.600200193">
        <ele>605.29</ele>
        <time>2013-05-05T09:21:14Z</time>
      </trkpt>
      <trkpt lat="41.657520228" lon="2.600067424">
        <ele>606.73</ele>
        <time>2013-05-05T09:21:24Z</time>
      </trkpt>
      <trkpt lat="41.657529029" lon="2.599929039">
        <ele>609.61</ele>
        <time>2013-05-05T09:21:34Z</time>
      </trkpt>
      <trkpt lat="41.657543362" lon="2.599810267">
        <ele>611.54</ele>
        <time>2013-05-05T09:21:43Z</time>
      </trkpt>
      <trkpt lat="41.657577896" lon="2.599692669">
        <ele>612.98</ele>
        <time>2013-05-05T09:21:52Z</time>
      </trkpt>
      <trkpt lat="41.657584266" lon="2.599679425">
        <ele>613.46</ele>
        <time>2013-05-05T09:21:53Z</time>
      </trkpt>
      <trkpt lat="41.657648220" lon="2.599534921">
        <ele>614.90</ele>
        <time>2013-05-05T09:22:04Z</time>
      </trkpt>
      <trkpt lat="41.657693733" lon="2.599457640">
        <ele>616.34</ele>
        <time>2013-05-05T09:22:12Z</time>
      </trkpt>
      <trkpt lat="41.657769422" lon="2.599336187">
        <ele>618.26</ele>
        <time>2013-05-05T09:22:23Z</time>
      </trkpt>
      <trkpt lat="41.657806721" lon="2.599258989">
        <ele>619.23</ele>
        <time>2013-05-05T09:22:30Z</time>
      </trkpt>
      <trkpt lat="41.657860449" lon="2.599101996">
        <ele>621.15</ele>
        <time>2013-05-05T09:22:42Z</time>
      </trkpt>
      <trkpt lat="41.657914261" lon="2.598938801">
        <ele>623.07</ele>
        <time>2013-05-05T09:22:54Z</time>
      </trkpt>
      <trkpt lat="41.657948459" lon="2.598826818">
        <ele>625.47</ele>
        <time>2013-05-05T09:23:03Z</time>
      </trkpt>
      <trkpt lat="41.657978802" lon="2.598714920">
        <ele>626.92</ele>
        <time>2013-05-05T09:23:13Z</time>
      </trkpt>
      <trkpt lat="41.658004702" lon="2.598562369">
        <ele>629.32</ele>
        <time>2013-05-05T09:23:24Z</time>
      </trkpt>
      <trkpt lat="41.658002271" lon="2.598427504">
        <ele>630.28</ele>
        <time>2013-05-05T09:23:34Z</time>
      </trkpt>
      <trkpt lat="41.657995733" lon="2.598412920">
        <ele>630.28</ele>
        <time>2013-05-05T09:23:40Z</time>
      </trkpt>
      <trkpt lat="41.657999421" lon="2.598414093">
        <ele>630.28</ele>
        <time>2013-05-05T09:23:52Z</time>
      </trkpt>
      <trkpt lat="41.657989447" lon="2.598402443">
        <ele>630.28</ele>
        <time>2013-05-05T09:24:06Z</time>
      </trkpt>
      <trkpt lat="41.658007133" lon="2.598409651">
        <ele>630.28</ele>
        <time>2013-05-05T09:24:24Z</time>
      </trkpt>
      <trkpt lat="41.658013000" lon="2.598402023">
        <ele>630.28</ele>
        <time>2013-05-05T09:24:38Z</time>
      </trkpt>
      <trkpt lat="41.658025657" lon="2.598400599">
        <ele>630.28</ele>
        <time>2013-05-05T09:24:50Z</time>
      </trkpt>
      <trkpt lat="41.658017778" lon="2.598395569">
        <ele>630.28</ele>
        <time>2013-05-05T09:25:01Z</time>
      </trkpt>
      <trkpt lat="41.658002104" lon="2.598414093">
        <ele>630.28</ele>
        <time>2013-05-05T09:25:18Z</time>
      </trkpt>
      <trkpt lat="41.657993973" lon="2.598409986">
        <ele>630.28</ele>
        <time>2013-05-05T09:25:25Z</time>
      </trkpt>
      <trkpt lat="41.657990118" lon="2.598405795">
        <ele>630.28</ele>
        <time>2013-05-05T09:25:44Z</time>
      </trkpt>
      <trkpt lat="41.657987016" lon="2.598405795">
        <ele>630.28</ele>
        <time>2013-05-05T09:26:00Z</time>
      </trkpt>
      <trkpt lat="41.658004618" lon="2.598411495">
        <ele>630.28</ele>
        <time>2013-05-05T09:26:16Z</time>
      </trkpt>
      <trkpt lat="41.658010821" lon="2.598405879">
        <ele>630.28</ele>
        <time>2013-05-05T09:26:36Z</time>
      </trkpt>
      <trkpt lat="41.658005373" lon="2.598425074">
        <ele>630.28</ele>
        <time>2013-05-05T09:26:44Z</time>
      </trkpt>
      <trkpt lat="41.658012916" lon="2.598419625">
        <ele>630.28</ele>
        <time>2013-05-05T09:26:59Z</time>
      </trkpt>
      <trkpt lat="41.658030351" lon="2.598411998">
        <ele>630.28</ele>
        <time>2013-05-05T09:27:14Z</time>
      </trkpt>
      <trkpt lat="41.658018281" lon="2.598433623">
        <ele>630.28</ele>
        <time>2013-05-05T09:27:26Z</time>
      </trkpt>
      <trkpt lat="41.658018029" lon="2.598439910">
        <ele>630.28</ele>
        <time>2013-05-05T09:27:41Z</time>
      </trkpt>
      <trkpt lat="41.658019706" lon="2.598425493">
        <ele>630.28</ele>
        <time>2013-05-05T09:27:52Z</time>
      </trkpt>
      <trkpt lat="41.658005959" lon="2.598427421">
        <ele>630.28</ele>
        <time>2013-05-05T09:28:00Z</time>
      </trkpt>
      <trkpt lat="41.658009061" lon="2.598405125">
        <ele>630.28</ele>
        <time>2013-05-05T09:28:13Z</time>
      </trkpt>
      <trkpt lat="41.658013419" lon="2.598395653">
        <ele>630.28</ele>
        <time>2013-05-05T09:28:23Z</time>
      </trkpt>
      <trkpt lat="41.658027333" lon="2.598376962">
        <ele>630.28</ele>
        <time>2013-05-05T09:28:30Z</time>
      </trkpt>
      <trkpt lat="41.658068488" lon="2.598302698">
        <ele>630.76</ele>
        <time>2013-05-05T09:28:38Z</time>
      </trkpt>
      <trkpt lat="41.658072093" lon="2.598161211">
        <ele>630.76</ele>
        <time>2013-05-05T09:28:45Z</time>
      </trkpt>
      <trkpt lat="41.658089359" lon="2.598024586">
        <ele>630.76</ele>
        <time>2013-05-05T09:28:50Z</time>
      </trkpt>
      <trkpt lat="41.658187763" lon="2.597886788">
        <ele>630.76</ele>
        <time>2013-05-05T09:28:58Z</time>
      </trkpt>
      <trkpt lat="41.658316341" lon="2.597726945">
        <ele>630.76</ele>
        <time>2013-05-05T09:29:07Z</time>
      </trkpt>
      <trkpt lat="41.658401837" lon="2.597572466">
        <ele>631.72</ele>
        <time>2013-05-05T09:29:15Z</time>
      </trkpt>
      <trkpt lat="41.658511220" lon="2.597385466">
        <ele>633.17</ele>
        <time>2013-05-05T09:29:24Z</time>
      </trkpt>
      <trkpt lat="41.658599230" lon="2.597225540">
        <ele>634.13</ele>
        <time>2013-05-05T09:29:32Z</time>
      </trkpt>
      <trkpt lat="41.658682379" lon="2.597101739">
        <ele>635.09</ele>
        <time>2013-05-05T09:29:39Z</time>
      </trkpt>
      <trkpt lat="41.658777011" lon="2.597029571">
        <ele>635.57</ele>
        <time>2013-05-05T09:29:46Z</time>
      </trkpt>
      <trkpt lat="41.658910618" lon="2.597007945">
        <ele>635.57</ele>
        <time>2013-05-05T09:29:53Z</time>
      </trkpt>
      <trkpt lat="41.659118573" lon="2.596940303">
        <ele>635.57</ele>
        <time>2013-05-05T09:29:59Z</time>
      </trkpt>
      <trkpt lat="41.659217815" lon="2.596889760">
        <ele>634.13</ele>
        <time>2013-05-05T09:30:01Z</time>
      </trkpt>
      <trkpt lat="41.659399535" lon="2.596739557">
        <ele>634.13</ele>
        <time>2013-05-05T09:30:05Z</time>
      </trkpt>
      <trkpt lat="41.659509924" lon="2.596588431">
        <ele>633.17</ele>
        <time>2013-05-05T09:30:08Z</time>
      </trkpt>
      <trkpt lat="41.659737074" lon="2.596252987">
        <ele>632.68</ele>
        <time>2013-05-05T09:30:15Z</time>
      </trkpt>
      <trkpt lat="41.659883087" lon="2.595943695">
        <ele>632.68</ele>
        <time>2013-05-05T09:30:22Z</time>
      </trkpt>
      <trkpt lat="41.659903622" lon="2.595897511">
        <ele>632.68</ele>
        <time>2013-05-05T09:30:23Z</time>
      </trkpt>
      <trkpt lat="41.659990040" lon="2.595746720">
        <ele>631.72</ele>
        <time>2013-05-05T09:30:26Z</time>
      </trkpt>
      <trkpt lat="41.660090539" lon="2.595615795">
        <ele>630.28</ele>
        <time>2013-05-05T09:30:29Z</time>
      </trkpt>
      <trkpt lat="41.660192127" lon="2.595478583">
        <ele>628.84</ele>
        <time>2013-05-05T09:30:32Z</time>
      </trkpt>
      <trkpt lat="41.660375020" lon="2.595014226">
        <ele>625.96</ele>
        <time>2013-05-05T09:30:38Z</time>
      </trkpt>
      <trkpt lat="41.660496726" lon="2.594693115">
        <ele>623.55</ele>
        <time>2013-05-05T09:30:42Z</time>
      </trkpt>
      <trkpt lat="41.660653216" lon="2.594319785">
        <ele>620.19</ele>
        <time>2013-05-05T09:30:46Z</time>
      </trkpt>
      <trkpt lat="41.660682552" lon="2.594232697">
        <ele>619.23</ele>
        <time>2013-05-05T09:30:47Z</time>
      </trkpt>
      <trkpt lat="41.660768886" lon="2.593705811">
        <ele>615.86</ele>
        <time>2013-05-05T09:30:53Z</time>
      </trkpt>
      <trkpt lat="41.660792188" lon="2.593500706">
        <ele>614.90</ele>
        <time>2013-05-05T09:30:56Z</time>
      </trkpt>
      <trkpt lat="41.660823117" lon="2.593201388">
        <ele>612.02</ele>
        <time>2013-05-05T09:31:02Z</time>
      </trkpt>
      <trkpt lat="41.660817166" lon="2.593005670">
        <ele>611.54</ele>
        <time>2013-05-05T09:31:08Z</time>
      </trkpt>
      <trkpt lat="41.660819848" lon="2.592992008">
        <ele>611.54</ele>
        <time>2013-05-05T09:31:14Z</time>
      </trkpt>
      <trkpt lat="41.660835857" lon="2.592970215">
        <ele>611.54</ele>
        <time>2013-05-05T09:31:23Z</time>
      </trkpt>
      <trkpt lat="41.660859494" lon="2.592966443">
        <ele>611.54</ele>
        <time>2013-05-05T09:31:37Z</time>
      </trkpt>
      <trkpt lat="41.660860584" lon="2.592932748">
        <ele>611.54</ele>
        <time>2013-05-05T09:31:57Z</time>
      </trkpt>
      <trkpt lat="41.660865110" lon="2.592914559">
        <ele>611.54</ele>
        <time>2013-05-05T09:32:15Z</time>
      </trkpt>
      <trkpt lat="41.660871648" lon="2.592908440">
        <ele>611.54</ele>
        <time>2013-05-05T09:32:30Z</time>
      </trkpt>
      <trkpt lat="41.660850861" lon="2.592921432">
        <ele>611.54</ele>
        <time>2013-05-05T09:32:51Z</time>
      </trkpt>
      <trkpt lat="41.660842647" lon="2.592944147">
        <ele>611.54</ele>
        <time>2013-05-05T09:33:10Z</time>
      </trkpt>
      <trkpt lat="41.660860249" lon="2.592953116">
        <ele>612.02</ele>
        <time>2013-05-05T09:33:28Z</time>
      </trkpt>
      <trkpt lat="41.660861841" lon="2.592955630">
        <ele>612.02</ele>
        <time>2013-05-05T09:33:42Z</time>
      </trkpt>
      <trkpt lat="41.660849269" lon="2.592951272">
        <ele>612.02</ele>
        <time>2013-05-05T09:34:03Z</time>
      </trkpt>
      <trkpt lat="41.660842060" lon="2.592943728">
        <ele>612.02</ele>
        <time>2013-05-05T09:34:20Z</time>
      </trkpt>
      <trkpt lat="41.660836612" lon="2.592927635">
        <ele>612.02</ele>
        <time>2013-05-05T09:34:38Z</time>
      </trkpt>
      <trkpt lat="41.660835606" lon="2.592913972">
        <ele>612.02</ele>
        <time>2013-05-05T09:34:51Z</time>
      </trkpt>
      <trkpt lat="41.660845161" lon="2.592886983">
        <ele>612.02</ele>
        <time>2013-05-05T09:35:14Z</time>
      </trkpt>
      <trkpt lat="41.660833594" lon="2.592887402">
        <ele>612.50</ele>
        <time>2013-05-05T09:35:29Z</time>
      </trkpt>
      <trkpt lat="41.660828817" lon="2.592910703">
        <ele>612.50</ele>
        <time>2013-05-05T09:35:47Z</time>
      </trkpt>
      <trkpt lat="41.660822698" lon="2.592928641">
        <ele>612.50</ele>
        <time>2013-05-05T09:35:59Z</time>
      </trkpt>
      <trkpt lat="41.660825296" lon="2.592961246">
        <ele>612.50</ele>
        <time>2013-05-05T09:36:15Z</time>
      </trkpt>
      <trkpt lat="41.660821021" lon="2.592980441">
        <ele>612.50</ele>
        <time>2013-05-05T09:36:32Z</time>
      </trkpt>
      <trkpt lat="41.660818926" lon="2.592973232">
        <ele>612.50</ele>
        <time>2013-05-05T09:36:52Z</time>
      </trkpt>
      <trkpt lat="41.660852454" lon="2.592949595">
        <ele>612.50</ele>
        <time>2013-05-05T09:37:17Z</time>
      </trkpt>
      <trkpt lat="41.660861003" lon="2.592943141">
        <ele>612.50</ele>
        <time>2013-05-05T09:37:41Z</time>
      </trkpt>
      <trkpt lat="41.660855639" lon="2.592938615">
        <ele>612.50</ele>
        <time>2013-05-05T09:38:02Z</time>
      </trkpt>
      <trkpt lat="41.660840216" lon="2.592948925">
        <ele>612.50</ele>
        <time>2013-05-05T09:38:22Z</time>
      </trkpt>
      <trkpt lat="41.660841725" lon="2.592953954">
        <ele>612.50</ele>
        <time>2013-05-05T09:38:48Z</time>
      </trkpt>
      <trkpt lat="41.660848346" lon="2.592958145">
        <ele>612.50</ele>
        <time>2013-05-05T09:39:08Z</time>
      </trkpt>
      <trkpt lat="41.660848179" lon="2.592968455">
        <ele>612.50</ele>
        <time>2013-05-05T09:39:21Z</time>
      </trkpt>
      <trkpt lat="41.660833008" lon="2.592980860">
        <ele>612.50</ele>
        <time>2013-05-05T09:39:38Z</time>
      </trkpt>
      <trkpt lat="41.660826805" lon="2.592982704">
        <ele>612.50</ele>
        <time>2013-05-05T09:39:55Z</time>
      </trkpt>
      <trkpt lat="41.660833091" lon="2.592975244">
        <ele>612.50</ele>
        <time>2013-05-05T09:40:15Z</time>
      </trkpt>
      <trkpt lat="41.660852035" lon="2.592974406">
        <ele>612.50</ele>
        <time>2013-05-05T09:40:32Z</time>
      </trkpt>
      <trkpt lat="41.660862093" lon="2.592968371">
        <ele>612.50</ele>
        <time>2013-05-05T09:40:51Z</time>
      </trkpt>
      <trkpt lat="41.660846922" lon="2.592971807">
        <ele>612.50</ele>
        <time>2013-05-05T09:41:10Z</time>
      </trkpt>
      <trkpt lat="41.660832421" lon="2.592980692">
        <ele>612.02</ele>
        <time>2013-05-05T09:41:30Z</time>
      </trkpt>
      <trkpt lat="41.660822866" lon="2.592969628">
        <ele>612.02</ele>
        <time>2013-05-05T09:41:52Z</time>
      </trkpt>
      <trkpt lat="41.660828398" lon="2.592963593">
        <ele>612.02</ele>
        <time>2013-05-05T09:42:10Z</time>
      </trkpt>
      <trkpt lat="41.660824207" lon="2.592961749">
        <ele>612.02</ele>
        <time>2013-05-05T09:42:28Z</time>
      </trkpt>
      <trkpt lat="41.660805766" lon="2.592969293">
        <ele>612.02</ele>
        <time>2013-05-05T09:42:38Z</time>
      </trkpt>
      <trkpt lat="41.660803084" lon="2.592977675">
        <ele>612.02</ele>
        <time>2013-05-05T09:42:46Z</time>
      </trkpt>
      <trkpt lat="41.660805180" lon="2.592973903">
        <ele>612.02</ele>
        <time>2013-05-05T09:43:01Z</time>
      </trkpt>
      <trkpt lat="41.660813394" lon="2.592987733">
        <ele>612.02</ele>
        <time>2013-05-05T09:43:14Z</time>
      </trkpt>
      <trkpt lat="41.660810376" lon="2.592990331">
        <ele>612.02</ele>
        <time>2013-05-05T09:43:20Z</time>
      </trkpt>
      <trkpt lat="41.660761929" lon="2.592835518">
        <ele>611.54</ele>
        <time>2013-05-05T09:43:28Z</time>
      </trkpt>
      <trkpt lat="41.660762767" lon="2.592816491">
        <ele>611.54</ele>
        <time>2013-05-05T09:43:29Z</time>
      </trkpt>
      <trkpt lat="41.660772406" lon="2.592686739">
        <ele>613.94</ele>
        <time>2013-05-05T09:43:37Z</time>
      </trkpt>
      <trkpt lat="41.660760756" lon="2.592581881">
        <ele>615.86</ele>
        <time>2013-05-05T09:43:45Z</time>
      </trkpt>
      <trkpt lat="41.660725384" lon="2.592447519">
        <ele>617.30</ele>
        <time>2013-05-05T09:43:53Z</time>
      </trkpt>
      <trkpt lat="41.660677104" lon="2.592333609">
        <ele>618.26</ele>
        <time>2013-05-05T09:44:01Z</time>
      </trkpt>
      <trkpt lat="41.660634105" lon="2.592229674">
        <ele>618.75</ele>
        <time>2013-05-05T09:44:08Z</time>
      </trkpt>
      <trkpt lat="41.660582975" lon="2.592131941">
        <ele>619.71</ele>
        <time>2013-05-05T09:44:14Z</time>
      </trkpt>
      <trkpt lat="41.660528745" lon="2.591978217">
        <ele>622.59</ele>
        <time>2013-05-05T09:44:24Z</time>
      </trkpt>
      <trkpt lat="41.660471915" lon="2.591797754">
        <ele>624.51</ele>
        <time>2013-05-05T09:44:34Z</time>
      </trkpt>
      <trkpt lat="41.660469401" lon="2.591777554">
        <ele>624.51</ele>
        <time>2013-05-05T09:44:35Z</time>
      </trkpt>
      <trkpt lat="41.660462025" lon="2.591713935">
        <ele>624.99</ele>
        <time>2013-05-05T09:44:38Z</time>
      </trkpt>
      <trkpt lat="41.660458001" lon="2.591543112">
        <ele>625.47</ele>
        <time>2013-05-05T09:44:48Z</time>
      </trkpt>
      <trkpt lat="41.660469568" lon="2.591387795">
        <ele>626.92</ele>
        <time>2013-05-05T09:44:57Z</time>
      </trkpt>
      <trkpt lat="41.660463366" lon="2.591336414">
        <ele>627.40</ele>
        <time>2013-05-05T09:45:00Z</time>
      </trkpt>
      <trkpt lat="41.660465210" lon="2.591299702">
        <ele>627.88</ele>
        <time>2013-05-05T09:45:02Z</time>
      </trkpt>
      <trkpt lat="41.660454984" lon="2.591187971">
        <ele>629.80</ele>
        <time>2013-05-05T09:45:09Z</time>
      </trkpt>
      <trkpt lat="41.660459342" lon="2.591107505">
        <ele>630.76</ele>
        <time>2013-05-05T09:45:14Z</time>
      </trkpt>
      <trkpt lat="41.660470323" lon="2.591061572">
        <ele>631.24</ele>
        <time>2013-05-05T09:45:17Z</time>
      </trkpt>
      <trkpt lat="41.660512316" lon="2.590931485">
        <ele>632.68</ele>
        <time>2013-05-05T09:45:26Z</time>
      </trkpt>
      <trkpt lat="41.660518351" lon="2.590869291">
        <ele>633.65</ele>
        <time>2013-05-05T09:45:30Z</time>
      </trkpt>
      <trkpt lat="41.660519441" lon="2.590783628">
        <ele>636.05</ele>
        <time>2013-05-05T09:45:37Z</time>
      </trkpt>
      <trkpt lat="41.660512651" lon="2.590769211">
        <ele>635.57</ele>
        <time>2013-05-05T09:45:45Z</time>
      </trkpt>
      <trkpt lat="41.660507035" lon="2.590736438">
        <ele>636.05</ele>
        <time>2013-05-05T09:45:54Z</time>
      </trkpt>
      <trkpt lat="41.660491445" lon="2.590657145">
        <ele>637.97</ele>
        <time>2013-05-05T09:46:04Z</time>
      </trkpt>
      <trkpt lat="41.660488930" lon="2.590634849">
        <ele>638.45</ele>
        <time>2013-05-05T09:46:12Z</time>
      </trkpt>
      <trkpt lat="41.660476106" lon="2.590556981">
        <ele>639.89</ele>
        <time>2013-05-05T09:46:19Z</time>
      </trkpt>
      <trkpt lat="41.660487506" lon="2.590426978">
        <ele>641.82</ele>
        <time>2013-05-05T09:46:28Z</time>
      </trkpt>
      <trkpt lat="41.660501420" lon="2.590317091">
        <ele>643.26</ele>
        <time>2013-05-05T09:46:35Z</time>
      </trkpt>
      <trkpt lat="41.660542407" lon="2.590170995">
        <ele>644.70</ele>
        <time>2013-05-05T09:46:44Z</time>
      </trkpt>
      <trkpt lat="41.660587585" lon="2.590070244">
        <ele>645.66</ele>
        <time>2013-05-05T09:46:51Z</time>
      </trkpt>
      <trkpt lat="41.660633351" lon="2.589957675">
        <ele>646.62</ele>
        <time>2013-05-05T09:47:00Z</time>
      </trkpt>
      <trkpt lat="41.660646175" lon="2.589801436">
        <ele>648.07</ele>
        <time>2013-05-05T09:47:10Z</time>
      </trkpt>
      <trkpt lat="41.660661179" lon="2.589631535">
        <ele>650.47</ele>
        <time>2013-05-05T09:47:21Z</time>
      </trkpt>
      <trkpt lat="41.660664448" lon="2.589542687">
        <ele>651.91</ele>
        <time>2013-05-05T09:47:29Z</time>
      </trkpt>
      <trkpt lat="41.660662604" lon="2.589413019">
        <ele>653.35</ele>
        <time>2013-05-05T09:47:37Z</time>
      </trkpt>
      <trkpt lat="41.660655730" lon="2.589284441">
        <ele>655.28</ele>
        <time>2013-05-05T09:47:44Z</time>
      </trkpt>
      <trkpt lat="41.660652378" lon="2.589186121">
        <ele>656.72</ele>
        <time>2013-05-05T09:47:52Z</time>
      </trkpt>
      <trkpt lat="41.660654976" lon="2.589080090">
        <ele>658.64</ele>
        <time>2013-05-05T09:48:00Z</time>
      </trkpt>
      <trkpt lat="41.660640391" lon="2.588974813">
        <ele>660.56</ele>
        <time>2013-05-05T09:48:10Z</time>
      </trkpt>
      <trkpt lat="41.660622957" lon="2.588868950">
        <ele>662.97</ele>
        <time>2013-05-05T09:48:19Z</time>
      </trkpt>
      <trkpt lat="41.660602673" lon="2.588752022">
        <ele>664.41</ele>
        <time>2013-05-05T09:48:28Z</time>
      </trkpt>
      <trkpt lat="41.660593788" lon="2.588618079">
        <ele>666.33</ele>
        <time>2013-05-05T09:48:37Z</time>
      </trkpt>
      <trkpt lat="41.660547269" lon="2.588538367">
        <ele>667.77</ele>
        <time>2013-05-05T09:48:46Z</time>
      </trkpt>
      <trkpt lat="41.660477196" lon="2.588477682">
        <ele>670.66</ele>
        <time>2013-05-05T09:48:57Z</time>
      </trkpt>
      <trkpt lat="41.660402178" lon="2.588457482">
        <ele>672.10</ele>
        <time>2013-05-05T09:49:06Z</time>
      </trkpt>
      <trkpt lat="41.660347528" lon="2.588452201">
        <ele>673.54</ele>
        <time>2013-05-05T09:49:13Z</time>
      </trkpt>
      <trkpt lat="41.660290196" lon="2.588434851">
        <ele>673.54</ele>
        <time>2013-05-05T09:49:22Z</time>
      </trkpt>
      <trkpt lat="41.660256333" lon="2.588367293">
        <ele>675.46</ele>
        <time>2013-05-05T09:49:30Z</time>
      </trkpt>
      <trkpt lat="41.660264295" lon="2.588239133">
        <ele>675.94</ele>
        <time>2013-05-05T09:49:39Z</time>
      </trkpt>
      <trkpt lat="41.660291453" lon="2.588069316">
        <ele>675.94</ele>
        <time>2013-05-05T09:49:48Z</time>
      </trkpt>
      <trkpt lat="41.660318694" lon="2.587914921">
        <ele>676.91</ele>
        <time>2013-05-05T09:49:56Z</time>
      </trkpt>
      <trkpt lat="41.660307295" lon="2.587811824">
        <ele>677.39</ele>
        <time>2013-05-05T09:50:02Z</time>
      </trkpt>
      <trkpt lat="41.660295392" lon="2.587732950">
        <ele>677.39</ele>
        <time>2013-05-05T09:50:06Z</time>
      </trkpt>
      <trkpt lat="41.660303439" lon="2.587658100">
        <ele>677.87</ele>
        <time>2013-05-05T09:50:10Z</time>
      </trkpt>
      <trkpt lat="41.660344762" lon="2.587494150">
        <ele>679.31</ele>
        <time>2013-05-05T09:50:19Z</time>
      </trkpt>
      <trkpt lat="41.660369069" lon="2.587328943">
        <ele>680.27</ele>
        <time>2013-05-05T09:50:28Z</time>
      </trkpt>
      <trkpt lat="41.660395975" lon="2.587176308">
        <ele>681.71</ele>
        <time>2013-05-05T09:50:37Z</time>
      </trkpt>
      <trkpt lat="41.660406955" lon="2.586991487">
        <ele>683.15</ele>
        <time>2013-05-05T09:50:46Z</time>
      </trkpt>
      <trkpt lat="41.660406704" lon="2.586841032">
        <ele>684.12</ele>
        <time>2013-05-05T09:50:54Z</time>
      </trkpt>
      <trkpt lat="41.660411230" lon="2.586786717">
        <ele>684.60</ele>
        <time>2013-05-05T09:50:57Z</time>
      </trkpt>
      <trkpt lat="41.660422127" lon="2.586674567">
        <ele>685.08</ele>
        <time>2013-05-05T09:51:04Z</time>
      </trkpt>
      <trkpt lat="41.660423049" lon="2.586636933">
        <ele>685.08</ele>
        <time>2013-05-05T09:51:06Z</time>
      </trkpt>
      <trkpt lat="41.660424809" lon="2.586571554">
        <ele>685.56</ele>
        <time>2013-05-05T09:51:09Z</time>
      </trkpt>
      <trkpt lat="41.660435622" lon="2.586322611">
        <ele>686.52</ele>
        <time>2013-05-05T09:51:20Z</time>
      </trkpt>
      <trkpt lat="41.660448446" lon="2.586161427">
        <ele>688.44</ele>
        <time>2013-05-05T09:51:29Z</time>
      </trkpt>
      <trkpt lat="41.660463366" lon="2.586014828">
        <ele>689.40</ele>
        <time>2013-05-05T09:51:38Z</time>
      </trkpt>
      <trkpt lat="41.660452721" lon="2.585868396">
        <ele>690.36</ele>
        <time>2013-05-05T09:51:46Z</time>
      </trkpt>
      <trkpt lat="41.660424055" lon="2.585726909">
        <ele>691.81</ele>
        <time>2013-05-05T09:51:54Z</time>
      </trkpt>
      <trkpt lat="41.660400837" lon="2.585591123">
        <ele>693.25</ele>
        <time>2013-05-05T09:52:01Z</time>
      </trkpt>
      <trkpt lat="41.660372757" lon="2.585430861">
        <ele>695.17</ele>
        <time>2013-05-05T09:52:09Z</time>
      </trkpt>
      <trkpt lat="41.660354485" lon="2.585284848">
        <ele>696.61</ele>
        <time>2013-05-05T09:52:17Z</time>
      </trkpt>
      <trkpt lat="41.660350126" lon="2.585136153">
        <ele>698.05</ele>
        <time>2013-05-05T09:52:25Z</time>
      </trkpt>
      <trkpt lat="41.660349959" lon="2.585119305">
        <ele>698.05</ele>
        <time>2013-05-05T09:52:26Z</time>
      </trkpt>
      <trkpt lat="41.660298661" lon="2.584898275">
        <ele>699.02</ele>
        <time>2013-05-05T09:52:37Z</time>
      </trkpt>
      <trkpt lat="41.660245939" lon="2.584722338">
        <ele>699.98</ele>
        <time>2013-05-05T09:52:47Z</time>
      </trkpt>
      <trkpt lat="41.660194810" lon="2.584563250">
        <ele>701.42</ele>
        <time>2013-05-05T09:52:56Z</time>
      </trkpt>
      <trkpt lat="41.660178884" lon="2.584392510">
        <ele>701.90</ele>
        <time>2013-05-05T09:53:04Z</time>
      </trkpt>
      <trkpt lat="41.660178632" lon="2.584372142">
        <ele>701.90</ele>
        <time>2013-05-05T09:53:05Z</time>
      </trkpt>
      <trkpt lat="41.660141752" lon="2.584174916">
        <ele>702.86</ele>
        <time>2013-05-05T09:53:15Z</time>
      </trkpt>
      <trkpt lat="41.660125491" lon="2.584112471">
        <ele>702.86</ele>
        <time>2013-05-05T09:53:22Z</time>
      </trkpt>
      <trkpt lat="41.660119875" lon="2.584112555">
        <ele>702.86</ele>
        <time>2013-05-05T09:53:31Z</time>
      </trkpt>
      <trkpt lat="41.660112164" lon="2.584109873">
        <ele>703.34</ele>
        <time>2013-05-05T09:53:35Z</time>
      </trkpt>
      <trkpt lat="41.660141165" lon="2.584224956">
        <ele>703.34</ele>
        <time>2013-05-05T09:53:42Z</time>
      </trkpt>
      <trkpt lat="41.660161952" lon="2.584216910">
        <ele>701.42</ele>
        <time>2013-05-05T09:53:44Z</time>
      </trkpt>
      <trkpt lat="41.660191373" lon="2.584097551">
        <ele>701.42</ele>
        <time>2013-05-05T09:53:50Z</time>
      </trkpt>
      <trkpt lat="41.660236132" lon="2.583999232">
        <ele>700.94</ele>
        <time>2013-05-05T09:53:55Z</time>
      </trkpt>
      <trkpt lat="41.660304361" lon="2.583894206">
        <ele>700.46</ele>
        <time>2013-05-05T09:54:01Z</time>
      </trkpt>
      <trkpt lat="41.660400334" lon="2.583771244">
        <ele>700.46</ele>
        <time>2013-05-05T09:54:08Z</time>
      </trkpt>
      <trkpt lat="41.660430341" lon="2.583729334">
        <ele>700.46</ele>
        <time>2013-05-05T09:54:15Z</time>
      </trkpt>
      <trkpt lat="41.660494463" lon="2.583630093">
        <ele>700.46</ele>
        <time>2013-05-05T09:54:21Z</time>
      </trkpt>
      <trkpt lat="41.660514495" lon="2.583599163">
        <ele>700.46</ele>
        <time>2013-05-05T09:54:23Z</time>
      </trkpt>
      <trkpt lat="41.660648187" lon="2.583522804">
        <ele>700.94</ele>
        <time>2013-05-05T09:54:32Z</time>
      </trkpt>
      <trkpt lat="41.660690180" lon="2.583517775">
        <ele>700.94</ele>
        <time>2013-05-05T09:54:34Z</time>
      </trkpt>
      <trkpt lat="41.660811298" lon="2.583512327">
        <ele>700.94</ele>
        <time>2013-05-05T09:54:39Z</time>
      </trkpt>
      <trkpt lat="41.660952031" lon="2.583445020">
        <ele>700.94</ele>
        <time>2013-05-05T09:54:45Z</time>
      </trkpt>
      <trkpt lat="41.661075496" lon="2.583226755">
        <ele>700.94</ele>
        <time>2013-05-05T09:54:53Z</time>
      </trkpt>
      <trkpt lat="41.661124111" lon="2.583047634">
        <ele>700.94</ele>
        <time>2013-05-05T09:54:59Z</time>
      </trkpt>
      <trkpt lat="41.661178258" lon="2.582789304">
        <ele>702.86</ele>
        <time>2013-05-05T09:55:08Z</time>
      </trkpt>
      <trkpt lat="41.661201728" lon="2.582600795">
        <ele>703.34</ele>
        <time>2013-05-05T09:55:14Z</time>
      </trkpt>
      <trkpt lat="41.661230226" lon="2.582377417">
        <ele>704.30</ele>
        <time>2013-05-05T09:55:21Z</time>
      </trkpt>
      <trkpt lat="41.661247241" lon="2.582211120">
        <ele>704.78</ele>
        <time>2013-05-05T09:55:26Z</time>
      </trkpt>
      <trkpt lat="41.661260485" lon="2.582047422">
        <ele>704.78</ele>
        <time>2013-05-05T09:55:30Z</time>
      </trkpt>
      <trkpt lat="41.661316392" lon="2.581788253">
        <ele>704.78</ele>
        <time>2013-05-05T09:55:37Z</time>
      </trkpt>
      <trkpt lat="41.661364001" lon="2.581526319">
        <ele>703.82</ele>
        <time>2013-05-05T09:55:44Z</time>
      </trkpt>
      <trkpt lat="41.661388644" lon="2.581363961">
        <ele>703.82</ele>
        <time>2013-05-05T09:55:50Z</time>
      </trkpt>
      <trkpt lat="41.661413119" lon="2.581169753">
        <ele>705.26</ele>
        <time>2013-05-05T09:55:58Z</time>
      </trkpt>
      <trkpt lat="41.661456118" lon="2.580972191">
        <ele>706.71</ele>
        <time>2013-05-05T09:56:05Z</time>
      </trkpt>
      <trkpt lat="41.661495681" lon="2.580814779">
        <ele>709.11</ele>
        <time>2013-05-05T09:56:13Z</time>
      </trkpt>
      <trkpt lat="41.661529711" lon="2.580667425">
        <ele>711.51</ele>
        <time>2013-05-05T09:56:20Z</time>
      </trkpt>
      <trkpt lat="41.661552259" lon="2.580467684">
        <ele>712.47</ele>
        <time>2013-05-05T09:56:29Z</time>
      </trkpt>
      <trkpt lat="41.661617218" lon="2.580269117">
        <ele>713.92</ele>
        <time>2013-05-05T09:56:39Z</time>
      </trkpt>
      <trkpt lat="41.661641023" lon="2.580120003">
        <ele>715.84</ele>
        <time>2013-05-05T09:56:48Z</time>
      </trkpt>
      <trkpt lat="41.661656949" lon="2.579990251">
        <ele>716.32</ele>
        <time>2013-05-05T09:56:55Z</time>
      </trkpt>
      <trkpt lat="41.661646304" lon="2.579785397">
        <ele>717.28</ele>
        <time>2013-05-05T09:57:04Z</time>
      </trkpt>
      <trkpt lat="41.661636497" lon="2.579665871">
        <ele>717.76</ele>
        <time>2013-05-05T09:57:11Z</time>
      </trkpt>
      <trkpt lat="41.661610429" lon="2.579496473">
        <ele>719.68</ele>
        <time>2013-05-05T09:57:21Z</time>
      </trkpt>
      <trkpt lat="41.661599365" lon="2.579412570">
        <ele>720.65</ele>
        <time>2013-05-05T09:57:26Z</time>
      </trkpt>
      <trkpt lat="41.661588720" lon="2.579281980">
        <ele>721.61</ele>
        <time>2013-05-05T09:57:33Z</time>
      </trkpt>
      <trkpt lat="41.661583439" lon="2.579151223">
        <ele>723.05</ele>
        <time>2013-05-05T09:57:42Z</time>
      </trkpt>
      <trkpt lat="41.661591318" lon="2.579007473">
        <ele>725.45</ele>
        <time>2013-05-05T09:57:51Z</time>
      </trkpt>
      <trkpt lat="41.661601460" lon="2.578885181">
        <ele>727.37</ele>
        <time>2013-05-05T09:57:59Z</time>
      </trkpt>
      <trkpt lat="41.661609507" lon="2.578777641">
        <ele>728.82</ele>
        <time>2013-05-05T09:58:06Z</time>
      </trkpt>
      <trkpt lat="41.661591989" lon="2.578592569">
        <ele>731.22</ele>
        <time>2013-05-05T09:58:17Z</time>
      </trkpt>
      <trkpt lat="41.661581847" lon="2.578464158">
        <ele>732.66</ele>
        <time>2013-05-05T09:58:26Z</time>
      </trkpt>
      <trkpt lat="41.661561311" lon="2.578337675">
        <ele>734.58</ele>
        <time>2013-05-05T09:58:34Z</time>
      </trkpt>
      <trkpt lat="41.661526442" lon="2.578229213">
        <ele>736.51</ele>
        <time>2013-05-05T09:58:42Z</time>
      </trkpt>
      <trkpt lat="41.661487131" lon="2.578116477">
        <ele>739.39</ele>
        <time>2013-05-05T09:58:52Z</time>
      </trkpt>
      <trkpt lat="41.661461986" lon="2.577956466">
        <ele>740.83</ele>
        <time>2013-05-05T09:59:02Z</time>
      </trkpt>
      <trkpt lat="41.661460645" lon="2.577839874">
        <ele>741.31</ele>
        <time>2013-05-05T09:59:10Z</time>
      </trkpt>
      <trkpt lat="41.661456956" lon="2.577673745">
        <ele>742.76</ele>
        <time>2013-05-05T09:59:20Z</time>
      </trkpt>
      <trkpt lat="41.661460393" lon="2.577553129">
        <ele>744.68</ele>
        <time>2013-05-05T09:59:29Z</time>
      </trkpt>
      <trkpt lat="41.661477995" lon="2.577443577">
        <ele>745.64</ele>
        <time>2013-05-05T09:59:37Z</time>
      </trkpt>
      <trkpt lat="41.661506158" lon="2.577297565">
        <ele>747.08</ele>
        <time>2013-05-05T09:59:47Z</time>
      </trkpt>
      <trkpt lat="41.661543374" lon="2.577194635">
        <ele>748.52</ele>
        <time>2013-05-05T09:59:54Z</time>
      </trkpt>
      <trkpt lat="41.661588217" lon="2.577062620">
        <ele>750.45</ele>
        <time>2013-05-05T10:00:02Z</time>
      </trkpt>
      <trkpt lat="41.661622834" lon="2.576922642">
        <ele>752.37</ele>
        <time>2013-05-05T10:00:11Z</time>
      </trkpt>
      <trkpt lat="41.661628785" lon="2.576781826">
        <ele>753.81</ele>
        <time>2013-05-05T10:00:21Z</time>
      </trkpt>
      <trkpt lat="41.661619733" lon="2.576713681">
        <ele>754.29</ele>
        <time>2013-05-05T10:00:26Z</time>
      </trkpt>
      <trkpt lat="41.661586876" lon="2.576604130">
        <ele>754.77</ele>
        <time>2013-05-05T10:00:33Z</time>
      </trkpt>
      <trkpt lat="41.661509762" lon="2.576583091">
        <ele>756.69</ele>
        <time>2013-05-05T10:00:40Z</time>
      </trkpt>
      <trkpt lat="41.661498112" lon="2.576634389">
        <ele>756.69</ele>
        <time>2013-05-05T10:00:47Z</time>
      </trkpt>
      <trkpt lat="41.661503979" lon="2.576628186">
        <ele>756.69</ele>
        <time>2013-05-05T10:00:55Z</time>
      </trkpt>
      <trkpt lat="41.661501883" lon="2.576676633">
        <ele>757.18</ele>
        <time>2013-05-05T10:01:09Z</time>
      </trkpt>
      <trkpt lat="41.661512948" lon="2.576648303">
        <ele>757.18</ele>
        <time>2013-05-05T10:01:35Z</time>
      </trkpt>
      <trkpt lat="41.661513367" lon="2.576626258">
        <ele>757.18</ele>
        <time>2013-05-05T10:01:57Z</time>
      </trkpt>
      <trkpt lat="41.661499034" lon="2.576623744">
        <ele>757.18</ele>
        <time>2013-05-05T10:02:14Z</time>
      </trkpt>
      <trkpt lat="41.661486964" lon="2.576642100">
        <ele>757.18</ele>
        <time>2013-05-05T10:02:37Z</time>
      </trkpt>
      <trkpt lat="41.661501129" lon="2.576648051">
        <ele>757.18</ele>
        <time>2013-05-05T10:02:56Z</time>
      </trkpt>
      <trkpt lat="41.661529041" lon="2.576642519">
        <ele>757.18</ele>
        <time>2013-05-05T10:03:16Z</time>
      </trkpt>
      <trkpt lat="41.661551421" lon="2.576656433">
        <ele>757.18</ele>
        <time>2013-05-05T10:03:35Z</time>
      </trkpt>
      <trkpt lat="41.661547565" lon="2.576650063">
        <ele>756.69</ele>
        <time>2013-05-05T10:03:53Z</time>
      </trkpt>
      <trkpt lat="41.661550499" lon="2.576618044">
        <ele>756.69</ele>
        <time>2013-05-05T10:04:11Z</time>
      </trkpt>
      <trkpt lat="41.661549241" lon="2.576636903">
        <ele>756.69</ele>
        <time>2013-05-05T10:04:27Z</time>
      </trkpt>
      <trkpt lat="41.661541027" lon="2.576647381">
        <ele>756.69</ele>
        <time>2013-05-05T10:04:49Z</time>
      </trkpt>
      <trkpt lat="41.661500375" lon="2.576652410">
        <ele>756.69</ele>
        <time>2013-05-05T10:05:12Z</time>
      </trkpt>
      <trkpt lat="41.661470954" lon="2.576675208">
        <ele>757.18</ele>
        <time>2013-05-05T10:05:38Z</time>
      </trkpt>
      <trkpt lat="41.661474056" lon="2.576675292">
        <ele>757.18</ele>
        <time>2013-05-05T10:05:53Z</time>
      </trkpt>
      <trkpt lat="41.661483611" lon="2.576686943">
        <ele>757.18</ele>
        <time>2013-05-05T10:06:12Z</time>
      </trkpt>
      <trkpt lat="41.661504566" lon="2.576669593">
        <ele>757.18</ele>
        <time>2013-05-05T10:06:34Z</time>
      </trkpt>
      <trkpt lat="41.661511523" lon="2.576676633">
        <ele>757.18</ele>
        <time>2013-05-05T10:06:56Z</time>
      </trkpt>
      <trkpt lat="41.661493837" lon="2.576708820">
        <ele>757.18</ele>
        <time>2013-05-05T10:07:12Z</time>
      </trkpt>
      <trkpt lat="41.661475061" lon="2.576706305">
        <ele>757.18</ele>
        <time>2013-05-05T10:07:27Z</time>
      </trkpt>
      <trkpt lat="41.661477325" lon="2.576695157">
        <ele>757.18</ele>
        <time>2013-05-05T10:07:43Z</time>
      </trkpt>
      <trkpt lat="41.661484784" lon="2.576695409">
        <ele>757.18</ele>
        <time>2013-05-05T10:08:00Z</time>
      </trkpt>
      <trkpt lat="41.661500710" lon="2.576666659">
        <ele>757.18</ele>
        <time>2013-05-05T10:08:20Z</time>
      </trkpt>
      <trkpt lat="41.661518983" lon="2.576673113">
        <ele>757.66</ele>
        <time>2013-05-05T10:08:43Z</time>
      </trkpt>
      <trkpt lat="41.661488892" lon="2.576668754">
        <ele>757.66</ele>
        <time>2013-05-05T10:09:09Z</time>
      </trkpt>
      <trkpt lat="41.661481096" lon="2.576682752">
        <ele>757.66</ele>
        <time>2013-05-05T10:09:29Z</time>
      </trkpt>
      <trkpt lat="41.661511858" lon="2.576686189">
        <ele>757.66</ele>
        <time>2013-05-05T10:09:52Z</time>
      </trkpt>
      <trkpt lat="41.661527448" lon="2.576672359">
        <ele>757.66</ele>
        <time>2013-05-05T10:10:13Z</time>
      </trkpt>
      <trkpt lat="41.661537339" lon="2.576656181">
        <ele>757.66</ele>
        <time>2013-05-05T10:10:33Z</time>
      </trkpt>
      <trkpt lat="41.661546475" lon="2.576668251">
        <ele>757.66</ele>
        <time>2013-05-05T10:10:52Z</time>
      </trkpt>
      <trkpt lat="41.661514875" lon="2.576653164">
        <ele>757.66</ele>
        <time>2013-05-05T10:11:10Z</time>
      </trkpt>
      <trkpt lat="41.661497190" lon="2.576677052">
        <ele>757.66</ele>
        <time>2013-05-05T10:11:33Z</time>
      </trkpt>
      <trkpt lat="41.661503811" lon="2.576626593">
        <ele>758.14</ele>
        <time>2013-05-05T10:12:01Z</time>
      </trkpt>
      <trkpt lat="41.661500961" lon="2.576641094">
        <ele>758.14</ele>
        <time>2013-05-05T10:12:24Z</time>
      </trkpt>
      <trkpt lat="41.661482270" lon="2.576691553">
        <ele>758.14</ele>
        <time>2013-05-05T10:12:46Z</time>
      </trkpt>
      <trkpt lat="41.661522587" lon="2.576676466">
        <ele>758.14</ele>
        <time>2013-05-05T10:13:18Z</time>
      </trkpt>
      <trkpt lat="41.661528203" lon="2.576669593">
        <ele>758.14</ele>
        <time>2013-05-05T10:13:40Z</time>
      </trkpt>
      <trkpt lat="41.661519485" lon="2.576669844">
        <ele>758.14</ele>
        <time>2013-05-05T10:14:07Z</time>
      </trkpt>
      <trkpt lat="41.661489897" lon="2.576694654">
        <ele>758.14</ele>
        <time>2013-05-05T10:14:31Z</time>
      </trkpt>
      <trkpt lat="41.661465506" lon="2.576668838">
        <ele>758.62</ele>
        <time>2013-05-05T10:14:54Z</time>
      </trkpt>
      <trkpt lat="41.661453771" lon="2.576675292">
        <ele>758.62</ele>
        <time>2013-05-05T10:15:19Z</time>
      </trkpt>
      <trkpt lat="41.661470200" lon="2.576675628">
        <ele>758.62</ele>
        <time>2013-05-05T10:15:34Z</time>
      </trkpt>
      <trkpt lat="41.661457040" lon="2.576687446">
        <ele>758.62</ele>
        <time>2013-05-05T10:16:00Z</time>
      </trkpt>
      <trkpt lat="41.661468104" lon="2.576705132">
        <ele>758.62</ele>
        <time>2013-05-05T10:16:21Z</time>
      </trkpt>
      <trkpt lat="41.661470284" lon="2.576700186">
        <ele>758.62</ele>
        <time>2013-05-05T10:16:34Z</time>
      </trkpt>
      <trkpt lat="41.661476402" lon="2.576703036">
        <ele>758.62</ele>
        <time>2013-05-05T10:16:53Z</time>
      </trkpt>
      <trkpt lat="41.661482102" lon="2.576672694">
        <ele>758.62</ele>
        <time>2013-05-05T10:17:11Z</time>
      </trkpt>
      <trkpt lat="41.661532394" lon="2.576613015">
        <ele>758.62</ele>
        <time>2013-05-05T10:17:32Z</time>
      </trkpt>
      <trkpt lat="41.661501464" lon="2.576672023">
        <ele>758.62</ele>
        <time>2013-05-05T10:18:02Z</time>
      </trkpt>
      <trkpt lat="41.661496351" lon="2.576669425">
        <ele>758.62</ele>
        <time>2013-05-05T10:18:20Z</time>
      </trkpt>
      <trkpt lat="41.661486461" lon="2.576665402">
        <ele>758.62</ele>
        <time>2013-05-05T10:18:36Z</time>
      </trkpt>
      <trkpt lat="41.661494256" lon="2.576636233">
        <ele>758.62</ele>
        <time>2013-05-05T10:18:54Z</time>
      </trkpt>
      <trkpt lat="41.661508338" lon="2.576639418">
        <ele>758.62</ele>
        <time>2013-05-05T10:19:11Z</time>
      </trkpt>
      <trkpt lat="41.661503057" lon="2.576597257">
        <ele>758.62</ele>
        <time>2013-05-05T10:19:23Z</time>
      </trkpt>
      <trkpt lat="41.661497609" lon="2.576597341">
        <ele>758.62</ele>
        <time>2013-05-05T10:19:33Z</time>
      </trkpt>
      <trkpt lat="41.661477744" lon="2.576577895">
        <ele>758.62</ele>
        <time>2013-05-05T10:19:43Z</time>
      </trkpt>
      <trkpt lat="41.661471290" lon="2.576553922">
        <ele>758.62</ele>
        <time>2013-05-05T10:19:52Z</time>
      </trkpt>
      <trkpt lat="41.661489562" lon="2.576460213">
        <ele>758.62</ele>
        <time>2013-05-05T10:20:00Z</time>
      </trkpt>
      <trkpt lat="41.661474726" lon="2.576309506">
        <ele>758.62</ele>
        <time>2013-05-05T10:20:09Z</time>
      </trkpt>
      <trkpt lat="41.661442623" lon="2.576190399">
        <ele>757.18</ele>
        <time>2013-05-05T10:20:16Z</time>
      </trkpt>
      <trkpt lat="41.661384285" lon="2.576030053">
        <ele>755.73</ele>
        <time>2013-05-05T10:20:23Z</time>
      </trkpt>
      <trkpt lat="41.661301137" lon="2.575862415">
        <ele>755.25</ele>
        <time>2013-05-05T10:20:30Z</time>
      </trkpt>
      <trkpt lat="41.661217066" lon="2.575681450">
        <ele>754.29</ele>
        <time>2013-05-05T10:20:36Z</time>
      </trkpt>
      <trkpt lat="41.661195022" lon="2.575455893">
        <ele>754.29</ele>
        <time>2013-05-05T10:20:43Z</time>
      </trkpt>
      <trkpt lat="41.661161075" lon="2.575292194">
        <ele>754.29</ele>
        <time>2013-05-05T10:20:50Z</time>
      </trkpt>
      <trkpt lat="41.661126123" lon="2.575142745">
        <ele>754.29</ele>
        <time>2013-05-05T10:20:55Z</time>
      </trkpt>
      <trkpt lat="41.661037442" lon="2.574888857">
        <ele>752.37</ele>
        <time>2013-05-05T10:21:01Z</time>
      </trkpt>
      <trkpt lat="41.660980529" lon="2.574701522">
        <ele>751.41</ele>
        <time>2013-05-05T10:21:06Z</time>
      </trkpt>
      <trkpt lat="41.660907355" lon="2.574518461">
        <ele>752.85</ele>
        <time>2013-05-05T10:21:13Z</time>
      </trkpt>
      <trkpt lat="41.660852370" lon="2.574275134">
        <ele>751.41</ele>
        <time>2013-05-05T10:21:20Z</time>
      </trkpt>
      <trkpt lat="41.660830828" lon="2.574158291">
        <ele>750.93</ele>
        <time>2013-05-05T10:21:22Z</time>
      </trkpt>
      <trkpt lat="41.660817501" lon="2.574094253">
        <ele>750.93</ele>
        <time>2013-05-05T10:21:23Z</time>
      </trkpt>
      <trkpt lat="41.660819094" lon="2.573779177">
        <ele>750.45</ele>
        <time>2013-05-05T10:21:29Z</time>
      </trkpt>
      <trkpt lat="41.660835941" lon="2.573528474">
        <ele>748.52</ele>
        <time>2013-05-05T10:21:36Z</time>
      </trkpt>
      <trkpt lat="41.660817501" lon="2.573174674">
        <ele>746.60</ele>
        <time>2013-05-05T10:21:45Z</time>
      </trkpt>
      <trkpt lat="41.660764779" lon="2.572885331">
        <ele>744.68</ele>
        <time>2013-05-05T10:21:52Z</time>
      </trkpt>
      <trkpt lat="41.660793613" lon="2.572665809">
        <ele>744.20</ele>
        <time>2013-05-05T10:21:58Z</time>
      </trkpt>
      <trkpt lat="41.660806186" lon="2.572518539">
        <ele>744.20</ele>
        <time>2013-05-05T10:22:03Z</time>
      </trkpt>
      <trkpt lat="41.660818255" lon="2.572350565">
        <ele>745.64</ele>
        <time>2013-05-05T10:22:09Z</time>
      </trkpt>
      <trkpt lat="41.660840384" lon="2.572172031">
        <ele>746.60</ele>
        <time>2013-05-05T10:22:16Z</time>
      </trkpt>
      <trkpt lat="41.660841473" lon="2.572142778">
        <ele>746.60</ele>
        <time>2013-05-05T10:22:17Z</time>
      </trkpt>
      <trkpt lat="41.660913474" lon="2.571882185">
        <ele>746.60</ele>
        <time>2013-05-05T10:22:26Z</time>
      </trkpt>
      <trkpt lat="41.660973572" lon="2.571693760">
        <ele>748.04</ele>
        <time>2013-05-05T10:22:33Z</time>
      </trkpt>
      <trkpt lat="41.660998550" lon="2.571571551">
        <ele>749.00</ele>
        <time>2013-05-05T10:22:38Z</time>
      </trkpt>
      <trkpt lat="41.661118831" lon="2.571344150">
        <ele>747.08</ele>
        <time>2013-05-05T10:22:46Z</time>
      </trkpt>
      <trkpt lat="41.661244475" lon="2.571078947">
        <ele>744.68</ele>
        <time>2013-05-05T10:22:52Z</time>
      </trkpt>
      <trkpt lat="41.661277919" lon="2.570950871">
        <ele>743.24</ele>
        <time>2013-05-05T10:22:55Z</time>
      </trkpt>
      <trkpt lat="41.661226370" lon="2.570854060">
        <ele>741.31</ele>
        <time>2013-05-05T10:22:59Z</time>
      </trkpt>
      <trkpt lat="41.660974075" lon="2.570896305">
        <ele>737.47</ele>
        <time>2013-05-05T10:23:05Z</time>
      </trkpt>
      <trkpt lat="41.660875923" lon="2.570891695">
        <ele>736.99</ele>
        <time>2013-05-05T10:23:07Z</time>
      </trkpt>
      <trkpt lat="41.660680289" lon="2.570775857">
        <ele>735.07</ele>
        <time>2013-05-05T10:23:12Z</time>
      </trkpt>
      <trkpt lat="41.660596303" lon="2.570672508">
        <ele>733.14</ele>
        <time>2013-05-05T10:23:15Z</time>
      </trkpt>
      <trkpt lat="41.660519105" lon="2.570548540">
        <ele>729.78</ele>
        <time>2013-05-05T10:23:18Z</time>
      </trkpt>
      <trkpt lat="41.660495887" lon="2.570503865">
        <ele>728.82</ele>
        <time>2013-05-05T10:23:19Z</time>
      </trkpt>
      <trkpt lat="41.660440818" lon="2.570311751">
        <ele>726.41</ele>
        <time>2013-05-05T10:23:22Z</time>
      </trkpt>
      <trkpt lat="41.660452804" lon="2.569958789">
        <ele>724.97</ele>
        <time>2013-05-05T10:23:26Z</time>
      </trkpt>
      <trkpt lat="41.660502761" lon="2.569590069">
        <ele>724.49</ele>
        <time>2013-05-05T10:23:31Z</time>
      </trkpt>
      <trkpt lat="41.660509215" lon="2.569516812">
        <ele>725.93</ele>
        <time>2013-05-05T10:23:33Z</time>
      </trkpt>
      <trkpt lat="41.660527403" lon="2.569251524">
        <ele>727.37</ele>
        <time>2013-05-05T10:23:40Z</time>
      </trkpt>
      <trkpt lat="41.660542407" lon="2.568967546">
        <ele>728.82</ele>
        <time>2013-05-05T10:23:48Z</time>
      </trkpt>
      <trkpt lat="41.660542407" lon="2.568764033">
        <ele>727.37</ele>
        <time>2013-05-05T10:23:54Z</time>
      </trkpt>
      <trkpt lat="41.660502006" lon="2.568618523">
        <ele>725.45</ele>
        <time>2013-05-05T10:23:59Z</time>
      </trkpt>
      <trkpt lat="41.660424306" lon="2.568446610">
        <ele>721.61</ele>
        <time>2013-05-05T10:24:05Z</time>
      </trkpt>
      <trkpt lat="41.660367644" lon="2.568317110">
        <ele>718.72</ele>
        <time>2013-05-05T10:24:09Z</time>
      </trkpt>
      <trkpt lat="41.660360604" lon="2.568055762">
        <ele>715.36</ele>
        <time>2013-05-05T10:24:14Z</time>
      </trkpt>
      <trkpt lat="41.660446434" lon="2.567881083">
        <ele>712.47</ele>
        <time>2013-05-05T10:24:19Z</time>
      </trkpt>
      <trkpt lat="41.660506281" lon="2.567747979">
        <ele>711.99</ele>
        <time>2013-05-05T10:24:25Z</time>
      </trkpt>
      <trkpt lat="41.660480968" lon="2.567636667">
        <ele>714.40</ele>
        <time>2013-05-05T10:24:32Z</time>
      </trkpt>
      <trkpt lat="41.660419864" lon="2.567466430">
        <ele>717.28</ele>
        <time>2013-05-05T10:24:42Z</time>
      </trkpt>
      <trkpt lat="41.660378541" lon="2.567329973">
        <ele>718.72</ele>
        <time>2013-05-05T10:24:50Z</time>
      </trkpt>
      <trkpt lat="41.660332608" lon="2.567179015">
        <ele>716.32</ele>
        <time>2013-05-05T10:24:57Z</time>
      </trkpt>
      <trkpt lat="41.660244849" lon="2.567021771">
        <ele>713.44</ele>
        <time>2013-05-05T10:25:02Z</time>
      </trkpt>
      <trkpt lat="41.660190199" lon="2.566957733">
        <ele>711.51</ele>
        <time>2013-05-05T10:25:04Z</time>
      </trkpt>
      <trkpt lat="41.659987022" lon="2.566837201">
        <ele>706.71</ele>
        <time>2013-05-05T10:25:08Z</time>
      </trkpt>
      <trkpt lat="41.659817624" lon="2.566730667">
        <ele>703.82</ele>
        <time>2013-05-05T10:25:11Z</time>
      </trkpt>
      <trkpt lat="41.659697679" lon="2.566630671">
        <ele>700.94</ele>
        <time>2013-05-05T10:25:13Z</time>
      </trkpt>
      <trkpt lat="41.659411940" lon="2.566359684">
        <ele>697.57</ele>
        <time>2013-05-05T10:25:18Z</time>
      </trkpt>
      <trkpt lat="41.659309764" lon="2.566230267">
        <ele>695.65</ele>
        <time>2013-05-05T10:25:20Z</time>
      </trkpt>
      <trkpt lat="41.659191244" lon="2.566100348">
        <ele>695.65</ele>
        <time>2013-05-05T10:25:22Z</time>
      </trkpt>
      <trkpt lat="41.659050261" lon="2.565891974">
        <ele>695.65</ele>
        <time>2013-05-05T10:25:27Z</time>
      </trkpt>
      <trkpt lat="41.659027546" lon="2.565632722">
        <ele>697.09</ele>
        <time>2013-05-05T10:25:35Z</time>
      </trkpt>
      <trkpt lat="41.659079262" lon="2.565476315">
        <ele>699.02</ele>
        <time>2013-05-05T10:25:42Z</time>
      </trkpt>
      <trkpt lat="41.659172050" lon="2.565278586">
        <ele>698.53</ele>
        <time>2013-05-05T10:25:50Z</time>
      </trkpt>
      <trkpt lat="41.659246816" lon="2.565105751">
        <ele>699.50</ele>
        <time>2013-05-05T10:25:57Z</time>
      </trkpt>
      <trkpt lat="41.659253103" lon="2.565076498">
        <ele>699.50</ele>
        <time>2013-05-05T10:25:58Z</time>
      </trkpt>
      <trkpt lat="41.659236758" lon="2.564977592">
        <ele>700.46</ele>
        <time>2013-05-05T10:26:02Z</time>
      </trkpt>
      <trkpt lat="41.659144138" lon="2.564871393">
        <ele>702.86</ele>
        <time>2013-05-05T10:26:11Z</time>
      </trkpt>
      <trkpt lat="41.659108263" lon="2.564799560">
        <ele>704.30</ele>
        <time>2013-05-05T10:26:16Z</time>
      </trkpt>
      <trkpt lat="41.659032659" lon="2.564685483">
        <ele>706.23</ele>
        <time>2013-05-05T10:26:24Z</time>
      </trkpt>
      <trkpt lat="41.658972393" lon="2.564617589">
        <ele>708.63</ele>
        <time>2013-05-05T10:26:31Z</time>
      </trkpt>
      <trkpt lat="41.658917994" lon="2.564549361">
        <ele>711.03</ele>
        <time>2013-05-05T10:26:38Z</time>
      </trkpt>
      <trkpt lat="41.658846664" lon="2.564463781">
        <ele>711.99</ele>
        <time>2013-05-05T10:26:47Z</time>
      </trkpt>
      <trkpt lat="41.658835768" lon="2.564437630">
        <ele>711.99</ele>
        <time>2013-05-05T10:26:49Z</time>
      </trkpt>
      <trkpt lat="41.658826631" lon="2.564395134">
        <ele>711.99</ele>
        <time>2013-05-05T10:26:52Z</time>
      </trkpt>
      <trkpt lat="41.658745830" lon="2.564228585">
        <ele>711.99</ele>
        <time>2013-05-05T10:26:59Z</time>
      </trkpt>
      <trkpt lat="41.658722780" lon="2.564189861">
        <ele>710.07</ele>
        <time>2013-05-05T10:27:00Z</time>
      </trkpt>
      <trkpt lat="41.658665783" lon="2.563932620">
        <ele>708.15</ele>
        <time>2013-05-05T10:27:04Z</time>
      </trkpt>
      <trkpt lat="41.658655389" lon="2.563863805">
        <ele>707.67</ele>
        <time>2013-05-05T10:27:05Z</time>
      </trkpt>
      <trkpt lat="41.658630076" lon="2.563733718">
        <ele>707.67</ele>
        <time>2013-05-05T10:27:07Z</time>
      </trkpt>
      <trkpt lat="41.658550867" lon="2.563486116">
        <ele>707.19</ele>
        <time>2013-05-05T10:27:11Z</time>
      </trkpt>
      <trkpt lat="41.658273845" lon="2.563007007">
        <ele>704.78</ele>
        <time>2013-05-05T10:27:19Z</time>
      </trkpt>
      <trkpt lat="41.658105033" lon="2.562783629">
        <ele>704.30</ele>
        <time>2013-05-05T10:27:25Z</time>
      </trkpt>
      <trkpt lat="41.657982490" lon="2.562633090">
        <ele>707.19</ele>
        <time>2013-05-05T10:27:33Z</time>
      </trkpt>
      <trkpt lat="41.657824910" lon="2.562507780">
        <ele>709.59</ele>
        <time>2013-05-05T10:27:41Z</time>
      </trkpt>
      <trkpt lat="41.657673365" lon="2.562421950">
        <ele>710.55</ele>
        <time>2013-05-05T10:27:49Z</time>
      </trkpt>
      <trkpt lat="41.657540764" lon="2.562372748">
        <ele>711.99</ele>
        <time>2013-05-05T10:27:57Z</time>
      </trkpt>
      <trkpt lat="41.657422746" lon="2.562280379">
        <ele>713.44</ele>
        <time>2013-05-05T10:28:05Z</time>
      </trkpt>
      <trkpt lat="41.657395254" lon="2.562087763">
        <ele>714.40</ele>
        <time>2013-05-05T10:28:14Z</time>
      </trkpt>
      <trkpt lat="41.657391566" lon="2.561893387">
        <ele>714.40</ele>
        <time>2013-05-05T10:28:20Z</time>
      </trkpt>
      <trkpt lat="41.657365498" lon="2.561679732">
        <ele>715.36</ele>
        <time>2013-05-05T10:28:28Z</time>
      </trkpt>
      <trkpt lat="41.657374970" lon="2.561506562">
        <ele>716.32</ele>
        <time>2013-05-05T10:28:35Z</time>
      </trkpt>
      <trkpt lat="41.657420400" lon="2.561317550">
        <ele>718.24</ele>
        <time>2013-05-05T10:28:43Z</time>
      </trkpt>
      <trkpt lat="41.657457699" lon="2.561263235">
        <ele>718.72</ele>
        <time>2013-05-05T10:28:46Z</time>
      </trkpt>
      <trkpt lat="41.657578231" lon="2.561127868">
        <ele>720.16</ele>
        <time>2013-05-05T10:28:55Z</time>
      </trkpt>
      <trkpt lat="41.657724746" lon="2.561037092">
        <ele>720.65</ele>
        <time>2013-05-05T10:29:03Z</time>
      </trkpt>
      <trkpt lat="41.657867658" lon="2.560934330">
        <ele>722.09</ele>
        <time>2013-05-05T10:29:12Z</time>
      </trkpt>
      <trkpt lat="41.658026076" lon="2.560852606">
        <ele>723.05</ele>
        <time>2013-05-05T10:29:21Z</time>
      </trkpt>
      <trkpt lat="41.658190696" lon="2.560752861">
        <ele>724.01</ele>
        <time>2013-05-05T10:29:30Z</time>
      </trkpt>
      <trkpt lat="41.658318940" lon="2.560673149">
        <ele>724.97</ele>
        <time>2013-05-05T10:29:37Z</time>
      </trkpt>
      <trkpt lat="41.658502168" lon="2.560604166">
        <ele>726.41</ele>
        <time>2013-05-05T10:29:47Z</time>
      </trkpt>
      <trkpt lat="41.658656898" lon="2.560499560">
        <ele>727.86</ele>
        <time>2013-05-05T10:29:56Z</time>
      </trkpt>
      <trkpt lat="41.658743734" lon="2.560404342">
        <ele>729.78</ele>
        <time>2013-05-05T10:30:03Z</time>
      </trkpt>
      <trkpt lat="41.658835265" lon="2.560315326">
        <ele>730.26</ele>
        <time>2013-05-05T10:30:10Z</time>
      </trkpt>
      <trkpt lat="41.658955461" lon="2.560192699">
        <ele>730.26</ele>
        <time>2013-05-05T10:30:18Z</time>
      </trkpt>
      <trkpt lat="41.659055374" lon="2.560012572">
        <ele>730.26</ele>
        <time>2013-05-05T10:30:25Z</time>
      </trkpt>
      <trkpt lat="41.659150005" lon="2.559835043">
        <ele>730.26</ele>
        <time>2013-05-05T10:30:33Z</time>
      </trkpt>
      <trkpt lat="41.659217480" lon="2.559720965">
        <ele>728.82</ele>
        <time>2013-05-05T10:30:36Z</time>
      </trkpt>
      <trkpt lat="41.659311022" lon="2.559510915">
        <ele>728.34</ele>
        <time>2013-05-05T10:30:40Z</time>
      </trkpt>
      <trkpt lat="41.659369611" lon="2.559375631">
        <ele>726.89</ele>
        <time>2013-05-05T10:30:43Z</time>
      </trkpt>
      <trkpt lat="41.659428620" lon="2.559113361">
        <ele>726.89</ele>
        <time>2013-05-05T10:30:50Z</time>
      </trkpt>
      <trkpt lat="41.659519563" lon="2.558907418">
        <ele>724.97</ele>
        <time>2013-05-05T10:30:57Z</time>
      </trkpt>
      <trkpt lat="41.659606148" lon="2.558833573">
        <ele>721.61</ele>
        <time>2013-05-05T10:31:01Z</time>
      </trkpt>
      <trkpt lat="41.659726177" lon="2.558773978">
        <ele>718.24</ele>
        <time>2013-05-05T10:31:05Z</time>
      </trkpt>
      <trkpt lat="41.659852912" lon="2.558704324">
        <ele>714.88</ele>
        <time>2013-05-05T10:31:09Z</time>
      </trkpt>
      <trkpt lat="41.660021053" lon="2.558606088">
        <ele>711.03</ele>
        <time>2013-05-05T10:31:13Z</time>
      </trkpt>
      <trkpt lat="41.660232947" lon="2.558526712">
        <ele>703.82</ele>
        <time>2013-05-05T10:31:18Z</time>
      </trkpt>
      <trkpt lat="41.660376362" lon="2.558500476">
        <ele>700.94</ele>
        <time>2013-05-05T10:31:21Z</time>
      </trkpt>
      <trkpt lat="41.660612480" lon="2.558467284">
        <ele>696.61</ele>
        <time>2013-05-05T10:31:26Z</time>
      </trkpt>
      <trkpt lat="41.660718762" lon="2.558430068">
        <ele>694.69</ele>
        <time>2013-05-05T10:31:28Z</time>
      </trkpt>
      <trkpt lat="41.660981703" lon="2.558386985">
        <ele>692.29</ele>
        <time>2013-05-05T10:31:32Z</time>
      </trkpt>
      <trkpt lat="41.661182030" lon="2.558364103">
        <ele>689.88</ele>
        <time>2013-05-05T10:31:37Z</time>
      </trkpt>
      <trkpt lat="41.661279428" lon="2.558302244">
        <ele>688.92</ele>
        <time>2013-05-05T10:31:41Z</time>
      </trkpt>
      <trkpt lat="41.661279595" lon="2.558205014">
        <ele>687.96</ele>
        <time>2013-05-05T10:31:47Z</time>
      </trkpt>
      <trkpt lat="41.661148838" lon="2.558145084">
        <ele>686.52</ele>
        <time>2013-05-05T10:31:53Z</time>
      </trkpt>
      <trkpt lat="41.661121680" lon="2.558131924">
        <ele>685.56</ele>
        <time>2013-05-05T10:31:54Z</time>
      </trkpt>
      <trkpt lat="41.660911378" lon="2.558044752">
        <ele>682.67</ele>
        <time>2013-05-05T10:32:00Z</time>
      </trkpt>
      <trkpt lat="41.660590184" lon="2.557893962">
        <ele>679.79</ele>
        <time>2013-05-05T10:32:07Z</time>
      </trkpt>
      <trkpt lat="41.660424557" lon="2.557776028">
        <ele>678.35</ele>
        <time>2013-05-05T10:32:11Z</time>
      </trkpt>
      <trkpt lat="41.660341744" lon="2.557592716">
        <ele>677.87</ele>
        <time>2013-05-05T10:32:16Z</time>
      </trkpt>
      <trkpt lat="41.660359430" lon="2.557563631">
        <ele>676.91</ele>
        <time>2013-05-05T10:32:17Z</time>
      </trkpt>
      <trkpt lat="41.660400418" lon="2.557502778">
        <ele>675.94</ele>
        <time>2013-05-05T10:32:19Z</time>
      </trkpt>
      <trkpt lat="41.660496223" lon="2.557357939">
        <ele>672.58</ele>
        <time>2013-05-05T10:32:23Z</time>
      </trkpt>
      <trkpt lat="41.660627567" lon="2.557252579">
        <ele>670.66</ele>
        <time>2013-05-05T10:32:28Z</time>
      </trkpt>
      <trkpt lat="41.660745417" lon="2.557124335">
        <ele>670.66</ele>
        <time>2013-05-05T10:32:34Z</time>
      </trkpt>
      <trkpt lat="41.660788500" lon="2.557058957">
        <ele>672.58</ele>
        <time>2013-05-05T10:32:37Z</time>
      </trkpt>
      <trkpt lat="41.660891094" lon="2.556838429">
        <ele>674.02</ele>
        <time>2013-05-05T10:32:45Z</time>
      </trkpt>
      <trkpt lat="41.660981703" lon="2.556670791">
        <ele>674.02</ele>
        <time>2013-05-05T10:32:51Z</time>
      </trkpt>
      <trkpt lat="41.661066360" lon="2.556446575">
        <ele>674.50</ele>
        <time>2013-05-05T10:32:58Z</time>
      </trkpt>
      <trkpt lat="41.661128973" lon="2.556209618">
        <ele>674.50</ele>
        <time>2013-05-05T10:33:06Z</time>
      </trkpt>
      <trkpt lat="41.661156884" lon="2.556015493">
        <ele>674.50</ele>
        <time>2013-05-05T10:33:12Z</time>
      </trkpt>
      <trkpt lat="41.661172559" lon="2.555770323">
        <ele>674.98</ele>
        <time>2013-05-05T10:33:19Z</time>
      </trkpt>
      <trkpt lat="41.661273477" lon="2.555533450">
        <ele>674.98</ele>
        <time>2013-05-05T10:33:25Z</time>
      </trkpt>
      <trkpt lat="41.661390656" lon="2.555362124">
        <ele>673.06</ele>
        <time>2013-05-05T10:33:31Z</time>
      </trkpt>
      <trkpt lat="41.661409515" lon="2.555321304">
        <ele>673.06</ele>
        <time>2013-05-05T10:33:32Z</time>
      </trkpt>
      <trkpt lat="41.661429967" lon="2.555272354">
        <ele>671.62</ele>
        <time>2013-05-05T10:33:33Z</time>
      </trkpt>
      <trkpt lat="41.661464584" lon="2.554941101">
        <ele>668.73</ele>
        <time>2013-05-05T10:33:39Z</time>
      </trkpt>
      <trkpt lat="41.661471876" lon="2.554757621">
        <ele>666.33</ele>
        <time>2013-05-05T10:33:42Z</time>
      </trkpt>
      <trkpt lat="41.661483359" lon="2.554634743">
        <ele>665.85</ele>
        <time>2013-05-05T10:33:44Z</time>
      </trkpt>
      <trkpt lat="41.661526862" lon="2.554312207">
        <ele>661.52</ele>
        <time>2013-05-05T10:33:49Z</time>
      </trkpt>
      <trkpt lat="41.661624846" lon="2.554094361">
        <ele>657.68</ele>
        <time>2013-05-05T10:33:53Z</time>
      </trkpt>
      <trkpt lat="41.661733811" lon="2.553907864">
        <ele>654.31</ele>
        <time>2013-05-05T10:33:57Z</time>
      </trkpt>
      <trkpt lat="41.661750826" lon="2.553863272">
        <ele>653.83</ele>
        <time>2013-05-05T10:33:58Z</time>
      </trkpt>
      <trkpt lat="41.661833304" lon="2.553608043">
        <ele>649.99</ele>
        <time>2013-05-05T10:34:03Z</time>
      </trkpt>
      <trkpt lat="41.661848224" lon="2.553410649">
        <ele>647.10</ele>
        <time>2013-05-05T10:34:07Z</time>
      </trkpt>
      <trkpt lat="41.661793322" lon="2.553245442">
        <ele>644.22</ele>
        <time>2013-05-05T10:34:11Z</time>
      </trkpt>
      <trkpt lat="41.661680083" lon="2.553128095">
        <ele>640.86</ele>
        <time>2013-05-05T10:34:15Z</time>
      </trkpt>
      <trkpt lat="41.661560473" lon="2.553057017">
        <ele>637.97</ele>
        <time>2013-05-05T10:34:19Z</time>
      </trkpt>
      <trkpt lat="41.661534489" lon="2.553037655">
        <ele>637.01</ele>
        <time>2013-05-05T10:34:20Z</time>
      </trkpt>
      <trkpt lat="41.661483527" lon="2.553019717">
        <ele>636.05</ele>
        <time>2013-05-05T10:34:22Z</time>
      </trkpt>
      <trkpt lat="41.661420998" lon="2.552991890">
        <ele>634.61</ele>
        <time>2013-05-05T10:34:24Z</time>
      </trkpt>
      <trkpt lat="41.661288732" lon="2.552958278">
        <ele>633.17</ele>
        <time>2013-05-05T10:34:27Z</time>
      </trkpt>
      <trkpt lat="41.661103659" lon="2.552885356">
        <ele>629.32</ele>
        <time>2013-05-05T10:34:31Z</time>
      </trkpt>
      <trkpt lat="41.661056972" lon="2.552751580">
        <ele>627.88</ele>
        <time>2013-05-05T10:34:35Z</time>
      </trkpt>
      <trkpt lat="41.661075412" lon="2.552672707">
        <ele>627.88</ele>
        <time>2013-05-05T10:34:37Z</time>
      </trkpt>
      <trkpt lat="41.661161243" lon="2.552336760">
        <ele>626.44</ele>
        <time>2013-05-05T10:34:44Z</time>
      </trkpt>
      <trkpt lat="41.661257635" lon="2.551943230">
        <ele>624.51</ele>
        <time>2013-05-05T10:34:51Z</time>
      </trkpt>
      <trkpt lat="41.661419908" lon="2.551441154">
        <ele>623.07</ele>
        <time>2013-05-05T10:34:59Z</time>
      </trkpt>
      <trkpt lat="41.661486964" lon="2.551217608">
        <ele>623.07</ele>
        <time>2013-05-05T10:35:05Z</time>
      </trkpt>
      <trkpt lat="41.661624259" lon="2.550983334">
        <ele>622.59</ele>
        <time>2013-05-05T10:35:11Z</time>
      </trkpt>
      <trkpt lat="41.661738086" lon="2.550791724">
        <ele>622.59</ele>
        <time>2013-05-05T10:35:17Z</time>
      </trkpt>
      <trkpt lat="41.661820396" lon="2.550546721">
        <ele>621.63</ele>
        <time>2013-05-05T10:35:22Z</time>
      </trkpt>
      <trkpt lat="41.661919218" lon="2.550320074">
        <ele>621.63</ele>
        <time>2013-05-05T10:35:30Z</time>
      </trkpt>
      <trkpt lat="41.662036397" lon="2.550112119">
        <ele>620.67</ele>
        <time>2013-05-05T10:35:36Z</time>
      </trkpt>
      <trkpt lat="41.662229181" lon="2.549893100">
        <ele>617.30</ele>
        <time>2013-05-05T10:35:42Z</time>
      </trkpt>
      <trkpt lat="41.662377206" lon="2.549737951">
        <ele>614.90</ele>
        <time>2013-05-05T10:35:45Z</time>
      </trkpt>
      <trkpt lat="41.662478962" lon="2.549635105">
        <ele>613.46</ele>
        <time>2013-05-05T10:35:48Z</time>
      </trkpt>
      <trkpt lat="41.662537635" lon="2.549558997">
        <ele>612.02</ele>
        <time>2013-05-05T10:35:50Z</time>
      </trkpt>
      <trkpt lat="41.662593794" lon="2.549184745">
        <ele>607.69</ele>
        <time>2013-05-05T10:35:57Z</time>
      </trkpt>
      <trkpt lat="41.662594548" lon="2.549118612">
        <ele>606.73</ele>
        <time>2013-05-05T10:35:58Z</time>
      </trkpt>
      <trkpt lat="41.662627322" lon="2.548907304">
        <ele>602.88</ele>
        <time>2013-05-05T10:36:01Z</time>
      </trkpt>
      <trkpt lat="41.662638889" lon="2.548831029">
        <ele>602.88</ele>
        <time>2013-05-05T10:36:02Z</time>
      </trkpt>
      <trkpt lat="41.662692114" lon="2.548547888">
        <ele>599.52</ele>
        <time>2013-05-05T10:36:05Z</time>
      </trkpt>
      <trkpt lat="41.662767299" lon="2.548274974">
        <ele>597.60</ele>
        <time>2013-05-05T10:36:08Z</time>
      </trkpt>
      <trkpt lat="41.662783812" lon="2.548199285">
        <ele>596.64</ele>
        <time>2013-05-05T10:36:09Z</time>
      </trkpt>
      <trkpt lat="41.662833014" lon="2.547919665">
        <ele>594.71</ele>
        <time>2013-05-05T10:36:15Z</time>
      </trkpt>
      <trkpt lat="41.662836450" lon="2.547859650">
        <ele>594.23</ele>
        <time>2013-05-05T10:36:19Z</time>
      </trkpt>
      <trkpt lat="41.662705860" lon="2.547818327">
        <ele>591.83</ele>
        <time>2013-05-05T10:36:26Z</time>
      </trkpt>
      <trkpt lat="41.662547023" lon="2.547861746">
        <ele>589.91</ele>
        <time>2013-05-05T10:36:31Z</time>
      </trkpt>
      <trkpt lat="41.662467563" lon="2.547864344">
        <ele>588.95</ele>
        <time>2013-05-05T10:36:33Z</time>
      </trkpt>
      <trkpt lat="41.662262793" lon="2.547804833">
        <ele>587.98</ele>
        <time>2013-05-05T10:36:38Z</time>
      </trkpt>
      <trkpt lat="41.661908406" lon="2.547650354">
        <ele>586.06</ele>
        <time>2013-05-05T10:36:47Z</time>
      </trkpt>
      <trkpt lat="41.661701960" lon="2.547659742">
        <ele>586.06</ele>
        <time>2013-05-05T10:36:53Z</time>
      </trkpt>
      <trkpt lat="41.661542871" lon="2.547651360">
        <ele>587.50</ele>
        <time>2013-05-05T10:36:59Z</time>
      </trkpt>
      <trkpt lat="41.661443713" lon="2.547642894">
        <ele>586.06</ele>
        <time>2013-05-05T10:37:02Z</time>
      </trkpt>
      <trkpt lat="41.661252941" lon="2.547661167">
        <ele>582.22</ele>
        <time>2013-05-05T10:37:08Z</time>
      </trkpt>
      <trkpt lat="41.661224442" lon="2.547671477">
        <ele>582.22</ele>
        <time>2013-05-05T10:37:09Z</time>
      </trkpt>
      <trkpt lat="41.661041549" lon="2.547707183">
        <ele>580.29</ele>
        <time>2013-05-05T10:37:15Z</time>
      </trkpt>
      <trkpt lat="41.660872151" lon="2.547743477">
        <ele>578.37</ele>
        <time>2013-05-05T10:37:21Z</time>
      </trkpt>
      <trkpt lat="41.660676182" lon="2.547764599">
        <ele>576.45</ele>
        <time>2013-05-05T10:37:28Z</time>
      </trkpt>
      <trkpt lat="41.660497648" lon="2.547765186">
        <ele>575.01</ele>
        <time>2013-05-05T10:37:35Z</time>
      </trkpt>
      <trkpt lat="41.660438388" lon="2.547755631">
        <ele>574.53</ele>
        <time>2013-05-05T10:37:38Z</time>
      </trkpt>
      <trkpt lat="41.660382313" lon="2.547646582">
        <ele>572.12</ele>
        <time>2013-05-05T10:37:44Z</time>
      </trkpt>
      <trkpt lat="41.660282987" lon="2.547546754">
        <ele>571.16</ele>
        <time>2013-05-05T10:37:50Z</time>
      </trkpt>
      <trkpt lat="41.660187433" lon="2.547481794">
        <ele>567.32</ele>
        <time>2013-05-05T10:37:57Z</time>
      </trkpt>
      <trkpt lat="41.660174609" lon="2.547477184">
        <ele>566.83</ele>
        <time>2013-05-05T10:37:58Z</time>
      </trkpt>
      <trkpt lat="41.660059777" lon="2.547469556">
        <ele>564.91</ele>
        <time>2013-05-05T10:38:05Z</time>
      </trkpt>
      <trkpt lat="41.660040415" lon="2.547481626">
        <ele>564.43</ele>
        <time>2013-05-05T10:38:07Z</time>
      </trkpt>
      <trkpt lat="41.659988028" lon="2.547556309">
        <ele>562.51</ele>
        <time>2013-05-05T10:38:13Z</time>
      </trkpt>
      <trkpt lat="41.659962631" lon="2.547585981">
        <ele>561.07</ele>
        <time>2013-05-05T10:38:16Z</time>
      </trkpt>
      <trkpt lat="41.659937401" lon="2.547628813">
        <ele>559.14</ele>
        <time>2013-05-05T10:38:23Z</time>
      </trkpt>
      <trkpt lat="41.659930612" lon="2.547677847">
        <ele>558.18</ele>
        <time>2013-05-05T10:38:31Z</time>
      </trkpt>
      <trkpt lat="41.659918291" lon="2.547712715">
        <ele>557.70</ele>
        <time>2013-05-05T10:38:39Z</time>
      </trkpt>
      <trkpt lat="41.659912842" lon="2.547743309">
        <ele>556.26</ele>
        <time>2013-05-05T10:38:46Z</time>
      </trkpt>
      <trkpt lat="41.659882500" lon="2.547792679">
        <ele>554.82</ele>
        <time>2013-05-05T10:38:53Z</time>
      </trkpt>
      <trkpt lat="41.659865736" lon="2.547820339">
        <ele>554.34</ele>
        <time>2013-05-05T10:39:00Z</time>
      </trkpt>
      <trkpt lat="41.659842267" lon="2.547850179">
        <ele>552.90</ele>
        <time>2013-05-05T10:39:07Z</time>
      </trkpt>
      <trkpt lat="41.659805219" lon="2.547897620">
        <ele>551.45</ele>
        <time>2013-05-05T10:39:16Z</time>
      </trkpt>
      <trkpt lat="41.659769931" lon="2.547933327">
        <ele>550.49</ele>
        <time>2013-05-05T10:39:23Z</time>
      </trkpt>
      <trkpt lat="41.659732380" lon="2.547957299">
        <ele>549.53</ele>
        <time>2013-05-05T10:39:32Z</time>
      </trkpt>
      <trkpt lat="41.659708408" lon="2.547986133">
        <ele>548.57</ele>
        <time>2013-05-05T10:39:39Z</time>
      </trkpt>
      <trkpt lat="41.659678568" lon="2.548006082">
        <ele>548.09</ele>
        <time>2013-05-05T10:39:43Z</time>
      </trkpt>
      <trkpt lat="41.659628193" lon="2.548061403">
        <ele>547.61</ele>
        <time>2013-05-05T10:39:51Z</time>
      </trkpt>
      <trkpt lat="41.659622577" lon="2.548065426">
        <ele>547.61</ele>
        <time>2013-05-05T10:39:54Z</time>
      </trkpt>
      <trkpt lat="41.659534064" lon="2.548088644">
        <ele>546.65</ele>
        <time>2013-05-05T10:39:59Z</time>
      </trkpt>
      <trkpt lat="41.659387045" lon="2.548049081">
        <ele>544.24</ele>
        <time>2013-05-05T10:40:07Z</time>
      </trkpt>
      <trkpt lat="41.659240446" lon="2.547936848">
        <ele>540.88</ele>
        <time>2013-05-05T10:40:12Z</time>
      </trkpt>
      <trkpt lat="41.659071551" lon="2.547889322">
        <ele>538.48</ele>
        <time>2013-05-05T10:40:18Z</time>
      </trkpt>
      <trkpt lat="41.658841048" lon="2.547863422">
        <ele>537.99</ele>
        <time>2013-05-05T10:40:25Z</time>
      </trkpt>
      <trkpt lat="41.658706938" lon="2.547784213">
        <ele>534.15</ele>
        <time>2013-05-05T10:40:31Z</time>
      </trkpt>
      <trkpt lat="41.658640553" lon="2.547657479">
        <ele>530.30</ele>
        <time>2013-05-05T10:40:36Z</time>
      </trkpt>
      <trkpt lat="41.658636362" lon="2.547522111">
        <ele>527.42</ele>
        <time>2013-05-05T10:40:40Z</time>
      </trkpt>
      <trkpt lat="41.658637452" lon="2.547446339">
        <ele>526.46</ele>
        <time>2013-05-05T10:40:42Z</time>
      </trkpt>
      <trkpt lat="41.658528571" lon="2.547274929">
        <ele>523.58</ele>
        <time>2013-05-05T10:40:47Z</time>
      </trkpt>
      <trkpt lat="41.658392281" lon="2.547119612">
        <ele>519.25</ele>
        <time>2013-05-05T10:40:51Z</time>
      </trkpt>
      <trkpt lat="41.658310139" lon="2.546936048">
        <ele>515.88</ele>
        <time>2013-05-05T10:40:55Z</time>
      </trkpt>
      <trkpt lat="41.658261021" lon="2.546802357">
        <ele>513.96</ele>
        <time>2013-05-05T10:40:57Z</time>
      </trkpt>
      <trkpt lat="41.658214417" lon="2.546669169">
        <ele>513.00</ele>
        <time>2013-05-05T10:40:59Z</time>
      </trkpt>
      <trkpt lat="41.658187428" lon="2.546552912">
        <ele>511.56</ele>
        <time>2013-05-05T10:41:01Z</time>
      </trkpt>
      <trkpt lat="41.658247107" lon="2.546510080">
        <ele>510.12</ele>
        <time>2013-05-05T10:41:04Z</time>
      </trkpt>
      <trkpt lat="41.658348360" lon="2.546618290">
        <ele>508.67</ele>
        <time>2013-05-05T10:41:09Z</time>
      </trkpt>
      <trkpt lat="41.658556902" lon="2.546716526">
        <ele>504.35</ele>
        <time>2013-05-05T10:41:15Z</time>
      </trkpt>
      <trkpt lat="41.658594369" lon="2.546700768">
        <ele>503.39</ele>
        <time>2013-05-05T10:41:16Z</time>
      </trkpt>
      <trkpt lat="41.658729318" lon="2.546622817">
        <ele>501.46</ele>
        <time>2013-05-05T10:41:19Z</time>
      </trkpt>
      <trkpt lat="41.658809449" lon="2.546634216">
        <ele>500.50</ele>
        <time>2013-05-05T10:41:21Z</time>
      </trkpt>
      <trkpt lat="41.658879605" lon="2.546676964">
        <ele>499.54</ele>
        <time>2013-05-05T10:41:23Z</time>
      </trkpt>
      <trkpt lat="41.658986223" lon="2.546604041">
        <ele>498.58</ele>
        <time>2013-05-05T10:41:27Z</time>
      </trkpt>
      <trkpt lat="41.658977338" lon="2.546525000">
        <ele>496.66</ele>
        <time>2013-05-05T10:41:29Z</time>
      </trkpt>
      <trkpt lat="41.658930986" lon="2.546358535">
        <ele>493.77</ele>
        <time>2013-05-05T10:41:32Z</time>
      </trkpt>
      <trkpt lat="41.658930651" lon="2.546166925">
        <ele>491.37</ele>
        <time>2013-05-05T10:41:35Z</time>
      </trkpt>
      <trkpt lat="41.658951522" lon="2.546005489">
        <ele>489.93</ele>
        <time>2013-05-05T10:41:38Z</time>
      </trkpt>
      <trkpt lat="41.658998963" lon="2.545766605">
        <ele>486.56</ele>
        <time>2013-05-05T10:41:43Z</time>
      </trkpt>
      <trkpt lat="41.659030312" lon="2.545564685">
        <ele>483.68</ele>
        <time>2013-05-05T10:41:48Z</time>
      </trkpt>
      <trkpt lat="41.658988654" lon="2.545531409">
        <ele>482.24</ele>
        <time>2013-05-05T10:41:53Z</time>
      </trkpt>
      <trkpt lat="41.658985888" lon="2.545528643">
        <ele>482.72</ele>
        <time>2013-05-05T10:41:58Z</time>
      </trkpt>
      <trkpt lat="41.658986474" lon="2.545496205">
        <ele>482.72</ele>
        <time>2013-05-05T10:42:11Z</time>
      </trkpt>
      <trkpt lat="41.658981445" lon="2.545490589">
        <ele>482.72</ele>
        <time>2013-05-05T10:42:20Z</time>
      </trkpt>
      <trkpt lat="41.658916737" lon="2.545598883">
        <ele>482.72</ele>
        <time>2013-05-05T10:42:27Z</time>
      </trkpt>
      <trkpt lat="41.658769551" lon="2.545815472">
        <ele>482.24</ele>
        <time>2013-05-05T10:42:36Z</time>
      </trkpt>
      <trkpt lat="41.658624628" lon="2.545827625">
        <ele>482.24</ele>
        <time>2013-05-05T10:42:42Z</time>
      </trkpt>
      <trkpt lat="41.658513316" lon="2.545792673">
        <ele>483.68</ele>
        <time>2013-05-05T10:42:47Z</time>
      </trkpt>
      <trkpt lat="41.658354982" lon="2.545714973">
        <ele>485.60</ele>
        <time>2013-05-05T10:42:55Z</time>
      </trkpt>
      <trkpt lat="41.658212489" lon="2.545610031">
        <ele>487.05</ele>
        <time>2013-05-05T10:43:02Z</time>
      </trkpt>
      <trkpt lat="41.658057340" lon="2.545452535">
        <ele>487.05</ele>
        <time>2013-05-05T10:43:09Z</time>
      </trkpt>
      <trkpt lat="41.657964469" lon="2.545368800">
        <ele>485.60</ele>
        <time>2013-05-05T10:43:12Z</time>
      </trkpt>
      <trkpt lat="41.657890038" lon="2.545356143">
        <ele>484.64</ele>
        <time>2013-05-05T10:43:14Z</time>
      </trkpt>
      <trkpt lat="41.657680071" lon="2.545478771">
        <ele>483.68</ele>
        <time>2013-05-05T10:43:20Z</time>
      </trkpt>
      <trkpt lat="41.657513355" lon="2.545606930">
        <ele>484.64</ele>
        <time>2013-05-05T10:43:27Z</time>
      </trkpt>
      <trkpt lat="41.657325684" lon="2.545674740">
        <ele>485.60</ele>
        <time>2013-05-05T10:43:35Z</time>
      </trkpt>
      <trkpt lat="41.657155615" lon="2.545731234">
        <ele>486.56</ele>
        <time>2013-05-05T10:43:42Z</time>
      </trkpt>
      <trkpt lat="41.656891753" lon="2.545743136">
        <ele>487.05</ele>
        <time>2013-05-05T10:43:52Z</time>
      </trkpt>
      <trkpt lat="41.656593022" lon="2.545664095">
        <ele>485.60</ele>
        <time>2013-05-05T10:44:00Z</time>
      </trkpt>
      <trkpt lat="41.656370147" lon="2.545654288">
        <ele>485.60</ele>
        <time>2013-05-05T10:44:07Z</time>
      </trkpt>
      <trkpt lat="41.656175519" lon="2.545685887">
        <ele>485.60</ele>
        <time>2013-05-05T10:44:14Z</time>
      </trkpt>
      <trkpt lat="41.655976114" lon="2.545700137">
        <ele>485.12</ele>
        <time>2013-05-05T10:44:20Z</time>
      </trkpt>
      <trkpt lat="41.655891792" lon="2.545680523">
        <ele>484.64</ele>
        <time>2013-05-05T10:44:22Z</time>
      </trkpt>
      <trkpt lat="41.655675790" lon="2.545524201">
        <ele>481.76</ele>
        <time>2013-05-05T10:44:26Z</time>
      </trkpt>
      <trkpt lat="41.655478899" lon="2.545172831">
        <ele>476.47</ele>
        <time>2013-05-05T10:44:31Z</time>
      </trkpt>
      <trkpt lat="41.655346046" lon="2.545058670">
        <ele>475.03</ele>
        <time>2013-05-05T10:44:34Z</time>
      </trkpt>
      <trkpt lat="41.655091488" lon="2.545136118">
        <ele>473.59</ele>
        <time>2013-05-05T10:44:38Z</time>
      </trkpt>
      <trkpt lat="41.654859812" lon="2.545168389">
        <ele>470.22</ele>
        <time>2013-05-05T10:44:41Z</time>
      </trkpt>
      <trkpt lat="41.654759481" lon="2.545148524">
        <ele>466.86</ele>
        <time>2013-05-05T10:44:43Z</time>
      </trkpt>
      <trkpt lat="41.654446668" lon="2.545026651">
        <ele>460.61</ele>
        <time>2013-05-05T10:44:49Z</time>
      </trkpt>
      <trkpt lat="41.654327477" lon="2.544963367">
        <ele>458.21</ele>
        <time>2013-05-05T10:44:52Z</time>
      </trkpt>
      <trkpt lat="41.654258243" lon="2.544938976">
        <ele>457.24</ele>
        <time>2013-05-05T10:44:54Z</time>
      </trkpt>
      <trkpt lat="41.654079038" lon="2.544821797">
        <ele>452.44</ele>
        <time>2013-05-05T10:44:58Z</time>
      </trkpt>
      <trkpt lat="41.653919949" lon="2.544738649">
        <ele>449.07</ele>
        <time>2013-05-05T10:45:01Z</time>
      </trkpt>
      <trkpt lat="41.653748372" lon="2.544677545">
        <ele>444.75</ele>
        <time>2013-05-05T10:45:04Z</time>
      </trkpt>
      <trkpt lat="41.653596827" lon="2.544561036">
        <ele>442.34</ele>
        <time>2013-05-05T10:45:07Z</time>
      </trkpt>
      <trkpt lat="41.653508984" lon="2.544494651">
        <ele>440.90</ele>
        <time>2013-05-05T10:45:09Z</time>
      </trkpt>
      <trkpt lat="41.653319470" lon="2.544371521">
        <ele>438.50</ele>
        <time>2013-05-05T10:45:13Z</time>
      </trkpt>
      <trkpt lat="41.653104390" lon="2.544406222">
        <ele>435.13</ele>
        <time>2013-05-05T10:45:16Z</time>
      </trkpt>
      <trkpt lat="41.652909762" lon="2.544446288">
        <ele>432.73</ele>
        <time>2013-05-05T10:45:19Z</time>
      </trkpt>
      <trkpt lat="41.652734077" lon="2.544441007">
        <ele>431.29</ele>
        <time>2013-05-05T10:45:22Z</time>
      </trkpt>
      <trkpt lat="41.652602314" lon="2.544442181">
        <ele>429.85</ele>
        <time>2013-05-05T10:45:24Z</time>
      </trkpt>
      <trkpt lat="41.652395449" lon="2.544469338">
        <ele>428.40</ele>
        <time>2013-05-05T10:45:28Z</time>
      </trkpt>
      <trkpt lat="41.652315904" lon="2.544483587">
        <ele>427.44</ele>
        <time>2013-05-05T10:45:30Z</time>
      </trkpt>
      <trkpt lat="41.652074338" lon="2.544590457">
        <ele>425.52</ele>
        <time>2013-05-05T10:45:35Z</time>
      </trkpt>
      <trkpt lat="41.651799495" lon="2.544818528">
        <ele>420.71</ele>
        <time>2013-05-05T10:45:40Z</time>
      </trkpt>
      <trkpt lat="41.651691369" lon="2.544906454">
        <ele>418.79</ele>
        <time>2013-05-05T10:45:42Z</time>
      </trkpt>
      <trkpt lat="41.651446282" lon="2.544922548">
        <ele>416.39</ele>
        <time>2013-05-05T10:45:46Z</time>
      </trkpt>
      <trkpt lat="41.651162554" lon="2.544984155">
        <ele>413.02</ele>
        <time>2013-05-05T10:45:50Z</time>
      </trkpt>
      <trkpt lat="41.650887963" lon="2.544977700">
        <ele>410.14</ele>
        <time>2013-05-05T10:45:54Z</time>
      </trkpt>
      <trkpt lat="41.650836582" lon="2.544921626">
        <ele>409.66</ele>
        <time>2013-05-05T10:45:55Z</time>
      </trkpt>
      <trkpt lat="41.650575318" lon="2.544674946">
        <ele>405.33</ele>
        <time>2013-05-05T10:46:00Z</time>
      </trkpt>
      <trkpt lat="41.650539025" lon="2.544662960">
        <ele>405.33</ele>
        <time>2013-05-05T10:46:01Z</time>
      </trkpt>
      <trkpt lat="41.650316904" lon="2.544625996">
        <ele>403.89</ele>
        <time>2013-05-05T10:46:06Z</time>
      </trkpt>
      <trkpt lat="41.650133005" lon="2.544640497">
        <ele>402.93</ele>
        <time>2013-05-05T10:46:10Z</time>
      </trkpt>
      <trkpt lat="41.649953213" lon="2.544719789">
        <ele>401.97</ele>
        <time>2013-05-05T10:46:14Z</time>
      </trkpt>
      <trkpt lat="41.649700080" lon="2.544658685">
        <ele>399.57</ele>
        <time>2013-05-05T10:46:19Z</time>
      </trkpt>
      <trkpt lat="41.649661775" lon="2.544601269">
        <ele>399.57</ele>
        <time>2013-05-05T10:46:20Z</time>
      </trkpt>
      <trkpt lat="41.649551888" lon="2.544420472">
        <ele>398.60</ele>
        <time>2013-05-05T10:46:23Z</time>
      </trkpt>
      <trkpt lat="41.649482821" lon="2.544196339">
        <ele>396.68</ele>
        <time>2013-05-05T10:46:28Z</time>
      </trkpt>
      <trkpt lat="41.649482905" lon="2.544153256">
        <ele>396.68</ele>
        <time>2013-05-05T10:46:35Z</time>
      </trkpt>
      <trkpt lat="41.649467985" lon="2.544121321">
        <ele>396.68</ele>
        <time>2013-05-05T10:46:44Z</time>
      </trkpt>
      <trkpt lat="41.649455328" lon="2.544114197">
        <ele>395.72</ele>
        <time>2013-05-05T10:46:52Z</time>
      </trkpt>
      <trkpt lat="41.649448623" lon="2.544088297">
        <ele>395.72</ele>
        <time>2013-05-05T10:47:03Z</time>
      </trkpt>
      <trkpt lat="41.649456083" lon="2.544009423">
        <ele>395.72</ele>
        <time>2013-05-05T10:47:07Z</time>
      </trkpt>
      <trkpt lat="41.649426159" lon="2.543725863">
        <ele>394.76</ele>
        <time>2013-05-05T10:47:13Z</time>
      </trkpt>
      <trkpt lat="41.649327756" lon="2.543243233">
        <ele>392.36</ele>
        <time>2013-05-05T10:47:21Z</time>
      </trkpt>
      <trkpt lat="41.649154250" lon="2.542737134">
        <ele>390.43</ele>
        <time>2013-05-05T10:47:28Z</time>
      </trkpt>
      <trkpt lat="41.649083591" lon="2.542490371">
        <ele>389.95</ele>
        <time>2013-05-05T10:47:31Z</time>
      </trkpt>
      <trkpt lat="41.649053835" lon="2.542316362">
        <ele>388.99</ele>
        <time>2013-05-05T10:47:33Z</time>
      </trkpt>
      <trkpt lat="41.649057775" lon="2.542068426">
        <ele>388.51</ele>
        <time>2013-05-05T10:47:36Z</time>
      </trkpt>
      <trkpt lat="41.648977560" lon="2.541666178">
        <ele>386.59</ele>
        <time>2013-05-05T10:47:41Z</time>
      </trkpt>
      <trkpt lat="41.648753763" lon="2.541464174">
        <ele>385.63</ele>
        <time>2013-05-05T10:47:45Z</time>
      </trkpt>
      <trkpt lat="41.648683858" lon="2.541436011">
        <ele>385.63</ele>
        <time>2013-05-05T10:47:46Z</time>
      </trkpt>
      <trkpt lat="41.648290244" lon="2.541338362">
        <ele>382.26</ele>
        <time>2013-05-05T10:47:51Z</time>
      </trkpt>
      <trkpt lat="41.647840974" lon="2.541170221">
        <ele>378.90</ele>
        <time>2013-05-05T10:47:57Z</time>
      </trkpt>
      <trkpt lat="41.647573507" lon="2.540914573">
        <ele>374.09</ele>
        <time>2013-05-05T10:48:01Z</time>
      </trkpt>
      <trkpt lat="41.647511481" lon="2.540864449">
        <ele>373.13</ele>
        <time>2013-05-05T10:48:02Z</time>
      </trkpt>
      <trkpt lat="41.647210571" lon="2.540764704">
        <ele>369.28</ele>
        <time>2013-05-05T10:48:06Z</time>
      </trkpt>
      <trkpt lat="41.647073024" lon="2.540764369">
        <ele>368.32</ele>
        <time>2013-05-05T10:48:08Z</time>
      </trkpt>
      <trkpt lat="41.646933968" lon="2.540773422">
        <ele>367.84</ele>
        <time>2013-05-05T10:48:10Z</time>
      </trkpt>
      <trkpt lat="41.646803127" lon="2.540806027">
        <ele>366.88</ele>
        <time>2013-05-05T10:48:12Z</time>
      </trkpt>
      <trkpt lat="41.646534738" lon="2.540808709">
        <ele>363.04</ele>
        <time>2013-05-05T10:48:16Z</time>
      </trkpt>
      <trkpt lat="41.646266266" lon="2.540709384">
        <ele>357.75</ele>
        <time>2013-05-05T10:48:19Z</time>
      </trkpt>
      <trkpt lat="41.646179681" lon="2.540670157">
        <ele>357.27</ele>
        <time>2013-05-05T10:48:20Z</time>
      </trkpt>
      <trkpt lat="41.645975246" lon="2.540484833">
        <ele>352.94</ele>
        <time>2013-05-05T10:48:23Z</time>
      </trkpt>
      <trkpt lat="41.645785564" lon="2.540301521">
        <ele>350.54</ele>
        <time>2013-05-05T10:48:26Z</time>
      </trkpt>
      <trkpt lat="41.645533771" lon="2.540186605">
        <ele>348.13</ele>
        <time>2013-05-05T10:48:30Z</time>
      </trkpt>
      <trkpt lat="41.645272759" lon="2.540154418">
        <ele>350.06</ele>
        <time>2013-05-05T10:48:36Z</time>
      </trkpt>
      <trkpt lat="41.645097996" lon="2.540076886">
        <ele>351.02</ele>
        <time>2013-05-05T10:48:42Z</time>
      </trkpt>
      <trkpt lat="41.644903787" lon="2.539974626">
        <ele>353.42</ele>
        <time>2013-05-05T10:48:50Z</time>
      </trkpt>
      <trkpt lat="41.644761463" lon="2.539894914">
        <ele>354.38</ele>
        <time>2013-05-05T10:48:57Z</time>
      </trkpt>
      <trkpt lat="41.644678482" lon="2.539890221">
        <ele>355.83</ele>
        <time>2013-05-05T10:49:01Z</time>
      </trkpt>
      <trkpt lat="41.644611594" lon="2.539965155">
        <ele>356.79</ele>
        <time>2013-05-05T10:49:07Z</time>
      </trkpt>
      <trkpt lat="41.644564823" lon="2.540166320">
        <ele>358.71</ele>
        <time>2013-05-05T10:49:16Z</time>
      </trkpt>
      <trkpt lat="41.644535235" lon="2.540310824">
        <ele>360.63</ele>
        <time>2013-05-05T10:49:24Z</time>
      </trkpt>
      <trkpt lat="41.644461055" lon="2.540427920">
        <ele>361.59</ele>
        <time>2013-05-05T10:49:31Z</time>
      </trkpt>
      <trkpt lat="41.644384612" lon="2.540482402">
        <ele>363.04</ele>
        <time>2013-05-05T10:49:36Z</time>
      </trkpt>
      <trkpt lat="41.644287382" lon="2.540401768">
        <ele>364.96</ele>
        <time>2013-05-05T10:49:45Z</time>
      </trkpt>
      <trkpt lat="41.644263326" lon="2.540253827">
        <ele>366.40</ele>
        <time>2013-05-05T10:49:53Z</time>
      </trkpt>
      <trkpt lat="41.644183782" lon="2.540106557">
        <ele>367.84</ele>
        <time>2013-05-05T10:50:02Z</time>
      </trkpt>
      <trkpt lat="41.644108596" lon="2.539984685">
        <ele>369.28</ele>
        <time>2013-05-05T10:50:10Z</time>
      </trkpt>
      <trkpt lat="41.644026789" lon="2.539891226">
        <ele>371.21</ele>
        <time>2013-05-05T10:50:17Z</time>
      </trkpt>
      <trkpt lat="41.643986304" lon="2.539827775">
        <ele>372.17</ele>
        <time>2013-05-05T10:50:21Z</time>
      </trkpt>
      <trkpt lat="41.643855379" lon="2.539696682">
        <ele>373.61</ele>
        <time>2013-05-05T10:50:30Z</time>
      </trkpt>
      <trkpt lat="41.643718419" lon="2.539605236">
        <ele>375.05</ele>
        <time>2013-05-05T10:50:39Z</time>
      </trkpt>
      <trkpt lat="41.643552792" lon="2.539513957">
        <ele>376.49</ele>
        <time>2013-05-05T10:50:50Z</time>
      </trkpt>
      <trkpt lat="41.643430668" lon="2.539443549">
        <ele>378.90</ele>
        <time>2013-05-05T10:50:59Z</time>
      </trkpt>
      <trkpt lat="41.643344502" lon="2.539328382">
        <ele>380.34</ele>
        <time>2013-05-05T10:51:07Z</time>
      </trkpt>
      <trkpt lat="41.643281554" lon="2.539224530">
        <ele>381.30</ele>
        <time>2013-05-05T10:51:14Z</time>
      </trkpt>
      <trkpt lat="41.643197986" lon="2.539137526">
        <ele>383.22</ele>
        <time>2013-05-05T10:51:21Z</time>
      </trkpt>
      <trkpt lat="41.643059350" lon="2.539052449">
        <ele>384.18</ele>
        <time>2013-05-05T10:51:29Z</time>
      </trkpt>
      <trkpt lat="41.642888275" lon="2.538962092">
        <ele>385.63</ele>
        <time>2013-05-05T10:51:38Z</time>
      </trkpt>
      <trkpt lat="41.642752907" lon="2.538856899">
        <ele>386.11</ele>
        <time>2013-05-05T10:51:45Z</time>
      </trkpt>
      <trkpt lat="41.642584263" lon="2.538694877">
        <ele>387.07</ele>
        <time>2013-05-05T10:51:54Z</time>
      </trkpt>
      <trkpt lat="41.642473119" lon="2.538599072">
        <ele>387.55</ele>
        <time>2013-05-05T10:52:00Z</time>
      </trkpt>
      <trkpt lat="41.642286873" lon="2.538555570">
        <ele>386.59</ele>
        <time>2013-05-05T10:52:05Z</time>
      </trkpt>
      <trkpt lat="41.642239013" lon="2.538555067">
        <ele>386.59</ele>
        <time>2013-05-05T10:52:06Z</time>
      </trkpt>
      <trkpt lat="41.642034243" lon="2.538506117">
        <ele>385.63</ele>
        <time>2013-05-05T10:52:10Z</time>
      </trkpt>
      <trkpt lat="41.641937935" lon="2.538458591">
        <ele>385.63</ele>
        <time>2013-05-05T10:52:12Z</time>
      </trkpt>
      <trkpt lat="41.641738613" lon="2.538223898">
        <ele>385.63</ele>
        <time>2013-05-05T10:52:19Z</time>
      </trkpt>
      <trkpt lat="41.641665271" lon="2.538104875">
        <ele>385.63</ele>
        <time>2013-05-05T10:52:23Z</time>
      </trkpt>
      <trkpt lat="41.641620931" lon="2.537941596">
        <ele>385.63</ele>
        <time>2013-05-05T10:52:27Z</time>
      </trkpt>
      <trkpt lat="41.641584302" lon="2.537452679">
        <ele>385.15</ele>
        <time>2013-05-05T10:52:35Z</time>
      </trkpt>
      <trkpt lat="41.641639120" lon="2.537170880">
        <ele>384.66</ele>
        <time>2013-05-05T10:52:40Z</time>
      </trkpt>
      <trkpt lat="41.641638617" lon="2.537035847">
        <ele>384.66</ele>
        <time>2013-05-05T10:52:43Z</time>
      </trkpt>
      <trkpt lat="41.641498807" lon="2.536778690">
        <ele>383.70</ele>
        <time>2013-05-05T10:52:50Z</time>
      </trkpt>
      <trkpt lat="41.641395626" lon="2.536525138">
        <ele>381.78</ele>
        <time>2013-05-05T10:52:56Z</time>
      </trkpt>
      <trkpt lat="41.641307197" lon="2.536190700">
        <ele>379.38</ele>
        <time>2013-05-05T10:53:02Z</time>
      </trkpt>
      <trkpt lat="41.641132601" lon="2.535687618">
        <ele>376.97</ele>
        <time>2013-05-05T10:53:09Z</time>
      </trkpt>
      <trkpt lat="41.641076107" lon="2.535550406">
        <ele>376.49</ele>
        <time>2013-05-05T10:53:11Z</time>
      </trkpt>
      <trkpt lat="41.640887934" lon="2.535346475">
        <ele>376.01</ele>
        <time>2013-05-05T10:53:16Z</time>
      </trkpt>
      <trkpt lat="41.640787267" lon="2.535242707">
        <ele>376.01</ele>
        <time>2013-05-05T10:53:20Z</time>
      </trkpt>
      <trkpt lat="41.640620802" lon="2.535219908">
        <ele>376.01</ele>
        <time>2013-05-05T10:53:24Z</time>
      </trkpt>
      <trkpt lat="41.640214951" lon="2.535265757">
        <ele>374.57</ele>
        <time>2013-05-05T10:53:33Z</time>
      </trkpt>
      <trkpt lat="41.640039434" lon="2.535151512">
        <ele>374.09</ele>
        <time>2013-05-05T10:53:38Z</time>
      </trkpt>
      <trkpt lat="41.639999620" lon="2.535123851">
        <ele>373.61</ele>
        <time>2013-05-05T10:53:39Z</time>
      </trkpt>
      <trkpt lat="41.639803735" lon="2.535040870">
        <ele>372.17</ele>
        <time>2013-05-05T10:53:43Z</time>
      </trkpt>
      <trkpt lat="41.639596785" lon="2.534992507">
        <ele>371.21</ele>
        <time>2013-05-05T10:53:47Z</time>
      </trkpt>
      <trkpt lat="41.639537777" lon="2.534984460">
        <ele>370.24</ele>
        <time>2013-05-05T10:53:48Z</time>
      </trkpt>
      <trkpt lat="41.639378185" lon="2.534973312">
        <ele>368.80</ele>
        <time>2013-05-05T10:53:51Z</time>
      </trkpt>
      <trkpt lat="41.639279614" lon="2.534946993">
        <ele>367.84</ele>
        <time>2013-05-05T10:53:53Z</time>
      </trkpt>
      <trkpt lat="41.639181881" lon="2.534943054">
        <ele>366.40</ele>
        <time>2013-05-05T10:53:55Z</time>
      </trkpt>
      <trkpt lat="41.638929670" lon="2.534856301">
        <ele>365.92</ele>
        <time>2013-05-05T10:54:00Z</time>
      </trkpt>
      <trkpt lat="41.638568577" lon="2.534661506">
        <ele>365.44</ele>
        <time>2013-05-05T10:54:09Z</time>
      </trkpt>
      <trkpt lat="41.638293483" lon="2.534619093">
        <ele>365.44</ele>
        <time>2013-05-05T10:54:17Z</time>
      </trkpt>
      <trkpt lat="41.638082595" lon="2.534797544">
        <ele>366.88</ele>
        <time>2013-05-05T10:54:25Z</time>
      </trkpt>
      <trkpt lat="41.637973043" lon="2.534917237">
        <ele>367.36</ele>
        <time>2013-05-05T10:54:32Z</time>
      </trkpt>
      <trkpt lat="41.637888134" lon="2.534965936">
        <ele>368.32</ele>
        <time>2013-05-05T10:54:37Z</time>
      </trkpt>
      <trkpt lat="41.637798364" lon="2.534896869">
        <ele>368.32</ele>
        <time>2013-05-05T10:54:42Z</time>
      </trkpt>
      <trkpt lat="41.637649585" lon="2.534724118">
        <ele>369.76</ele>
        <time>2013-05-05T10:54:50Z</time>
      </trkpt>
      <trkpt lat="41.637510697" lon="2.534617165">
        <ele>370.73</ele>
        <time>2013-05-05T10:54:57Z</time>
      </trkpt>
      <trkpt lat="41.637367031" lon="2.534561845">
        <ele>370.73</ele>
        <time>2013-05-05T10:55:03Z</time>
      </trkpt>
      <trkpt lat="41.637197382" lon="2.534474254">
        <ele>371.69</ele>
        <time>2013-05-05T10:55:10Z</time>
      </trkpt>
      <trkpt lat="41.636973250" lon="2.534309466">
        <ele>372.17</ele>
        <time>2013-05-05T10:55:20Z</time>
      </trkpt>
      <trkpt lat="41.636845258" lon="2.534232184">
        <ele>373.13</ele>
        <time>2013-05-05T10:55:26Z</time>
      </trkpt>
      <trkpt lat="41.636656917" lon="2.534183653">
        <ele>374.57</ele>
        <time>2013-05-05T10:55:34Z</time>
      </trkpt>
      <trkpt lat="41.636558513" lon="2.534084244">
        <ele>374.57</ele>
        <time>2013-05-05T10:55:39Z</time>
      </trkpt>
      <trkpt lat="41.636615510" lon="2.533882408">
        <ele>374.57</ele>
        <time>2013-05-05T10:55:46Z</time>
      </trkpt>
      <trkpt lat="41.636676949" lon="2.533747208">
        <ele>374.57</ele>
        <time>2013-05-05T10:55:51Z</time>
      </trkpt>
      <trkpt lat="41.636726319" lon="2.533484602">
        <ele>374.57</ele>
        <time>2013-05-05T10:55:59Z</time>
      </trkpt>
      <trkpt lat="41.636670160" lon="2.533189979">
        <ele>374.57</ele>
        <time>2013-05-05T10:56:07Z</time>
      </trkpt>
      <trkpt lat="41.636555412" lon="2.533044636">
        <ele>374.57</ele>
        <time>2013-05-05T10:56:13Z</time>
      </trkpt>
      <trkpt lat="41.636447118" lon="2.532911113">
        <ele>374.57</ele>
        <time>2013-05-05T10:56:19Z</time>
      </trkpt>
      <trkpt lat="41.636461115" lon="2.532731321">
        <ele>374.57</ele>
        <time>2013-05-05T10:56:25Z</time>
      </trkpt>
      <trkpt lat="41.636543258" lon="2.532497969">
        <ele>375.05</ele>
        <time>2013-05-05T10:56:32Z</time>
      </trkpt>
      <trkpt lat="41.636558178" lon="2.532315243">
        <ele>375.05</ele>
        <time>2013-05-05T10:56:37Z</time>
      </trkpt>
      <trkpt lat="41.636443346" lon="2.532027241">
        <ele>375.05</ele>
        <time>2013-05-05T10:56:44Z</time>
      </trkpt>
      <trkpt lat="41.636437898" lon="2.532002766">
        <ele>375.05</ele>
        <time>2013-05-05T10:56:45Z</time>
      </trkpt>
      <trkpt lat="41.636386349" lon="2.531866979">
        <ele>375.05</ele>
        <time>2013-05-05T10:56:49Z</time>
      </trkpt>
      <trkpt lat="41.636356174" lon="2.531725660">
        <ele>373.61</ele>
        <time>2013-05-05T10:56:52Z</time>
      </trkpt>
      <trkpt lat="41.636349049" lon="2.531486943">
        <ele>373.61</ele>
        <time>2013-05-05T10:56:58Z</time>
      </trkpt>
      <trkpt lat="41.636344607" lon="2.531238588">
        <ele>373.61</ele>
        <time>2013-05-05T10:57:04Z</time>
      </trkpt>
      <trkpt lat="41.636329855" lon="2.531092659">
        <ele>373.61</ele>
        <time>2013-05-05T10:57:08Z</time>
      </trkpt>
      <trkpt lat="41.636197588" lon="2.530936169">
        <ele>374.57</ele>
        <time>2013-05-05T10:57:15Z</time>
      </trkpt>
      <trkpt lat="41.636026178" lon="2.530944970">
        <ele>374.57</ele>
        <time>2013-05-05T10:57:21Z</time>
      </trkpt>
      <trkpt lat="41.635882848" lon="2.530972127">
        <ele>373.61</ele>
        <time>2013-05-05T10:57:25Z</time>
      </trkpt>
      <trkpt lat="41.635844626" lon="2.530982353">
        <ele>372.65</ele>
        <time>2013-05-05T10:57:26Z</time>
      </trkpt>
      <trkpt lat="41.635731387" lon="2.531135155">
        <ele>371.69</ele>
        <time>2013-05-05T10:57:30Z</time>
      </trkpt>
      <trkpt lat="41.635647736" lon="2.531529691">
        <ele>367.84</ele>
        <time>2013-05-05T10:57:36Z</time>
      </trkpt>
      <trkpt lat="41.635618483" lon="2.531712081">
        <ele>365.92</ele>
        <time>2013-05-05T10:57:39Z</time>
      </trkpt>
      <trkpt lat="41.635582105" lon="2.531893550">
        <ele>364.96</ele>
        <time>2013-05-05T10:57:43Z</time>
      </trkpt>
      <trkpt lat="41.635581602" lon="2.531996982">
        <ele>364.96</ele>
        <time>2013-05-05T10:57:45Z</time>
      </trkpt>
      <trkpt lat="41.635454868" lon="2.532165123">
        <ele>364.96</ele>
        <time>2013-05-05T10:57:50Z</time>
      </trkpt>
      <trkpt lat="41.635301395" lon="2.532075940">
        <ele>365.92</ele>
        <time>2013-05-05T10:57:55Z</time>
      </trkpt>
      <trkpt lat="41.635274238" lon="2.532045681">
        <ele>365.92</ele>
        <time>2013-05-05T10:57:56Z</time>
      </trkpt>
      <trkpt lat="41.635070222" lon="2.531834457">
        <ele>364.48</ele>
        <time>2013-05-05T10:58:03Z</time>
      </trkpt>
      <trkpt lat="41.635006352" lon="2.531782908">
        <ele>363.52</ele>
        <time>2013-05-05T10:58:05Z</time>
      </trkpt>
      <trkpt lat="41.634859082" lon="2.531858513">
        <ele>361.11</ele>
        <time>2013-05-05T10:58:09Z</time>
      </trkpt>
      <trkpt lat="41.634825638" lon="2.531910062">
        <ele>360.15</ele>
        <time>2013-05-05T10:58:10Z</time>
      </trkpt>
      <trkpt lat="41.634756739" lon="2.532025565">
        <ele>359.19</ele>
        <time>2013-05-05T10:58:12Z</time>
      </trkpt>
      <trkpt lat="41.634665293" lon="2.532225641">
        <ele>358.23</ele>
        <time>2013-05-05T10:58:15Z</time>
      </trkpt>
      <trkpt lat="41.634651546" lon="2.532588661">
        <ele>358.23</ele>
        <time>2013-05-05T10:58:21Z</time>
      </trkpt>
      <trkpt lat="41.634664538" lon="2.532835927">
        <ele>360.15</ele>
        <time>2013-05-05T10:58:27Z</time>
      </trkpt>
      <trkpt lat="41.634667220" lon="2.532911364">
        <ele>361.11</ele>
        <time>2013-05-05T10:58:29Z</time>
      </trkpt>
      <trkpt lat="41.634727235" lon="2.533202132">
        <ele>363.52</ele>
        <time>2013-05-05T10:58:38Z</time>
      </trkpt>
      <trkpt lat="41.634707957" lon="2.533389803">
        <ele>364.48</ele>
        <time>2013-05-05T10:58:44Z</time>
      </trkpt>
      <trkpt lat="41.634621288" lon="2.533492817">
        <ele>365.44</ele>
        <time>2013-05-05T10:58:50Z</time>
      </trkpt>
      <trkpt lat="41.634476029" lon="2.533453757">
        <ele>366.40</ele>
        <time>2013-05-05T10:58:57Z</time>
      </trkpt>
      <trkpt lat="41.634359688" lon="2.533488710">
        <ele>368.32</ele>
        <time>2013-05-05T10:59:04Z</time>
      </trkpt>
      <trkpt lat="41.634230104" lon="2.533518884">
        <ele>368.80</ele>
        <time>2013-05-05T10:59:11Z</time>
      </trkpt>
      <trkpt lat="41.634137987" lon="2.533557274">
        <ele>369.76</ele>
        <time>2013-05-05T10:59:16Z</time>
      </trkpt>
      <trkpt lat="41.634066657" lon="2.533547215">
        <ele>369.76</ele>
        <time>2013-05-05T10:59:19Z</time>
      </trkpt>
      <trkpt lat="41.633982754" lon="2.533521567">
        <ele>368.80</ele>
        <time>2013-05-05T10:59:21Z</time>
      </trkpt>
      <trkpt lat="41.633794581" lon="2.533370190">
        <ele>367.84</ele>
        <time>2013-05-05T10:59:26Z</time>
      </trkpt>
      <trkpt lat="41.633732722" lon="2.533293914">
        <ele>369.28</ele>
        <time>2013-05-05T10:59:29Z</time>
      </trkpt>
      <trkpt lat="41.633652340" lon="2.533191236">
        <ele>371.69</ele>
        <time>2013-05-05T10:59:35Z</time>
      </trkpt>
      <trkpt lat="41.633525102" lon="2.533057209">
        <ele>374.09</ele>
        <time>2013-05-05T10:59:43Z</time>
      </trkpt>
      <trkpt lat="41.633475901" lon="2.533012198">
        <ele>375.05</ele>
        <time>2013-05-05T10:59:46Z</time>
      </trkpt>
      <trkpt lat="41.633410270" lon="2.532940198">
        <ele>376.01</ele>
        <time>2013-05-05T10:59:50Z</time>
      </trkpt>
      <trkpt lat="41.633293007" lon="2.532786558">
        <ele>377.45</ele>
        <time>2013-05-05T10:59:58Z</time>
      </trkpt>
      <trkpt lat="41.633265682" lon="2.532734674">
        <ele>377.45</ele>
        <time>2013-05-05T11:00:00Z</time>
      </trkpt>
      <trkpt lat="41.633231736" lon="2.532450276">
        <ele>375.05</ele>
        <time>2013-05-05T11:00:04Z</time>
      </trkpt>
      <trkpt lat="41.633096871" lon="2.531745358">
        <ele>370.24</ele>
        <time>2013-05-05T11:00:10Z</time>
      </trkpt>
      <trkpt lat="41.632891263" lon="2.531410752">
        <ele>367.84</ele>
        <time>2013-05-05T11:00:13Z</time>
      </trkpt>
      <trkpt lat="41.632566045" lon="2.531027615">
        <ele>367.84</ele>
        <time>2013-05-05T11:00:18Z</time>
      </trkpt>
      <trkpt lat="41.632428414" lon="2.530874143">
        <ele>368.32</ele>
        <time>2013-05-05T11:00:21Z</time>
      </trkpt>
      <trkpt lat="41.632168743" lon="2.530624110">
        <ele>369.76</ele>
        <time>2013-05-05T11:00:28Z</time>
      </trkpt>
      <trkpt lat="41.632146112" lon="2.530604245">
        <ele>369.76</ele>
        <time>2013-05-05T11:00:29Z</time>
      </trkpt>
      <trkpt lat="41.632061287" lon="2.530542052">
        <ele>370.73</ele>
        <time>2013-05-05T11:00:33Z</time>
      </trkpt>
      <trkpt lat="41.631955172" lon="2.530603826">
        <ele>372.17</ele>
        <time>2013-05-05T11:00:38Z</time>
      </trkpt>
      <trkpt lat="41.631783678" lon="2.530890487">
        <ele>373.13</ele>
        <time>2013-05-05T11:00:48Z</time>
      </trkpt>
      <trkpt lat="41.631640515" lon="2.531116380">
        <ele>374.57</ele>
        <time>2013-05-05T11:00:56Z</time>
      </trkpt>
      <trkpt lat="41.631531467" lon="2.531294579">
        <ele>375.05</ele>
        <time>2013-05-05T11:01:02Z</time>
      </trkpt>
      <trkpt lat="41.631383275" lon="2.531460205">
        <ele>375.53</ele>
        <time>2013-05-05T11:01:09Z</time>
      </trkpt>
      <trkpt lat="41.631194766" lon="2.531458529">
        <ele>375.53</ele>
        <time>2013-05-05T11:01:15Z</time>
      </trkpt>
      <trkpt lat="41.630895448" lon="2.531426845">
        <ele>375.53</ele>
        <time>2013-05-05T11:01:24Z</time>
      </trkpt>
      <trkpt lat="41.630715237" lon="2.531501193">
        <ele>375.53</ele>
        <time>2013-05-05T11:01:30Z</time>
      </trkpt>
      <trkpt lat="41.630422876" lon="2.531625832">
        <ele>376.01</ele>
        <time>2013-05-05T11:01:39Z</time>
      </trkpt>
      <trkpt lat="41.630193966" lon="2.531592304">
        <ele>376.49</ele>
        <time>2013-05-05T11:01:46Z</time>
      </trkpt>
      <trkpt lat="41.629885848" lon="2.531486357">
        <ele>378.90</ele>
        <time>2013-05-05T11:01:57Z</time>
      </trkpt>
      <trkpt lat="41.629705301" lon="2.531385606">
        <ele>380.34</ele>
        <time>2013-05-05T11:02:04Z</time>
      </trkpt>
      <trkpt lat="41.629514529" lon="2.531244371">
        <ele>381.78</ele>
        <time>2013-05-05T11:02:12Z</time>
      </trkpt>
      <trkpt lat="41.629415707" lon="2.531083774">
        <ele>382.26</ele>
        <time>2013-05-05T11:02:18Z</time>
      </trkpt>
      <trkpt lat="41.629402547" lon="2.530988807">
        <ele>382.26</ele>
        <time>2013-05-05T11:02:20Z</time>
      </trkpt>
      <trkpt lat="41.629382933" lon="2.530580273">
        <ele>380.82</ele>
        <time>2013-05-05T11:02:26Z</time>
      </trkpt>
      <trkpt lat="41.629368600" lon="2.530395955">
        <ele>379.38</ele>
        <time>2013-05-05T11:02:28Z</time>
      </trkpt>
      <trkpt lat="41.629184618" lon="2.529736383">
        <ele>375.53</ele>
        <time>2013-05-05T11:02:34Z</time>
      </trkpt>
      <trkpt lat="41.628876415" lon="2.529093240">
        <ele>374.57</ele>
        <time>2013-05-05T11:02:40Z</time>
      </trkpt>
      <trkpt lat="41.628690002" lon="2.528743295">
        <ele>374.09</ele>
        <time>2013-05-05T11:02:44Z</time>
      </trkpt>
      <trkpt lat="41.628434521" lon="2.528328139">
        <ele>374.57</ele>
        <time>2013-05-05T11:02:50Z</time>
      </trkpt>
      <trkpt lat="41.628328322" lon="2.528201824">
        <ele>373.61</ele>
        <time>2013-05-05T11:02:52Z</time>
      </trkpt>
      <trkpt lat="41.627837143" lon="2.527794212">
        <ele>369.28</ele>
        <time>2013-05-05T11:02:59Z</time>
      </trkpt>
      <trkpt lat="41.627537825" lon="2.527576618">
        <ele>366.40</ele>
        <time>2013-05-05T11:03:03Z</time>
      </trkpt>
      <trkpt lat="41.627095009" lon="2.527366903">
        <ele>362.55</ele>
        <time>2013-05-05T11:03:09Z</time>
      </trkpt>
      <trkpt lat="41.626883869" lon="2.527313259">
        <ele>359.19</ele>
        <time>2013-05-05T11:03:12Z</time>
      </trkpt>
      <trkpt lat="41.626724780" lon="2.527300434">
        <ele>355.34</ele>
        <time>2013-05-05T11:03:15Z</time>
      </trkpt>
      <trkpt lat="41.626588491" lon="2.527237151">
        <ele>352.94</ele>
        <time>2013-05-05T11:03:20Z</time>
      </trkpt>
      <trkpt lat="41.626470306" lon="2.527131790">
        <ele>352.46</ele>
        <time>2013-05-05T11:03:25Z</time>
      </trkpt>
      <trkpt lat="41.626352708" lon="2.526969852">
        <ele>350.06</ele>
        <time>2013-05-05T11:03:30Z</time>
      </trkpt>
      <trkpt lat="41.626315157" lon="2.526806573">
        <ele>350.06</ele>
        <time>2013-05-05T11:03:36Z</time>
      </trkpt>
      <trkpt lat="41.626184232" lon="2.526576908">
        <ele>350.06</ele>
        <time>2013-05-05T11:03:45Z</time>
      </trkpt>
      <trkpt lat="41.625980887" lon="2.526326541">
        <ele>349.10</ele>
        <time>2013-05-05T11:03:53Z</time>
      </trkpt>
      <trkpt lat="41.625669080" lon="2.526108025">
        <ele>348.62</ele>
        <time>2013-05-05T11:04:03Z</time>
      </trkpt>
      <trkpt lat="41.625485181" lon="2.525876098">
        <ele>348.62</ele>
        <time>2013-05-05T11:04:11Z</time>
      </trkpt>
      <trkpt lat="41.625280495" lon="2.525532523">
        <ele>349.58</ele>
        <time>2013-05-05T11:04:20Z</time>
      </trkpt>
      <trkpt lat="41.625028954" lon="2.525228679">
        <ele>348.13</ele>
        <time>2013-05-05T11:04:28Z</time>
      </trkpt>
      <trkpt lat="41.624884031" lon="2.525006140">
        <ele>348.13</ele>
        <time>2013-05-05T11:04:34Z</time>
      </trkpt>
      <trkpt lat="41.624809851" lon="2.524791563">
        <ele>347.17</ele>
        <time>2013-05-05T11:04:38Z</time>
      </trkpt>
      <trkpt lat="41.624649757" lon="2.524369283">
        <ele>345.25</ele>
        <time>2013-05-05T11:04:45Z</time>
      </trkpt>
      <trkpt lat="41.624510114" lon="2.524002742">
        <ele>343.33</ele>
        <time>2013-05-05T11:04:50Z</time>
      </trkpt>
      <trkpt lat="41.624439371" lon="2.523850359">
        <ele>342.37</ele>
        <time>2013-05-05T11:04:52Z</time>
      </trkpt>
      <trkpt lat="41.624332837" lon="2.523621030">
        <ele>340.44</ele>
        <time>2013-05-05T11:04:55Z</time>
      </trkpt>
      <trkpt lat="41.624149525" lon="2.523011666">
        <ele>338.52</ele>
        <time>2013-05-05T11:05:02Z</time>
      </trkpt>
      <trkpt lat="41.623970655" lon="2.522628529">
        <ele>337.08</ele>
        <time>2013-05-05T11:05:09Z</time>
      </trkpt>
      <trkpt lat="41.623801843" lon="2.522451587">
        <ele>336.60</ele>
        <time>2013-05-05T11:05:14Z</time>
      </trkpt>
      <trkpt lat="41.623712827" lon="2.522384113">
        <ele>336.12</ele>
        <time>2013-05-05T11:05:16Z</time>
      </trkpt>
      <trkpt lat="41.623545357" lon="2.522305826">
        <ele>334.68</ele>
        <time>2013-05-05T11:05:21Z</time>
      </trkpt>
      <trkpt lat="41.623520295" lon="2.522322506">
        <ele>333.71</ele>
        <time>2013-05-05T11:05:22Z</time>
      </trkpt>
      <trkpt lat="41.623362799" lon="2.522435997">
        <ele>328.91</ele>
        <time>2013-05-05T11:05:26Z</time>
      </trkpt>
      <trkpt lat="41.623207482" lon="2.522535490">
        <ele>326.99</ele>
        <time>2013-05-05T11:05:29Z</time>
      </trkpt>
      <trkpt lat="41.623002713" lon="2.522465585">
        <ele>325.06</ele>
        <time>2013-05-05T11:05:33Z</time>
      </trkpt>
      <trkpt lat="41.622941273" lon="2.522451839">
        <ele>324.10</ele>
        <time>2013-05-05T11:05:34Z</time>
      </trkpt>
      <trkpt lat="41.622563333" lon="2.522392243">
        <ele>323.62</ele>
        <time>2013-05-05T11:05:41Z</time>
      </trkpt>
      <trkpt lat="41.622249096" lon="2.522411857">
        <ele>321.70</ele>
        <time>2013-05-05T11:05:48Z</time>
      </trkpt>
      <trkpt lat="41.622135772" lon="2.522411773">
        <ele>318.33</ele>
        <time>2013-05-05T11:05:51Z</time>
      </trkpt>
      <trkpt lat="41.622052205" lon="2.522373384">
        <ele>315.93</ele>
        <time>2013-05-05T11:05:53Z</time>
      </trkpt>
      <trkpt lat="41.621875598" lon="2.522059314">
        <ele>312.09</ele>
        <time>2013-05-05T11:05:58Z</time>
      </trkpt>
      <trkpt lat="41.621806028" lon="2.521851024">
        <ele>310.16</ele>
        <time>2013-05-05T11:06:01Z</time>
      </trkpt>
      <trkpt lat="41.621724724" lon="2.521684308">
        <ele>307.76</ele>
        <time>2013-05-05T11:06:04Z</time>
      </trkpt>
      <trkpt lat="41.621699746" lon="2.521641057">
        <ele>306.80</ele>
        <time>2013-05-05T11:06:05Z</time>
      </trkpt>
      <trkpt lat="41.621549458" lon="2.521454476">
        <ele>305.36</ele>
        <time>2013-05-05T11:06:09Z</time>
      </trkpt>
      <trkpt lat="41.621466729" lon="2.521339728">
        <ele>304.39</ele>
        <time>2013-05-05T11:06:11Z</time>
      </trkpt>
      <trkpt lat="41.621263384" lon="2.521154655">
        <ele>299.59</ele>
        <time>2013-05-05T11:06:16Z</time>
      </trkpt>
      <trkpt lat="41.621198843" lon="2.521170413">
        <ele>298.63</ele>
        <time>2013-05-05T11:06:18Z</time>
      </trkpt>
      <trkpt lat="41.621112677" lon="2.521134287">
        <ele>297.67</ele>
        <time>2013-05-05T11:06:23Z</time>
      </trkpt>
      <trkpt lat="41.621000444" lon="2.521097575">
        <ele>296.22</ele>
        <time>2013-05-05T11:06:29Z</time>
      </trkpt>
      <trkpt lat="41.620858538" lon="2.521085421">
        <ele>293.34</ele>
        <time>2013-05-05T11:06:34Z</time>
      </trkpt>
      <trkpt lat="41.620831883" lon="2.521090198">
        <ele>292.86</ele>
        <time>2013-05-05T11:06:36Z</time>
      </trkpt>
      <trkpt lat="41.620836745" lon="2.521149039">
        <ele>291.90</ele>
        <time>2013-05-05T11:06:40Z</time>
      </trkpt>
      <trkpt lat="41.620943111" lon="2.521295723">
        <ele>289.97</ele>
        <time>2013-05-05T11:06:47Z</time>
      </trkpt>
      <trkpt lat="41.620971777" lon="2.521325730">
        <ele>289.49</ele>
        <time>2013-05-05T11:06:49Z</time>
      </trkpt>
      <trkpt lat="41.620932215" lon="2.521343500">
        <ele>287.57</ele>
        <time>2013-05-05T11:06:54Z</time>
      </trkpt>
      <trkpt lat="41.620768684" lon="2.521275522">
        <ele>285.65</ele>
        <time>2013-05-05T11:07:02Z</time>
      </trkpt>
      <trkpt lat="41.620732977" lon="2.521259764">
        <ele>285.17</ele>
        <time>2013-05-05T11:07:09Z</time>
      </trkpt>
      <trkpt lat="41.620573134" lon="2.521201510">
        <ele>282.28</ele>
        <time>2013-05-05T11:07:15Z</time>
      </trkpt>
      <trkpt lat="41.620385631" lon="2.521087600">
        <ele>280.84</ele>
        <time>2013-05-05T11:07:21Z</time>
      </trkpt>
      <trkpt lat="41.620309607" lon="2.521005038">
        <ele>280.36</ele>
        <time>2013-05-05T11:07:26Z</time>
      </trkpt>
      <trkpt lat="41.620282701" lon="2.520937229">
        <ele>279.40</ele>
        <time>2013-05-05T11:07:29Z</time>
      </trkpt>
      <trkpt lat="41.620248419" lon="2.520925159">
        <ele>278.92</ele>
        <time>2013-05-05T11:07:32Z</time>
      </trkpt>
      <trkpt lat="41.620242636" lon="2.521071255">
        <ele>276.52</ele>
        <time>2013-05-05T11:07:39Z</time>
      </trkpt>
      <trkpt lat="41.620339363" lon="2.521225147">
        <ele>274.11</ele>
        <time>2013-05-05T11:07:46Z</time>
      </trkpt>
      <trkpt lat="41.620354366" lon="2.521244677">
        <ele>274.11</ele>
        <time>2013-05-05T11:07:47Z</time>
      </trkpt>
      <trkpt lat="41.620456961" lon="2.521353474">
        <ele>271.23</ele>
        <time>2013-05-05T11:07:53Z</time>
      </trkpt>
      <trkpt lat="41.620432318" lon="2.521383733">
        <ele>269.31</ele>
        <time>2013-05-05T11:07:58Z</time>
      </trkpt>
      <trkpt lat="41.620274068" lon="2.521318354">
        <ele>267.38</ele>
        <time>2013-05-05T11:08:05Z</time>
      </trkpt>
      <trkpt lat="41.620032920" lon="2.521312319">
        <ele>265.94</ele>
        <time>2013-05-05T11:08:12Z</time>
      </trkpt>
      <trkpt lat="41.619898978" lon="2.521314833">
        <ele>263.06</ele>
        <time>2013-05-05T11:08:17Z</time>
      </trkpt>
      <trkpt lat="41.619779787" lon="2.521286586">
        <ele>260.17</ele>
        <time>2013-05-05T11:08:21Z</time>
      </trkpt>
      <trkpt lat="41.619763107" lon="2.521282144">
        <ele>259.69</ele>
        <time>2013-05-05T11:08:22Z</time>
      </trkpt>
      <trkpt lat="41.619714073" lon="2.521267140">
        <ele>259.21</ele>
        <time>2013-05-05T11:08:25Z</time>
      </trkpt>
      <trkpt lat="41.619623213" lon="2.521228500">
        <ele>255.37</ele>
        <time>2013-05-05T11:08:31Z</time>
      </trkpt>
      <trkpt lat="41.619509052" lon="2.521219615">
        <ele>252.00</ele>
        <time>2013-05-05T11:08:35Z</time>
      </trkpt>
      <trkpt lat="41.619345856" lon="2.521164714">
        <ele>248.64</ele>
        <time>2013-05-05T11:08:39Z</time>
      </trkpt>
      <trkpt lat="41.619194814" lon="2.521213999">
        <ele>246.23</ele>
        <time>2013-05-05T11:08:43Z</time>
      </trkpt>
      <trkpt lat="41.619098003" lon="2.521260854">
        <ele>243.35</ele>
        <time>2013-05-05T11:08:46Z</time>
      </trkpt>
      <trkpt lat="41.618937154" lon="2.521287425">
        <ele>238.54</ele>
        <time>2013-05-05T11:08:51Z</time>
      </trkpt>
      <trkpt lat="41.618773037" lon="2.521272840">
        <ele>234.70</ele>
        <time>2013-05-05T11:08:56Z</time>
      </trkpt>
      <trkpt lat="41.618642111" lon="2.521312151">
        <ele>231.33</ele>
        <time>2013-05-05T11:09:00Z</time>
      </trkpt>
      <trkpt lat="41.618516969" lon="2.521355486">
        <ele>227.97</ele>
        <time>2013-05-05T11:09:04Z</time>
      </trkpt>
      <trkpt lat="41.618434240" lon="2.521384571">
        <ele>226.05</ele>
        <time>2013-05-05T11:09:07Z</time>
      </trkpt>
      <trkpt lat="41.618300884" lon="2.521472749">
        <ele>222.68</ele>
        <time>2013-05-05T11:09:11Z</time>
      </trkpt>
      <trkpt lat="41.618202145" lon="2.521547767">
        <ele>219.32</ele>
        <time>2013-05-05T11:09:15Z</time>
      </trkpt>
      <trkpt lat="41.618177670" lon="2.521574002">
        <ele>218.36</ele>
        <time>2013-05-05T11:09:16Z</time>
      </trkpt>
      <trkpt lat="41.618020593" lon="2.521633513">
        <ele>214.51</ele>
        <time>2013-05-05T11:09:20Z</time>
      </trkpt>
      <trkpt lat="41.617980695" lon="2.521640303">
        <ele>214.03</ele>
        <time>2013-05-05T11:09:24Z</time>
      </trkpt>
      <trkpt lat="41.617954963" lon="2.521665448">
        <ele>214.03</ele>
        <time>2013-05-05T11:09:38Z</time>
      </trkpt>
      <trkpt lat="41.617931158" lon="2.521677602">
        <ele>214.03</ele>
        <time>2013-05-05T11:09:50Z</time>
      </trkpt>
      <trkpt lat="41.617875670" lon="2.521521531">
        <ele>212.59</ele>
        <time>2013-05-05T11:09:55Z</time>
      </trkpt>
      <trkpt lat="41.617764275" lon="2.521073183">
        <ele>210.19</ele>
        <time>2013-05-05T11:10:03Z</time>
      </trkpt>
      <trkpt lat="41.617725047" lon="2.520962291">
        <ele>209.70</ele>
        <time>2013-05-05T11:10:05Z</time>
      </trkpt>
      <trkpt lat="41.617679282" lon="2.520775626">
        <ele>209.22</ele>
        <time>2013-05-05T11:10:08Z</time>
      </trkpt>
      <trkpt lat="41.617704679" lon="2.520532970">
        <ele>208.26</ele>
        <time>2013-05-05T11:10:13Z</time>
      </trkpt>
      <trkpt lat="41.617715576" lon="2.520441607">
        <ele>207.78</ele>
        <time>2013-05-05T11:10:15Z</time>
      </trkpt>
      <trkpt lat="41.617710211" lon="2.520329289">
        <ele>207.30</ele>
        <time>2013-05-05T11:10:17Z</time>
      </trkpt>
      <trkpt lat="41.617816829" lon="2.520124519">
        <ele>204.42</ele>
        <time>2013-05-05T11:10:21Z</time>
      </trkpt>
      <trkpt lat="41.617920094" lon="2.519925198">
        <ele>201.53</ele>
        <time>2013-05-05T11:10:26Z</time>
      </trkpt>
      <trkpt lat="41.617866450" lon="2.519799218">
        <ele>200.09</ele>
        <time>2013-05-05T11:10:30Z</time>
      </trkpt>
      <trkpt lat="41.617837197" lon="2.519710118">
        <ele>199.61</ele>
        <time>2013-05-05T11:10:36Z</time>
      </trkpt>
      <trkpt lat="41.617795455" lon="2.519654378">
        <ele>198.65</ele>
        <time>2013-05-05T11:10:41Z</time>
      </trkpt>
      <trkpt lat="41.617739967" lon="2.519654965">
        <ele>198.65</ele>
        <time>2013-05-05T11:10:43Z</time>
      </trkpt>
      <trkpt lat="41.617394130" lon="2.519670220">
        <ele>197.21</ele>
        <time>2013-05-05T11:10:51Z</time>
      </trkpt>
      <trkpt lat="41.617148205" lon="2.519698803">
        <ele>195.77</ele>
        <time>2013-05-05T11:10:57Z</time>
      </trkpt>
      <trkpt lat="41.617106547" lon="2.519691929">
        <ele>195.28</ele>
        <time>2013-05-05T11:11:02Z</time>
      </trkpt>
      <trkpt lat="41.617090789" lon="2.519687822">
        <ele>195.28</ele>
        <time>2013-05-05T11:11:13Z</time>
      </trkpt>
      <trkpt lat="41.617084754" lon="2.519703915">
        <ele>195.28</ele>
        <time>2013-05-05T11:11:25Z</time>
      </trkpt>
      <trkpt lat="41.617077629" lon="2.519704502">
        <ele>194.80</ele>
        <time>2013-05-05T11:11:43Z</time>
      </trkpt>
      <trkpt lat="41.616953828" lon="2.519717997">
        <ele>194.80</ele>
        <time>2013-05-05T11:11:50Z</time>
      </trkpt>
      <trkpt lat="41.616739671" lon="2.519780861">
        <ele>193.36</ele>
        <time>2013-05-05T11:11:57Z</time>
      </trkpt>
      <trkpt lat="41.616525513" lon="2.519877505">
        <ele>191.92</ele>
        <time>2013-05-05T11:12:04Z</time>
      </trkpt>
      <trkpt lat="41.616406406" lon="2.519986721">
        <ele>191.92</ele>
        <time>2013-05-05T11:12:09Z</time>
      </trkpt>
      <trkpt lat="41.616388385" lon="2.520003820">
        <ele>191.92</ele>
        <time>2013-05-05T11:12:10Z</time>
      </trkpt>
      <trkpt lat="41.616335160" lon="2.520087220">
        <ele>192.88</ele>
        <time>2013-05-05T11:12:17Z</time>
      </trkpt>
      <trkpt lat="41.616241953" lon="2.520249745">
        <ele>192.88</ele>
        <time>2013-05-05T11:12:23Z</time>
      </trkpt>
      <trkpt lat="41.616147405" lon="2.520493658">
        <ele>192.88</ele>
        <time>2013-05-05T11:12:29Z</time>
      </trkpt>
      <trkpt lat="41.616075321" lon="2.520742182">
        <ele>191.44</ele>
        <time>2013-05-05T11:12:34Z</time>
      </trkpt>
      <trkpt lat="41.616032070" lon="2.521027837">
        <ele>190.96</ele>
        <time>2013-05-05T11:12:39Z</time>
      </trkpt>
      <trkpt lat="41.615963423" lon="2.521426899">
        <ele>190.48</ele>
        <time>2013-05-05T11:12:45Z</time>
      </trkpt>
      <trkpt lat="41.615887902" lon="2.521905841">
        <ele>189.52</ele>
        <time>2013-05-05T11:12:52Z</time>
      </trkpt>
      <trkpt lat="41.615813889" lon="2.522404062">
        <ele>188.08</ele>
        <time>2013-05-05T11:12:58Z</time>
      </trkpt>
      <trkpt lat="41.615697213" lon="2.523207048">
        <ele>185.19</ele>
        <time>2013-05-05T11:13:06Z</time>
      </trkpt>
      <trkpt lat="41.615652119" lon="2.523822615">
        <ele>183.75</ele>
        <time>2013-05-05T11:13:12Z</time>
      </trkpt>
      <trkpt lat="41.615597385" lon="2.524382191">
        <ele>180.87</ele>
        <time>2013-05-05T11:13:17Z</time>
      </trkpt>
      <trkpt lat="41.615534856" lon="2.525227841">
        <ele>178.46</ele>
        <time>2013-05-05T11:13:24Z</time>
      </trkpt>
      <trkpt lat="41.615537287" lon="2.525963688">
        <ele>176.06</ele>
        <time>2013-05-05T11:13:30Z</time>
      </trkpt>
      <trkpt lat="41.615588249" lon="2.526537011">
        <ele>174.62</ele>
        <time>2013-05-05T11:13:35Z</time>
      </trkpt>
      <trkpt lat="41.615532006" lon="2.527231284">
        <ele>170.77</ele>
        <time>2013-05-05T11:13:41Z</time>
      </trkpt>
      <trkpt lat="41.615511890" lon="2.527346451">
        <ele>170.77</ele>
        <time>2013-05-05T11:13:42Z</time>
      </trkpt>
      <trkpt lat="41.615422706" lon="2.527833272">
        <ele>168.85</ele>
        <time>2013-05-05T11:13:46Z</time>
      </trkpt>
      <trkpt lat="41.615281639" lon="2.528532909">
        <ele>166.93</ele>
        <time>2013-05-05T11:13:52Z</time>
      </trkpt>
      <trkpt lat="41.615193880" lon="2.529161217">
        <ele>165.48</ele>
        <time>2013-05-05T11:13:58Z</time>
      </trkpt>
      <trkpt lat="41.615178541" lon="2.529806707">
        <ele>164.04</ele>
        <time>2013-05-05T11:14:04Z</time>
      </trkpt>
      <trkpt lat="41.615162616" lon="2.530543476">
        <ele>160.68</ele>
        <time>2013-05-05T11:14:11Z</time>
      </trkpt>
      <trkpt lat="41.615124478" lon="2.531016132">
        <ele>158.75</ele>
        <time>2013-05-05T11:14:17Z</time>
      </trkpt>
      <trkpt lat="41.615107714" lon="2.531226015">
        <ele>158.27</ele>
        <time>2013-05-05T11:14:20Z</time>
      </trkpt>
      <trkpt lat="41.615145433" lon="2.531503121">
        <ele>157.31</ele>
        <time>2013-05-05T11:14:24Z</time>
      </trkpt>
      <trkpt lat="41.615192707" lon="2.531643769">
        <ele>156.83</ele>
        <time>2013-05-05T11:14:26Z</time>
      </trkpt>
      <trkpt lat="41.615221959" lon="2.531810150">
        <ele>155.87</ele>
        <time>2013-05-05T11:14:28Z</time>
      </trkpt>
      <trkpt lat="41.615181307" lon="2.532249445">
        <ele>155.39</ele>
        <time>2013-05-05T11:14:33Z</time>
      </trkpt>
      <trkpt lat="41.615053064" lon="2.532787396">
        <ele>153.95</ele>
        <time>2013-05-05T11:14:40Z</time>
      </trkpt>
      <trkpt lat="41.614858772" lon="2.533403717">
        <ele>151.54</ele>
        <time>2013-05-05T11:14:48Z</time>
      </trkpt>
      <trkpt lat="41.614634472" lon="2.534106204">
        <ele>149.14</ele>
        <time>2013-05-05T11:14:57Z</time>
      </trkpt>
      <trkpt lat="41.614364742" lon="2.534923105">
        <ele>146.74</ele>
        <time>2013-05-05T11:15:08Z</time>
      </trkpt>
      <trkpt lat="41.614155781" lon="2.535596423">
        <ele>143.85</ele>
        <time>2013-05-05T11:15:17Z</time>
      </trkpt>
      <trkpt lat="41.613925447" lon="2.536244093">
        <ele>142.41</ele>
        <time>2013-05-05T11:15:26Z</time>
      </trkpt>
      <trkpt lat="41.613777338" lon="2.536569562">
        <ele>141.45</ele>
        <time>2013-05-05T11:15:32Z</time>
      </trkpt>
      <trkpt lat="41.613730651" lon="2.536640892">
        <ele>140.01</ele>
        <time>2013-05-05T11:15:37Z</time>
      </trkpt>
      <trkpt lat="41.613713468" lon="2.536642149">
        <ele>140.01</ele>
        <time>2013-05-05T11:15:47Z</time>
      </trkpt>
      <trkpt lat="41.613649095" lon="2.536767123">
        <ele>140.01</ele>
        <time>2013-05-05T11:15:53Z</time>
      </trkpt>
      <trkpt lat="41.613511632" lon="2.536996536">
        <ele>140.01</ele>
        <time>2013-05-05T11:16:00Z</time>
      </trkpt>
      <trkpt lat="41.613463688" lon="2.537082786">
        <ele>139.05</ele>
        <time>2013-05-05T11:16:02Z</time>
      </trkpt>
      <trkpt lat="41.613088765" lon="2.537525518">
        <ele>137.61</ele>
        <time>2013-05-05T11:16:12Z</time>
      </trkpt>
      <trkpt lat="41.612862957" lon="2.537759625">
        <ele>137.13</ele>
        <time>2013-05-05T11:16:18Z</time>
      </trkpt>
      <trkpt lat="41.612495326" lon="2.538188610">
        <ele>134.72</ele>
        <time>2013-05-05T11:16:27Z</time>
      </trkpt>
      <trkpt lat="41.612264070" lon="2.538569903">
        <ele>134.24</ele>
        <time>2013-05-05T11:16:33Z</time>
      </trkpt>
      <trkpt lat="41.612154015" lon="2.538805518">
        <ele>132.80</ele>
        <time>2013-05-05T11:16:38Z</time>
      </trkpt>
      <trkpt lat="41.612129875" lon="2.538840136">
        <ele>132.80</ele>
        <time>2013-05-05T11:16:39Z</time>
      </trkpt>
      <trkpt lat="41.611985371" lon="2.539063597">
        <ele>131.36</ele>
        <time>2013-05-05T11:16:45Z</time>
      </trkpt>
      <trkpt lat="41.611970871" lon="2.539079858">
        <ele>131.36</ele>
        <time>2013-05-05T11:16:46Z</time>
      </trkpt>
      <trkpt lat="41.611903480" lon="2.539045911">
        <ele>131.36</ele>
        <time>2013-05-05T11:16:50Z</time>
      </trkpt>
      <trkpt lat="41.611835084" lon="2.538810464">
        <ele>133.28</ele>
        <time>2013-05-05T11:16:57Z</time>
      </trkpt>
      <trkpt lat="41.611682869" lon="2.538767297">
        <ele>134.24</ele>
        <time>2013-05-05T11:17:03Z</time>
      </trkpt>
      <trkpt lat="41.611448259" lon="2.538789760">
        <ele>132.32</ele>
        <time>2013-05-05T11:17:08Z</time>
      </trkpt>
      <trkpt lat="41.611293697" lon="2.538806524">
        <ele>131.84</ele>
        <time>2013-05-05T11:17:11Z</time>
      </trkpt>
      <trkpt lat="41.611148774" lon="2.538824210">
        <ele>131.36</ele>
        <time>2013-05-05T11:17:14Z</time>
      </trkpt>
      <trkpt lat="41.610862029" lon="2.538957818">
        <ele>130.40</ele>
        <time>2013-05-05T11:17:20Z</time>
      </trkpt>
      <trkpt lat="41.610314774" lon="2.539260740">
        <ele>127.51</ele>
        <time>2013-05-05T11:17:31Z</time>
      </trkpt>
      <trkpt lat="41.609852261" lon="2.539531475">
        <ele>125.59</ele>
        <time>2013-05-05T11:17:40Z</time>
      </trkpt>
      <trkpt lat="41.609742709" lon="2.539596519">
        <ele>124.15</ele>
        <time>2013-05-05T11:17:43Z</time>
      </trkpt>
      <trkpt lat="41.609561912" lon="2.539699700">
        <ele>123.67</ele>
        <time>2013-05-05T11:17:49Z</time>
      </trkpt>
      <trkpt lat="41.609458898" lon="2.539770024">
        <ele>123.19</ele>
        <time>2013-05-05T11:17:52Z</time>
      </trkpt>
      <trkpt lat="41.609375163" lon="2.539817047">
        <ele>122.71</ele>
        <time>2013-05-05T11:17:54Z</time>
      </trkpt>
      <trkpt lat="41.609199478" lon="2.540085687">
        <ele>121.26</ele>
        <time>2013-05-05T11:18:01Z</time>
      </trkpt>
      <trkpt lat="41.609080790" lon="2.540285176">
        <ele>120.78</ele>
        <time>2013-05-05T11:18:07Z</time>
      </trkpt>
      <trkpt lat="41.608947937" lon="2.540408474">
        <ele>120.30</ele>
        <time>2013-05-05T11:18:13Z</time>
      </trkpt>
      <trkpt lat="41.608919439" lon="2.540447869">
        <ele>120.30</ele>
        <time>2013-05-05T11:18:16Z</time>
      </trkpt>
      <trkpt lat="41.608876188" lon="2.540395146">
        <ele>120.30</ele>
        <time>2013-05-05T11:18:20Z</time>
      </trkpt>
      <trkpt lat="41.608850875" lon="2.540302694">
        <ele>119.34</ele>
        <time>2013-05-05T11:18:23Z</time>
      </trkpt>
      <trkpt lat="41.608628252" lon="2.540311579">
        <ele>118.38</ele>
        <time>2013-05-05T11:18:30Z</time>
      </trkpt>
      <trkpt lat="41.608287443" lon="2.540360026">
        <ele>117.90</ele>
        <time>2013-05-05T11:18:39Z</time>
      </trkpt>
      <trkpt lat="41.607924339" lon="2.540408977">
        <ele>117.90</ele>
        <time>2013-05-05T11:18:48Z</time>
      </trkpt>
      <trkpt lat="41.607776147" lon="2.540415514">
        <ele>116.94</ele>
        <time>2013-05-05T11:18:52Z</time>
      </trkpt>
      <trkpt lat="41.607624100" lon="2.540438984">
        <ele>115.98</ele>
        <time>2013-05-05T11:18:58Z</time>
      </trkpt>
      <trkpt lat="41.607413630" lon="2.540385256">
        <ele>115.01</ele>
        <time>2013-05-05T11:19:03Z</time>
      </trkpt>
      <trkpt lat="41.607062847" lon="2.540281236">
        <ele>114.05</ele>
        <time>2013-05-05T11:19:10Z</time>
      </trkpt>
      <trkpt lat="41.606704186" lon="2.540217701">
        <ele>113.09</ele>
        <time>2013-05-05T11:19:18Z</time>
      </trkpt>
      <trkpt lat="41.606487094" lon="2.540179899">
        <ele>112.61</ele>
        <time>2013-05-05T11:19:25Z</time>
      </trkpt>
      <trkpt lat="41.606309566" lon="2.540170092">
        <ele>112.13</ele>
        <time>2013-05-05T11:19:32Z</time>
      </trkpt>
      <trkpt lat="41.606204624" lon="2.540158609">
        <ele>112.13</ele>
        <time>2013-05-05T11:19:37Z</time>
      </trkpt>
      <trkpt lat="41.606140754" lon="2.540196831">
        <ele>112.13</ele>
        <time>2013-05-05T11:19:41Z</time>
      </trkpt>
      <trkpt lat="41.606109238" lon="2.540229436">
        <ele>112.13</ele>
        <time>2013-05-05T11:19:48Z</time>
      </trkpt>
      <trkpt lat="41.606101611" lon="2.540216528">
        <ele>112.13</ele>
        <time>2013-05-05T11:20:01Z</time>
      </trkpt>
      <trkpt lat="41.606097587" lon="2.540232202">
        <ele>112.13</ele>
        <time>2013-05-05T11:20:12Z</time>
      </trkpt>
      <trkpt lat="41.606087948" lon="2.540225999">
        <ele>112.13</ele>
        <time>2013-05-05T11:20:28Z</time>
      </trkpt>
      <trkpt lat="41.606096246" lon="2.540256510">
        <ele>112.13</ele>
        <time>2013-05-05T11:20:40Z</time>
      </trkpt>
      <trkpt lat="41.606086942" lon="2.540250391">
        <ele>111.65</ele>
        <time>2013-05-05T11:20:53Z</time>
      </trkpt>
      <trkpt lat="41.606074621" lon="2.540252067">
        <ele>111.65</ele>
        <time>2013-05-05T11:21:03Z</time>
      </trkpt>
      <trkpt lat="41.606085014" lon="2.540250894">
        <ele>111.65</ele>
        <time>2013-05-05T11:21:16Z</time>
      </trkpt>
      <trkpt lat="41.606085601" lon="2.540254498">
        <ele>111.65</ele>
        <time>2013-05-05T11:21:25Z</time>
      </trkpt>
      <trkpt lat="41.606058025" lon="2.540283415">
        <ele>111.65</ele>
        <time>2013-05-05T11:21:31Z</time>
      </trkpt>
      <trkpt lat="41.606047296" lon="2.540299341">
        <ele>111.65</ele>
        <time>2013-05-05T11:21:32Z</time>
      </trkpt>
      <trkpt lat="41.606037573" lon="2.540332617">
        <ele>111.65</ele>
        <time>2013-05-05T11:21:34Z</time>
      </trkpt>
      <trkpt lat="41.605942774" lon="2.540362457">
        <ele>111.65</ele>
        <time>2013-05-05T11:21:40Z</time>
      </trkpt>
      <trkpt lat="41.605940594" lon="2.540426914">
        <ele>111.65</ele>
        <time>2013-05-05T11:21:45Z</time>
      </trkpt>
      <trkpt lat="41.605966913" lon="2.540436972">
        <ele>113.09</ele>
        <time>2013-05-05T11:21:48Z</time>
      </trkpt>
      <trkpt lat="41.606011086" lon="2.540542668">
        <ele>113.09</ele>
        <time>2013-05-05T11:21:54Z</time>
      </trkpt>
      <trkpt lat="41.606056935" lon="2.540576028">
        <ele>113.09</ele>
        <time>2013-05-05T11:21:56Z</time>
      </trkpt>
      <trkpt lat="41.606336555" lon="2.540685747">
        <ele>114.05</ele>
        <time>2013-05-05T11:22:05Z</time>
      </trkpt>
      <trkpt lat="41.606511737" lon="2.540764872">
        <ele>114.53</ele>
        <time>2013-05-05T11:22:11Z</time>
      </trkpt>
      <trkpt lat="41.606586001" lon="2.540886494">
        <ele>115.01</ele>
        <time>2013-05-05T11:22:15Z</time>
      </trkpt>
      <trkpt lat="41.606665964" lon="2.541209867">
        <ele>116.94</ele>
        <time>2013-05-05T11:22:24Z</time>
      </trkpt>
      <trkpt lat="41.606734361" lon="2.541470880">
        <ele>118.38</ele>
        <time>2013-05-05T11:22:32Z</time>
      </trkpt>
      <trkpt lat="41.606819688" lon="2.541760223">
        <ele>120.30</ele>
        <time>2013-05-05T11:22:40Z</time>
      </trkpt>
      <trkpt lat="41.606925300" lon="2.542049566">
        <ele>121.74</ele>
        <time>2013-05-05T11:22:49Z</time>
      </trkpt>
      <trkpt lat="41.607011718" lon="2.542215696">
        <ele>123.19</ele>
        <time>2013-05-05T11:22:55Z</time>
      </trkpt>
      <trkpt lat="41.607079527" lon="2.542351315">
        <ele>124.63</ele>
        <time>2013-05-05T11:23:02Z</time>
      </trkpt>
      <trkpt lat="41.607091513" lon="2.542357518">
        <ele>125.11</ele>
        <time>2013-05-05T11:23:07Z</time>
      </trkpt>
      <trkpt lat="41.607095369" lon="2.542358020">
        <ele>125.11</ele>
        <time>2013-05-05T11:23:18Z</time>
      </trkpt>
      <trkpt lat="41.607102242" lon="2.542377886">
        <ele>124.63</ele>
        <time>2013-05-05T11:23:27Z</time>
      </trkpt>
      <trkpt lat="41.607094447" lon="2.542379813">
        <ele>125.59</ele>
        <time>2013-05-05T11:23:48Z</time>
      </trkpt>
    </trkseg>
  </trk>
</gpx>
